     2              OBSERVATION DATA    GPS                 RINEX VERSION / TYPE
ASRINEXO V2.4.4 UX USGS 18-DEC-96 11:08                     PGM / RUN BY / DATE
                                                            COMMENT
Original Marker Name: tuna Tuna_1933_City_of_LA             COMMENT
Campaign Name: usgs.northridge                              COMMENT
4-Character Station Name: TUNA                              COMMENT
6-Character Antenna Code: ASHL12                            COMMENT
Vertical Measurement Point: BBE                             COMMENT
Vertical Offset to Rinex Ref. Point: 0.0595                 COMMENT
Radial Measurement Point: EGP                               COMMENT
Radial Offset to Rinex Ref. Point: 0.1424                   COMMENT
Antenna Height from Field Measurement: 1.4110 m             COMMENT
Additional Antenna Identification Info.:                    COMMENT
Original Ashtech L1/L2                                      COMMENT
Original XYZ: -2531808.4970 -4644503.2334 3552500.8536      COMMENT
New XYZ position is based on association with SCEC monument COMMENT
E1C7Y3O5+0011. Position of that monument is believed to be  COMMENT
valid to within 1 m horizontally; vertical accuracy         COMMENT
should be no worse than 3-times this value.                 COMMENT
                                                            COMMENT
Revised Rinex header created by UCSD GPS archive for        COMMENT
GSAC on 12-Nov-1999 (1999:316) 16:09:04 GMT                 COMMENT
For assistance contact dagnew@ucsd.edu or hjohnson@ucsd.edu COMMENT
                                                            COMMENT
TUNA TUNA_1933_CITY_OF_LA                                   MARKER NAME
CHS US GEOLOGICAL SURVEY                                    OBSERVER / AGENCY
597 ASHTECH Z-XII3 1E95                                     REC # / TYPE / VERS
598 ASHTECH GEODETIC L                                      ANT # / TYPE
 -2531812.0000 -4644540.0000  3552538.0000                  APPROX POSITION XYZ
        1.3443        0.0000        0.0000                  ANTENNA: DELTA H/E/N
     1     1     0                                          WAVELENGTH FACT L1/2
     5    C1    L1    L2    P1    P2                        # / TYPES OF OBSERV
    30                                                      INTERVAL
  1996    12    10     0     0   30.000000                  TIME OF FIRST OBS
  1996    12    10    23     4   30.000000                  TIME OF LAST OBS
                                                            END OF HEADER
 96 12 10  0  0 30.0000000  0  8 27 16 18  2  3 31 10 19
  21678625.718   -49589843.25649 -37779454.30349  21678624.5114   21678629.3244
  24660184.493   -62630813.46449 -48780894.39749  24660183.4504   24660191.4414
  21346860.241   -79073322.74949 -61163841.64349  21346859.6674   21346863.7474
  22885314.380   -31282100.20349 -22103446.33649  22885313.0174   22885318.5124
  24339727.361   -45908354.43349 -33856362.59749  24339726.8084   24339731.5744
  21992173.362   -50625452.97549 -39431548.61049  21992172.1364   21992175.6534
  23819386.781   -28849365.22449 -22457862.35949  23819386.0624   23819391.0404
  20838703.371   -70857448.57849 -55146013.96849  20838702.6364   20838707.0464
 96 12 10  0  1  0.0000000  0  8 27 16 18  2  3 31 10 19
  21651562.554   -49732060.88049 -37890273.20849  21651561.4364   21651566.1704
  24661698.645   -62622855.51949 -48774693.45249  24661696.6834   24661705.7314
  21343245.327   -79092319.29049 -61178644.15349  21343244.5894   21343248.7264
  22856060.452   -31435830.06149 -22223235.81249  22856059.7194   22856064.8624
  24335131.671   -45932505.31049 -33875181.47349  24335131.5594   24335135.8364
  21976115.243   -50709838.89949 -39497303.86449  21976114.6824   21976117.2474
  23801862.150   -28941458.59649 -22529623.42649  23801860.7954   23801866.1154
  20822263.876   -70943838.41149 -55213330.71449  20822263.1874   20822267.2814
 96 12 10  0  1 30.0000000  0  8 27 16 18  2  3 31 10 19
  21624532.136   -49874106.15649 -38000957.83149  21624531.6084   21624535.7004
  24663207.036   -62614927.02449 -48768515.45349  24663205.6884   24663214.4184
  21339725.924   -79110813.60249 -61193055.30849  21339725.0564   21339729.2054
  22826859.375   -31589282.29749 -22342808.96849  22826857.2664   22826863.9464
  24330623.174   -45956198.48049 -33893643.69549  24330622.4414   24330626.7814
  21960176.778   -50793596.18449 -39562569.27149  21960175.8874   21960179.4674
  23784440.837   -29033008.67849 -22600961.13349  23784439.1354   23784444.8084
  20805875.445   -71029960.07349 -55280438.49549  20805874.6734   20805878.9464
 96 12 10  0  2  0.0000000  0  8 27 16 18  2  3 31 10 19
  21597526.908   -50016019.82649 -38111539.88549  21597526.2744   21597530.3404
  24664700.513   -62607078.09549 -48762399.46349  24664699.2244   24664709.0014
  21336293.394   -79128851.09349 -61207110.50249  21336292.2824   21336296.8344
  22797703.524   -31742496.32849 -22462196.49949  22797702.2394   22797707.3054
  24326193.835   -45979475.06849 -33911781.29649  24326192.9774   24326198.4734
  21944352.825   -50876751.87849 -39627365.90249  21944351.7614   21944356.0664
  23767117.999   -29124041.35149 -22671895.68549  23767117.6974   23767121.2214
  20789530.879   -71115851.44749 -55347366.83349  20789530.1684   20789534.2904
 96 12 10  0  2 30.0000000  0  8 27 16 18  2  3 31 10 19
  21570548.249   -50157793.83649 -38222013.13149  21570547.7114   21570551.8074
  24666174.629   -62599332.28149 -48756363.79949  24666173.8434   24666182.2464
  21332942.998   -79146457.17849 -61220829.53549  21332942.4014   21332946.4764
  22768596.701   -31895452.63749 -22581383.21149  22768595.1204   22768601.2044
  24321844.170   -46002332.59449 -33929592.36149  24321843.2884   24321847.7304
  21928647.084   -50959286.01449 -39691678.20149  21928645.9644   21928650.0984
  23749894.884   -29214549.53849 -22742421.54149  23749893.2714   23749898.7554
  20773226.695   -71201530.26549 -55414129.55049  20773225.8354   20773230.2684
 96 12 10  0  3  0.0000000  0  8 27 16 18  2  3 31 10 19
  21543596.002   -50299429.13149 -38332378.28149  21543595.4094   21543599.5304
  24667624.793   -62591712.42849 -48750426.31149  24667623.8494   24667632.2544
  21329668.571   -79163664.51749 -61234237.85849  21329667.7384   21329672.3044
  22739541.348   -32048139.19649 -22700359.72849  22739539.8344   22739546.1404
  24317571.582   -46024784.95549 -33947087.70349  24317571.0064   24317574.2584
  21913060.730   -51041192.70149 -39755501.56749  21913059.3654   21913063.1744
  23732771.003   -29304535.88749 -22812540.76749  23732770.1454   23732775.0214
  20756960.727   -71287008.43649 -55480735.90949  20756959.6964   20756964.4634
 96 12 10  0  3 30.0000000  0  8 27 16 18  2  3 31 10 19
  21516670.190   -50440925.28249 -38442635.00849  21516669.7594   21516673.4854
  24669053.394   -62584206.22249 -48744577.33649  24669052.6304   24669060.0344
  21326470.998   -79180468.25049 -61247331.68649  21326470.6024   21326474.5724
  22710539.523   -32200544.88749 -22819117.39649  22710538.3314   22710543.6744
  24313376.606   -46046829.75949 -33964265.48849  24313376.4304   24313380.0084
  21897598.489   -51122446.69449 -39818816.33649  21897597.5394   21897601.5474
  23715750.399   -29393979.45949 -22882237.04749  23715748.8294   23715754.3284
  20740734.790   -71372275.64649 -55547177.88049  20740733.4594   20740738.3544
 96 12 10  0  4  0.0000000  0  8 27 16 18  2  3 31 10 19
  21489761.836   -50582329.67149 -38552820.23849  21489761.1984   21489765.3054
  24670456.211   -62576834.96249 -48738833.53349  24670456.0494   24670462.6184
  21323343.306   -79196904.96349 -61260139.53449  21323342.7174   21323346.9674
  22681587.516   -32352689.38949 -22937671.52149  22681586.3554   22681591.6424
  24309253.939   -46068495.33449 -33981147.75449  24309253.7144   24309257.1394
  21882253.806   -51203083.02149 -39881649.81449  21882252.9324   21882256.8324
  23698827.842   -29482907.61549 -22951531.71649  23698826.4144   23698831.1724
  20724545.299   -71457351.01749 -55613470.37449  20724544.3664   20724549.2144
 96 12 10  0  4 30.0000000  0  8 27 16 18  2  3 31 10 19
  21462878.618   -50723602.28149 -38662902.79249  21462878.1494   21462881.7594
  24671840.717   -62569560.46449 -48733165.12749  24671840.1304   24671846.8124
  21320291.836   -79212940.91649 -61272635.09549  21320291.2494   21320295.5424
  22652689.657   -32504548.83549 -23056003.53949  22652689.1504   22652693.7004
  24305210.872   -46089742.30849 -33997703.82749  24305210.1134   24305214.1504
  21867030.789   -51283080.10149 -39943985.18349  21867030.0104   21867034.2314
  23682009.972   -29571285.13149 -23020397.31049  23682008.2074   23682014.4024
  20708400.520   -71542192.28749 -55679580.45149  20708399.8234   20708404.4204
 96 12 10  0  5  0.0000000  0  8 27 16 18  2  3 31 10 19
  21436016.803   -50864762.26949 -38772897.58349  21436016.1754   21436020.1674
  24673207.973   -62562376.23149 -48727567.07149  24673207.9944   24673214.4024
  21317315.510   -79228581.70149 -61284822.73649  21317314.4904   21317319.1634
  22623837.905   -32656166.21749 -23174146.92249  22623837.0644   22623842.2134
  24301243.051   -46110593.60749 -34013951.59349  24301242.5404   24301246.3554
  21851923.370   -51362470.38649 -40005847.72249  21851922.5994   21851926.7844
  23665292.452   -29659135.23149 -23088851.93149  23665290.4004   23665295.1324
  20692300.197   -71626800.27349 -55745508.74849  20692299.7694   20692304.0454
 96 12 10  0  5 30.0000000  0  8 27 16 18  2  3 31 10 19
  21409175.869   -51005812.67149 -38882806.98749  21409175.6364   21409179.0884
  24674562.512   -62555258.45749 -48722020.75849  24674561.1674   24674568.4374
  21314414.450   -79243826.43549 -61296701.76649  21314413.7284   21314417.9154
  22595030.924   -32807548.03249 -23292106.77849  22595030.0364   22595035.2794
  24297354.658   -46131027.23049 -34029873.87849  24297353.6024   24297358.2174
  21836930.448   -51441258.75249 -40067241.22949  21836929.5584   21836933.4994
  23648672.704   -29746472.35849 -23156906.82849  23648671.3754   23648677.6234
  20676245.507   -71711168.77049 -55811250.42849  20676245.0434   20676249.0234
 96 12 10  0  6  0.0000000  0  8 27 16 18  2  3 31 10 19
  21382362.237   -51146719.71149 -38992604.67849  21382361.6894   21382365.1044
  24675911.657   -62548169.77049 -48716497.14549  24675911.3124   24675917.2004
  21311595.395   -79258640.33749 -61308245.07549  21311594.6904   21311598.8714
  22566274.827   -32958662.48349 -23409858.27349  22566274.1834   22566278.6904
  24293554.130   -46150999.04149 -34045436.34049  24293553.0434   24293558.0174
  21822056.674   -51519420.86349 -40128146.75849  21822055.8954   21822060.0934
  23632154.095   -29833278.84049 -23224548.24549  23632153.6804   23632159.3994
  20660239.714   -71795280.02249 -55876791.66149  20660239.1544   20660243.0394
 96 12 10  0  6 30.0000000  0  8 27 16 18  2  3 31 10 19
  21355566.987   -51287529.90549 -39102326.90549  21355566.3894   21355569.9384
  24677242.785   -62541175.83649 -48711047.34849  24677242.6904   24677248.9854
  21308845.967   -79273088.41949 -61319503.32849  21308844.9944   21308849.3314
  22537557.517   -33109572.87649 -23527450.76349  22537556.3744   22537561.4794
  24289826.075   -46170589.89649 -34060701.92749  24289826.0834   24289830.3224
  21807288.982   -51597025.55049 -40188617.92149  21807288.3584   21807291.7934
  23615722.926   -29919626.07449 -23291831.79349  23615721.7864   23615726.5954
  20644268.174   -71879211.31149 -55942192.65749  20644267.4714   20644271.6114
 96 12 10  0  7  0.0000000  0  8 27 16 18  2  3 31 10 19
  21328822.734   -51428071.62849 -39211839.93949  21328822.0244   21328825.8674
  24678587.795   -62534108.13949 -48705540.07949  24678586.3904   24678593.5184
  21306200.260   -79286991.57749 -61330336.97549  21306199.5654   21306203.4994
  22508916.336   -33260083.29549 -23644731.58249  22508914.8924   22508920.5544
  24286204.130   -46189623.67849 -34075533.42849  24286203.4214   24286208.2214
  21792662.280   -51673889.11249 -40248511.59449  21792661.4544   21792665.4614
  23599411.826   -30005341.84749 -23358623.30149  23599410.3184   23599415.4554
  20628363.787   -71962789.55949 -56007318.56749  20628363.0314   20628366.8374
 96 12 10  0  7 30.0000000  0  8 27 16 18  2  3 31 10 19
  21302093.290   -51568535.60649 -39321292.38949  21302092.4984   21302096.4324
  24679908.268   -62527168.82549 -48700132.83949  24679908.0254   24679914.5504
  21303623.413   -79300532.97549 -61340888.72749  21303622.6094   21303626.8584
  22480318.958   -33410363.67749 -23761833.15349  22480318.1704   22480323.3814
  24282651.632   -46208292.41049 -34090080.47649  24282651.0014   24282654.5914
  21778141.330   -51750197.29349 -40307972.50549  21778140.3174   21778144.5794
  23583184.465   -30090617.48049 -23425071.83849  23583183.5724   23583188.9384
  20612489.138   -72046211.27549 -56072322.49649  20612488.7814   20612492.4364
 96 12 10  0  8  0.0000000  0  8 27 16 18  2  3 31 10 19
  21275389.264   -51708866.28649 -39430640.96849  21275388.4254   21275392.5144
  24681208.278   -62520337.90049 -48694810.08049  24681207.8654   24681213.7184
  21301124.973   -79313662.24849 -61351119.34049  21301124.1394   21301127.9004
  22451773.621   -33560369.74749 -23878720.97049  22451772.1124   22451777.4704
  24279173.717   -46226568.96349 -34104321.93949  24279173.4084   24279176.6304
  21763734.065   -51825907.96149 -40366967.81649  21763733.5214   21763737.6114
  23567050.736   -30175400.53049 -23491136.56049  23567049.1014   23567054.9924
  20596653.048   -72129430.67649 -56137168.77849  20596652.4844   20596656.4974
 96 12 10  0  8 30.0000000  0  7 27 18  2  3 31 10 19
  21248718.465   -51849022.22649 -39539853.38849  21248717.9594   21248721.9354
  21298709.058   -79326358.07249 -61361012.20549  21298708.5014   21298712.5444
  22423288.413   -33710060.54049 -23995363.11949  22423287.5714   22423292.8444
  24275776.175   -46244423.17349 -34118234.28249  24275775.6204   24275779.0214
  21749446.689   -51900988.86749 -40425472.42549  21749446.5514   21749450.6224
  23551018.983   -30259647.79549 -23556783.78649  23551016.4114   23551023.5764
  20580864.105   -72212402.46349 -56201822.11849  20580863.7054   20580867.5854
 96 12 10  0  8 59.9990000  0  7 27 18  2  3 31 10 19
  21222060.181   -51989112.49449 -39649014.63449  21222059.4544   21222063.3644
  21296358.078   -79338712.63449 -61370639.14849  21296357.5284   21296361.3474
  22394844.532   -33859534.08449 -24111835.98149  22394843.5024   22394848.9114
  24272441.312   -46261947.59149 -34131889.64949  24272441.1494   24272444.7374
  21735260.884   -51975536.21549 -40483561.26349  21735260.4924   21735264.4854
  23535071.517   -30343452.24249 -23622085.95349  23535070.2104   23535075.9684
  20565104.808   -72295218.29849 -56266353.92849  20565104.2454   20565108.2344
 96 12 10  0  9 29.9990000  0  7 27 18  2  3 31 10 19
  21195446.384   -52128968.84349 -39757993.59849  21195445.6484   21195449.4964
  21294103.289   -79350561.88949 -61379872.34449  21294103.0294   21294106.5884
  22366472.983   -34008628.15549 -24228013.14949  22366472.2834   22366477.3834
  24269201.434   -46278973.04949 -34145156.24249  24269200.6024   24269204.6564
  21721209.153   -52049378.83149 -40541100.96249  21721208.0514   21721211.9684
  23519238.917   -30426652.47949 -23686917.30649  23519237.6914   23519243.2054
  20549407.174   -72377710.16149 -56330633.30349  20549406.5124   20549410.5474
 96 12 10  0  9 59.9990000  0  7 27 18  2  3 31 10 19
  21168875.412   -52268600.21349 -39866797.24949  21168874.4734   21168878.4854
  21291940.434   -79361928.36349 -61388729.34449  21291940.2074   21291943.5764
  22338171.840   -34157352.20949 -24343901.98049  22338170.7064   22338175.0314
  24266051.554   -46295525.50049 -34158054.25849  24266050.8634   24266055.1084
  21707290.110   -52122523.39249 -40598096.70849  21707289.0174   21707293.3324
  23503520.982   -30509251.12849 -23751279.90449  23503519.9924   23503524.6784
  20533767.988   -72459894.58149 -56394673.11149  20533767.2994   20533771.4134
 96 12 10  0 10 29.9990000  0  7 27 18  2  3 31 10 19
  21142322.914   -52408134.33349 -39975525.11949  21142322.0954   21142326.0564
  21289847.640   -79372926.88249 -61397299.63049  21289847.1464   21289850.7924
  22309918.294   -34305824.79749 -24459594.87149  22309916.7964   22309921.4434
  24262966.074   -46311739.00049 -34170688.16449  24262965.0694   24262968.7894
  21693481.935   -52195085.45149 -40654638.57349  21693480.8464   21693484.9824
  23487894.314   -30591370.28549 -23815268.87849  23487892.4404   23487898.0054
  20518163.907   -72541894.48749 -56458569.13849  20518163.1914   20518167.5924
 96 12 10  0 10 59.9990000  0  7 27 18  2  3 31 10 19
  21115790.719   -52547561.93949 -40084170.00449  21115789.8334   21115793.8264
  21287827.594   -79383542.36249 -61405571.45349  21287826.8144   21287830.7764
  22281712.074   -34454048.71949 -24575094.00449  22281710.1934   22281715.0894
  24259944.737   -46327615.71849 -34183059.64249  24259943.2214   24259948.4594
  21679787.178   -52267051.93049 -40710716.34749  21679786.2364   21679790.3214
  23472358.852   -30673009.78049 -23878884.04749  23472357.9154   23472362.2044
  20502596.812   -72623700.26649 -56522313.89949  20502596.0184   20502600.6444
 96 12 10  0 11 29.9990000  0  7 27 18  2  3 31 10 19
  21089284.181   -52686854.80749 -40192709.88849  21089283.3834   21089287.2834
  21285882.040   -79393766.31649 -61413538.18049  21285881.3714   21285885.2944
  22253555.255   -34602013.31949 -24690391.06149  22253553.8954   22253558.6344
  24256990.911   -46343138.35549 -34195155.18249  24256990.4454   24256994.9514
  21666211.877   -52338390.71149 -40766304.99949  21666210.7044   21666214.6134
  23456917.660   -30754153.84849 -23942113.20649  23456916.2654   23456921.2564
  20487071.309   -72705287.46849 -56585888.34149  20487070.7564   20487074.9664
 96 12 10  0 11 59.9990000  0  7 27 18  2  3 31 10 19
  21062804.540   -52826006.26249 -40301139.57949  21062803.5844   21062807.3154
  21284009.907   -79403604.64149 -61421204.41849  21284009.2274   21284013.2484
  22225442.616   -34749745.92549 -24805507.35849  22225441.8174   22225446.7684
  24254104.775   -46358305.71149 -34206973.90749  24254104.4034   24254107.6654
  21652753.163   -52409116.89449 -40821416.29649  21652752.2724   21652755.9964
  23441571.966   -30834795.71649 -24004951.01749  23441569.8594   23441576.5224
  20471588.386   -72786650.72949 -56649288.28249  20471587.4954   20471591.8514
 96 12 10  0 12 29.9990000  0  7 27 18  2  3 31 10 19
  21036347.869   -52965036.80749 -40409475.06149  21036347.0504   21036350.9574
  21282204.452   -79413092.75149 -61428597.76649  21282204.0874   21282207.8634
  22197368.790   -34897275.31749 -24920465.29149  22197367.4524   22197373.2764
  24251286.228   -46373117.60349 -34218515.63149  24251285.9644   24251289.6344
  21639405.703   -52479258.26549 -40876071.90049  21639405.0624   21639409.0764
  23426315.698   -30914967.86749 -24067422.84149  23426314.7704   23426319.3124
  20456144.142   -72867810.55349 -56712529.70949  20456143.2674   20456147.2404
 96 12 10  0 12 59.9990000  0  7 27 18  2  3 31 10 19
  21009917.752   -53103927.61349 -40517701.65349  21009916.9574   21009920.9374
  21280465.726   -79422230.39249 -61435718.01049  21280465.1114   21280469.1634
  22169338.202   -35044577.16049 -25035245.92949  22169337.0074   22169342.3014
  24248542.557   -46387535.33749 -34229750.22949  24248541.5144   24248546.9444
  21626174.121   -52548791.25649 -40930253.43849  21626173.5124   21626177.1604
  23411152.403   -30994652.45949 -24129514.72349  23411150.9074   23411155.9364
  20440741.021   -72948754.05949 -56775602.56949  20440740.1104   20440744.5024
 96 12 10  0 13 29.9990000  0  7 27 18  2  3 31 10 19
  20983516.089   -53242669.21949 -40625811.98149  20983515.3154   20983519.0914
  21278795.433   -79431007.94849 -61442557.67349  21278794.6074   21278798.5574
  22141354.618   -35191631.77949 -25149833.92249  22141353.6604   22141358.4674
  24245877.109   -46401541.76049 -34240664.32749  24245875.9694   24245880.8784
  21613058.869   -52617712.48649 -40983958.27849  21613057.8614   21613061.8114
  23396085.314   -31073830.52849 -24191211.91849  23396084.6284   23396089.3134
  20425380.390   -73029474.35949 -56838501.50249  20425379.4344   20425383.9224
 96 12 10  0 13 59.9990000  0  7 27 18  2  3 31 10 19
  20957155.523   -53381195.12949 -40733754.23749  20957155.0434   20957159.0194
  21277208.072   -79439349.24849 -61449057.39549  21277207.1464   21277211.1754
  22113433.635   -35338357.43149 -25264165.57349  22113432.6694   22113437.8264
  24243301.743   -46415075.29949 -34251209.92549  24243300.8724   24243305.5484
  21600071.012   -52685964.13349 -41037141.36349  21600070.0734   21600073.9714
  23381127.723   -31152433.81649 -24252461.24049  23381127.7424   23381131.5254
  20410072.715   -73109916.15449 -56901183.42249  20410071.9114   20410076.4024
 96 12 10  0 14 29.9990000  0  7 27 18  2  3 31 10 19
  20930810.923   -53519637.21049 -40841631.18149  20930810.1824   20930813.8974
  21275680.911   -79447374.10449 -61455310.54349  21275679.9434   21275684.1234
  22085555.974   -35484855.61749 -25378319.98849  22085554.8494   22085559.7394
  24240787.917   -46428285.76449 -34261503.78549  24240787.3824   24240791.5684
  21587188.900   -52753659.97449 -41089891.36949  21587187.9014   21587191.6204
  23366252.693   -31230602.93349 -24313372.24549  23366251.9804   23366256.0654
  20394791.857   -73190217.20149 -56963755.66849  20394791.0704   20394795.7394
 96 12 10  0 14 59.9990000  0  7 27 18  2  3 31 10 19
  20904509.586   -53657851.73649 -40949330.79249  20904508.6404   20904512.5704
  21274242.374   -79454932.98149 -61461200.57449  21274241.5094   21274245.6014
  22057748.059   -35630987.08349 -25492188.63749  22057746.7904   22057751.4784
  24238357.807   -46441055.56049 -34271454.27849  24238357.7144   24238361.4914
  21574435.983   -52820676.82549 -41142112.28149  21574434.6104   21574438.5334
  23351485.986   -31308201.87649 -24373838.97149  23351485.3134   23351489.0494
  20379566.433   -73270227.44349 -57026101.30749  20379566.0504   20379570.0434
 96 12 10  0 15 29.9990000  0  7 27 18  2  3 31 10 19
  20878248.774   -53795853.03549 -41056864.26349  20878247.9604   20878251.8704
  21272890.636   -79462036.42849 -61466735.74449  21272890.0454   21272894.3954
  22030005.168   -35776776.42149 -25605790.70849  22030004.2654   22030009.8634
  24236005.357   -46453417.41649 -34281086.90049  24236004.7634   24236009.5764
  21561804.424   -52887055.45849 -41193835.89949  21561803.3944   21561807.3474
  23336823.222   -31385254.77549 -24433880.20549  23336822.1944   23336825.9664
  20364393.617   -73349961.54049 -57088231.77449  20364393.2844   20364396.9404
 96 12 10  0 15 59.9990000  0  7 27 18  2  3 31 10 19
  20852009.663   -53933740.27949 -41164308.86249  20852008.7454   20852012.6784
  21271606.178   -79468786.45649 -61471995.51349  21271605.7344   21271609.9024
  22002308.590   -35922322.59749 -25719203.29449  22002307.4304   22002313.1834
  24233710.271   -46465478.50749 -34290485.15949  24233709.7024   24233714.2964
  21549276.198   -52952891.77049 -41245136.92149  21549274.8574   21549279.5364
  23322245.134   -31461863.27849 -24493575.14249  23322243.0474   23322249.7494
  20349256.091   -73429510.11049 -57150217.67549  20349255.5934   20349259.6094
 96 12 10  0 16 29.9990000  0  7 27 18  2  3 31 10 19
  20825791.248   -54071518.76649 -41271668.70849  20825790.2754   20825794.5134
  21270387.377   -79475191.31549 -61476986.32649  21270386.7784   21270390.8584
  21974659.001   -36067622.07249 -25832423.64849  21974658.0514   21974663.5324
  24231473.554   -46477233.07649 -34299644.55649  24231473.8204   24231477.6114
  21536850.563   -53018188.94649 -41296017.82549  21536849.7494   21536853.5624
  23307750.690   -31538030.90549 -24552926.53849  23307749.1614   23307755.4824
  20334156.216   -73508860.44949 -57212049.09949  20334155.4374   20334159.8324
 96 12 10  0 16 59.9990000  0  7 27 18  2  3 31 10 19
  20799602.277   -54209142.66749 -41378908.09749  20799601.2764   20799605.4604
  21269243.358   -79481203.01449 -61481670.78249  21269242.5904   21269247.3664
  21947065.812   -36212625.37849 -25945413.22149  21947064.7934   21947070.0434
  24229309.402   -46488605.81249 -34308506.40349  24229308.9884   24229313.6864
  21524538.504   -53082888.70249 -41346433.22249  21524537.1534   21524541.2164
  23293352.876   -31613691.56549 -24611882.88049  23293351.6284   23293358.0064
  20319108.152   -73587938.64649 -57273668.46149  20319107.1454   20319111.8674
 96 12 10  0 17 29.9990000  0  7 27 18  2  3 31 10 19
  20773438.863   -54346632.16049 -41486042.75649  20773438.0584   20773442.1054
  21268168.459   -79486851.80149 -61486072.44449  21268168.0744   21268172.2964
  21919527.146   -36357342.17149 -26058179.53549  21919526.3684   21919531.4884
  24227215.977   -46499606.39449 -34317078.29349  24227214.7284   24227219.2734
  21512343.492   -53146973.83249 -41396369.69349  21512342.3754   21512346.5394
  23279050.449   -31688851.24049 -24670448.87449  23279048.8904   23279054.8494
  20304109.100   -73666758.75049 -57335086.71549  20304108.4384   20304112.6744
 96 12 10  0 17 59.9980000  0  7 27 18  2  3 31 10 19
  20747304.696   -54483967.72249 -41593057.47849  20747303.6214   20747307.9364
  21267162.155   -79492140.36849 -61490193.42149  21267161.7004   21267166.1884
  21892045.581   -36501758.98649 -26170712.09349  21892044.7534   21892050.0464
  24225194.699   -46510227.82649 -34325354.75249  24225193.6774   24225198.7074
  21500271.858   -53210410.61649 -41445800.95049  21500270.9024   21500274.4024
  23264846.761   -31763492.14449 -24728610.63049  23264846.1324   23264851.2744
  20289164.356   -73745293.89649 -57396282.92449  20289163.6944   20289167.7874
 96 12 10  0 18 29.9980000  0  7 27 18  2  3 31 10 19
  20721193.000   -54621185.34249 -41699980.28749  20721192.1174   20721196.7184
  21266215.187   -79497116.84149 -61494071.19649  21266214.2064   21266218.7774
  21864610.757   -36645929.76849 -26283052.94449  21864609.8464   21864614.7224
  24223238.764   -46520506.09849 -34333363.80349  24223239.0914   24223243.1274
  21488317.164   -53273232.71049 -41494753.22349  21488316.3484   21488319.9464
  23250731.880   -31837666.56549 -24786408.89049  23250731.0344   23250736.1704
  20274265.719   -73823586.68449 -57457290.28949  20274265.0884   20274268.9344
 96 12 10  0 18 59.9980000  0  7 27 18  2  3 31 10 19
  20695110.733   -54758248.17549 -41806782.49049  20695109.8444   20695114.2714
  21265331.599   -79501759.80849 -61497689.10649  21265330.3284   21265335.4174
  21837225.447   -36789840.09549 -26395190.84349  21837224.0144   21837229.3174
  24221350.907   -46530426.92049 -34341094.31749  24221349.8884   24221355.3134
  21476484.004   -53335416.02449 -41543207.75949  21476482.9104   21476487.2744
  23236710.075   -31911352.05449 -24843826.15949  23236708.9614   23236714.4894
  20259415.807   -73901623.50549 -57518098.19849  20259415.0194   20259419.1504
 96 12 10  0 19 29.9980000  0  7 27 18  2  3 31 10 19
  20669065.161   -54895118.55249 -41913434.72849  20669064.5344   20669068.7844
  21264513.827   -79506056.59649 -61501037.27349  21264513.0044   21264517.8754
  21809890.117   -36933487.76449 -26507124.07449  21809889.1784   21809893.7694
  24219531.422   -46539988.60049 -34348544.97149  24219531.4374   24219534.7324
  21464770.994   -53396968.55549 -41591170.76449  21464770.5894   21464773.9734
  23222781.254   -31984548.74549 -24900862.55149  23222780.2144   23222785.5244
  20244613.075   -73979412.41449 -57578712.93549  20244612.6164   20244616.6694
 96 12 10  0 19 59.9980000  0  7 27 18  2  3 31 10 19
  20643058.559   -55031784.44749 -42019927.62849  20643058.1984   20643062.2754
  21263767.352   -79509979.03449 -61504093.73149  21263766.7914   21263771.4144
  21782603.828   -37076877.88449 -26618856.62449  21782603.0284   21782607.7874
  24217780.591   -46549189.74249 -34355714.68349  24217780.0504   24217784.6034
  21453174.686   -53457907.87749 -41638655.94749  21453173.8074   21453177.5434
  23208945.710   -32057255.71049 -24957517.34249  23208943.9524   23208949.2254
  20229855.929   -74056962.02949 -57639141.20449  20229855.2434   20229859.4814
 96 12 10  0 20 29.9980000  0  7 27 18  2  3 31 10 19
  20617087.409   -55168264.02549 -42126275.34449  20617086.6084   20617090.9284
  21263091.528   -79513530.31949 -61506860.98049  21263090.7894   21263095.4954
  21755365.647   -37220015.72749 -26730392.58649  21755364.7244   21755369.3374
  24216094.809   -46558048.73749 -34362617.80649  24216094.2274   24216098.5844
  21441691.160   -53518254.27749 -41685679.10249  21441689.9874   21441694.3554
  23195199.959   -32129490.73949 -25013804.39449  23195198.2584   23195203.4674
  20215138.170   -74134304.67049 -57699408.19349  20215137.5614   20215141.9224
 96 12 10  0 20 59.9980000  0  6 27 18  2 31 10 19
  20591151.348   -55304558.61249 -42232478.91749  20591150.3334   20591155.0884
  21262486.925   -79516707.33749 -61509336.58349  21262486.0474   21262490.7564
  21728175.537   -37362900.80549 -26841731.58049  21728174.7184   21728179.2334
  21430317.043   -53578025.34949 -41732253.95849  21430316.3114   21430320.2964
  23181545.490   -32201245.18149 -25069716.95949  23181543.7914   23181549.5834
  20200458.544   -74211446.91249 -57759519.03049  20200457.6244   20200462.3064
 96 12 10  0 21 29.9980000  0  6 27 18  2 31 10 19
  20565253.274   -55440653.35849 -42338526.76749  20565252.4324   20565256.7954
  21261956.906   -79519492.74349 -61511507.03949  21261956.3444   21261961.1364
  21701036.651   -37505516.55249 -26952860.71249  21701035.8264   21701040.4014
  21419056.637   -53637199.24149 -41778363.47349  21419055.8664   21419060.1224
  23167987.280   -32272493.45549 -25125235.10549  23167984.1784   23167991.2574
  20185823.650   -74288353.69249 -57819446.38249  20185823.0164   20185827.6464
 96 12 10  0 21 59.9980000  0  6 27 18  2 31 10 19
  20539377.179   -55576633.02349 -42444484.93749  20539376.4164   20539380.6974
  21261490.339   -79521944.61949 -61513417.59649  21261489.3874   21261494.0044
  21673941.590   -37647902.25349 -27063810.58849  21673941.1234   21673946.1294
  21407901.966   -53695817.49749 -41824040.02049  21407900.7694   21407905.3074
  23154516.806   -32343280.87849 -25180394.15649  23154516.0024   23154519.5224
  20171226.569   -74365062.05949 -57879219.12849  20171225.9714   20171230.3904
 96 12 10  0 22 29.9980000  0  6 27 18  2 31 10 19
  20513537.150   -55712423.47949 -42550295.67849  20513536.5844   20513540.7794
  21261099.366   -79523999.13349 -61515018.52849  21261098.8184   21261102.6804
  21646908.330   -37789963.32649 -27174507.51649  21646907.3684   21646911.8164
  21396869.140   -53753795.40449 -41869217.60549  21396868.1664   21396872.3624
  23141148.303   -32413533.26849 -25235136.29949  23141146.2484   23141151.9494
  20156685.077   -74441478.05449 -57938764.06549  20156684.4484   20156688.5024
 96 12 10  0 22 59.9980000  0  6 27 18  2 31 10 19
  20487719.134   -55848098.24949 -42656016.26849  20487718.6384   20487722.3774
  21260772.201   -79525718.20849 -61516358.06849  21260771.3844   21260775.7234
  21619924.285   -37931765.65249 -27285002.81149  21619923.0494   21619928.3394
  21385944.660   -53811204.43949 -41913951.89549  21385943.8494   21385947.9214
  23127866.793   -32483328.85449 -25289522.48449  23127865.8024   23127870.7914
  20142190.009   -74517650.30449 -57998119.05849  20142189.1834   20142193.4414
 96 12 10  0 23 29.9980000  0  6 27 18  2 31 10 19
  20461927.093   -55983636.65549 -42761630.60849  20461926.5334   20461930.5564
  21260513.575   -79527077.72349 -61517417.45049  21260513.0834   21260517.4924
  21592996.239   -38073273.05849 -27395268.30649  21592994.9714   21592999.8974
  21375135.936   -53868004.49449 -41958211.67449  21375135.1324   21375139.1074
  23114676.225   -32552646.59149 -25343536.34249  23114676.0134   23114678.9234
  20127747.414   -74593546.53149 -58057258.97949  20127746.6814   20127750.7734
 96 12 10  0 23 59.9980000  0  6 27 18  2 31 10 19
  20436152.572   -56119082.79649 -42867173.05049  20436151.8164   20436155.8554
  21260313.190   -79528131.34649 -61518238.46049  21260312.6424   21260316.7984
  21566116.515   -38214526.36649 -27505335.80849  21566115.2194   21566120.7314
  21364432.796   -53924249.62149 -42002039.04249  21364431.1024   21364436.4504
  23101565.446   -32621544.24949 -25397222.83749  23101564.4104   23101568.8564
  20113344.630   -74669233.22349 -58116235.61349  20113343.6924   20113348.4624
 96 12 10  0 24 29.9980000  0  6 27 18  2 31 10 19
  20410425.255   -56254280.84449 -42972522.16649  20410424.5274   20410428.6114
  21260194.200   -79528757.17249 -61518726.12749  21260194.0744   21260198.0334
  21539309.211   -38355399.16849 -27615106.81549  21539307.8974   21539312.8174
  21353860.217   -53979808.81149 -42045331.91749  21353859.0714   21353863.1034
  23088558.028   -32689898.68549 -25450486.04749  23088557.2244   23088561.5574
  20099005.248   -74744586.72549 -58174952.62349  20099004.3494   20099009.1944
 96 12 10  0 24 59.9980000  0  6 27 18  2 31 10 19
  20384745.361   -56389229.68949 -43077677.10549  20384744.8154   20384748.8564
  21260155.134   -79528962.76349 -61518886.33949  21260154.8014   21260158.6814
  21512570.824   -38495910.01649 -27724595.76749  21512569.8884   21512574.6744
  21343416.650   -54034690.22249 -42088096.65649  21343416.3404   21343420.0334
  23075651.959   -32757720.86849 -25503334.51449  23075650.8294   23075656.7824
  20084726.657   -74819620.95849 -58233420.86149  20084726.1034   20084730.3284
 96 12 10  0 25 29.9980000  0  6 27 18  2 31 10 19
  20359090.872   -56524045.28949 -43182728.21449  20359089.8654   20359094.1414
  21260168.167   -79528894.67649 -61518833.29849  21260167.4224   21260171.4634
  21485873.665   -38636204.33949 -27833916.01049  21485872.9504   21485877.4974
  21333079.042   -54089015.31049 -42130427.88249  21333078.4474   21333082.0714
  23062825.947   -32825122.14649 -25555854.98349  23062824.3894   23062830.9084
  20070483.026   -74894471.87649 -58291746.25549  20070482.4244   20070486.5734
 96 12 10  0 25 59.9980000  0  6 27 18  2 31 10 19
  20333470.169   -56658683.03949 -43287640.74049  20333469.5124   20333473.4134
  21260241.152   -79528511.11549 -61518534.42849  21260240.6624   21260244.7904
  21459224.247   -38776247.92549 -27943040.86349  21459223.1994   21459227.8904
  21322854.178   -54142747.53649 -42172297.15049  21322853.0964   21322857.4834
  23050087.141   -32892065.05849 -25608018.29549  23050085.4284   23050091.0764
  20056282.197   -74969097.70649 -58349896.25649  20056281.5554   20056285.9354
 96 12 10  0 26 29.9970000  0  6 27 18  2 31 10 19
  20307874.237   -56793190.48649 -43392451.73749  20307873.4124   20307877.6994
  21260363.541   -79527867.78849 -61518033.13449  21260362.4974   21260367.0954
  21432612.183   -38916095.47349 -28052012.95949  21432611.2224   21432616.1114
  21312732.317   -54195937.54349 -42213743.90649  21312731.4434   21312735.6874
  23037422.054   -32958618.85549 -25659878.40249  23037420.9954   23037426.6504
  20042115.899   -75043542.34149 -58407905.06149  20042115.2224   20042119.5744
 96 12 10  0 26 59.9970000  0  6 27 18  2 31 10 19
  20282328.301   -56927435.12549 -43497057.94849  20282327.7674   20282331.7874
  21260563.078   -79526819.04449 -61517215.94349  21260562.3694   21260567.2224
  21406060.648   -39055624.36649 -28160736.75749  21406059.3534   21406065.4214
  21302740.638   -54248444.10649 -42254658.11749  21302739.6004   21302743.9674
  23024857.745   -33024644.32849 -25711326.85449  23024856.6334   23024861.4304
  20028010.818   -75117665.24249 -58465663.17549  20028010.4074   20028014.6714
 96 12 10  0 27 29.9970000  0  6 27 18  2 31 10 19
  20256808.175   -57061544.25449 -43601558.55749  20256807.4844   20256811.5384
  21260812.258   -79525509.32649 -61516195.40049  21260811.5564   21260816.7624
  21379545.465   -39194962.44349 -28269311.85449  21379544.1504   21379549.7004
  21292851.780   -54300410.41649 -42295151.34349  21292850.6764   21292854.5144
  23012369.646   -33090269.42949 -25762463.30449  23012368.8394   23012373.5514
  20013941.242   -75191601.50849 -58523275.84849  20013940.6074   20013945.2894
 96 12 10  0 27 59.9970000  0  6 27 18  2 31 10 19
  20231328.465   -57195441.07549 -43705893.73749  20231327.7034   20231331.9234
  21261127.590   -79523852.18949 -61514904.14049  21261127.3884   21261131.7264
  21353085.202   -39334012.19349 -28377662.29349  21353084.7374   21353089.4814
  21283077.540   -54351774.01749 -42335174.93949  21283076.7834   21283081.3814
  22999968.184   -33155439.63349 -25813245.30549  22999966.3654   22999972.8314
  19999921.690   -75265274.89749 -58580683.69249  19999920.8134   19999925.3694
 96 12 10  0 28 29.9970000  0  6 27 18  2 31 10 19
  20205881.767   -57329164.53149 -43810093.83349  20205881.1104   20205885.0504
  21261502.543   -79521882.08049 -61513369.01249  21261501.6194   21261506.8874
  21326672.174   -39472813.89949 -28485819.45549  21326671.2834   21326676.0274
  21273409.614   -54402579.34449 -42374763.50349  21273409.0454   21273412.6294
  22987649.226   -33220176.28449 -25863689.46249  22987647.2034   22987654.3194
  19985943.817   -75338728.77249 -58637920.48049  19985943.2894   19985947.7604
 96 12 10  0 28 59.9970000  0  6 27 18  2 31 10 19
  20180464.375   -57462733.80449 -43914173.77449  20180463.5964   20180467.6794
  21261936.454   -79519601.97149 -61511592.31149  21261935.7184   21261940.8354
  21300305.169   -39611373.24949 -28593787.75449  21300303.6074   21300309.2024
  21263843.420   -54452850.18649 -42413935.58649  21263842.3984   21263846.3734
  22975416.706   -33284458.80149 -25913779.73349  22975416.6304   22975420.8764
  19972005.501   -75411975.16449 -58694995.58649  19972004.5294   19972009.2774
 96 12 10  0 29 29.9970000  0  6 27 18  2 31 10 19
  20155086.706   -57596094.34749 -44018091.07749  20155085.9544   20155089.7764
  21262441.527   -79516947.82449 -61509524.16649  21262440.8094   21262445.1534
  21273999.585   -39749609.18149 -28701504.04549  21273998.5274   21274004.0224
  21254387.818   -54502539.65749 -42452654.63949  21254386.6444   21254390.7654
  22963283.163   -33348221.15049 -25963464.69649  22963282.3504   22963287.1864
  19958119.773   -75484945.05249 -58751855.24049  19958118.8324   19958123.3824
 96 12 10  0 29 59.9970000  0  6 27 18  2 31 10 19
  20129750.310   -57729237.91749 -44121839.31149  20129749.6244   20129753.4534
  21263022.633   -79513893.71449 -61507144.35949  21263021.4774   21263026.7284
  21247759.525   -39887501.15949 -28808952.33449  21247758.2934   21247763.9554
  21245048.105   -54551619.98949 -42490899.05449  21245047.0604   21245051.4184
  22951252.439   -33411443.30149 -26012728.74149  22951251.3794   22951255.8114
  19944292.477   -75557608.01349 -58808475.72949  19944291.7144   19944295.9604
 96 12 10  0 30 29.9970000  0  6 27 18  2 31 10 19
  20104432.578   -57862283.63149 -44225511.29749  20104431.9414   20104435.8484
  21263652.942   -79510580.57349 -61504562.71349  21263651.5504   21263656.7254
  21221559.354   -40025183.92149 -28916237.58949  21221558.2914   21221563.4404
  21235800.828   -54600214.82949 -42528765.15049  21235800.5014   21235803.9184
  22939301.792   -33474244.56949 -26061664.80249  22939300.2434   22939305.6084
  19930499.884   -75630088.67649 -58864954.16449  19930499.2824   19930503.5274
 96 12 10  0 30 59.9970000  0  6 27 18  2 31 10 19
  20079152.902   -57995129.31049 -44329027.40049  20079152.0024   20079156.0964
  21264345.772   -79506939.19849 -61501725.30249  21264345.3604   21264350.0964
  21195416.454   -40162566.53149 -29023288.95949  21195415.5794   21195419.9724
  21226662.781   -54648235.87849 -42566184.13449  21226662.4074   21226666.0914
  22927442.866   -33536563.64249 -26110225.13449  22927442.1924   22927447.5514
  19916762.095   -75702281.09049 -58921207.99149  19916761.3534   19916765.6544
 96 12 10  0 31 29.9970000  0  7 27  7 18  2 31 10 19
  20053928.249   -58127685.58049 -44432318.00249  20053927.6154   20053931.1904
  23689265.846    -1374443.59749  -1022158.70349  23689264.4734   23689269.6064
  21265112.512   -79502909.85149 -61498585.58049  21265112.1094   21265116.7284
  21169343.789   -40299579.44649 -29130052.25349  21169342.8394   21169347.2944
  21217651.754   -54695589.01949 -42603082.68249  21217650.9464   21217655.3784
  22915685.015   -33598351.58949 -26158371.59949  22915683.7624   22915690.0734
  19903094.118   -75774106.72749 -58977176.02349  19903093.2154   19903097.6934
 96 12 10  0 31 59.9970000  0  7 27  7 18  2 31 10 19
  20028718.793   -58260162.29749 -44535546.60549  20028718.1574   20028721.9184
  23651847.847    -1571076.54949  -1175379.05549  23651848.0064   23651851.3254
  21265911.047   -79498713.83149 -61495315.97649  21265910.6364   21265915.2484
  21143298.764   -40436447.13849 -29236702.39349  21143298.3094   21143302.3014
  21208730.244   -54742471.35449 -42639614.36549  21208728.9424   21208734.0764
  22903985.980   -33659831.49149 -26206278.02849  22903984.7214   22903989.5824
  19889452.131   -75845795.88949 -59033037.70549  19889451.5794   19889455.9144
 96 12 10  0 32 29.9970000  0  7 27  7 18  2 31 10 19
  20003551.923   -58392415.39649 -44638600.96249  20003551.2404   20003555.0854
  23614429.901    -1767708.79249  -1328598.83649  23614427.8224   23614434.0874
  21266768.925   -79494206.20149 -61491803.55449  21266768.7324   21266773.1404
  21117309.488   -40573021.59049 -29343124.02349  21117307.8624   21117312.5924
  21199925.868   -54788738.53049 -42675666.71149  21199925.1774   21199929.3934
  22892371.795   -33720864.49249 -26253836.23449  22892370.0724   22892374.7614
  19875863.739   -75917203.90149 -59088680.30949  19875863.0364   19875867.5964
 96 12 10  0 32 59.9970000  0  7 27  7 18  2 31 10 19
  19978412.318   -58524525.13249 -44741543.60649  19978411.6034   19978415.1444
  23577001.363    -1964395.66149  -1481861.16649  23577000.7124   23577006.0234
  21267675.206   -79489444.00049 -61488092.76749  21267674.7354   21267678.7624
  21091364.413   -40709363.55549 -29449364.50549  21091363.1334   21091367.7394
  21191227.561   -54834448.66649 -42711284.98949  21191226.5494   21191230.7864
  22880831.021   -33781511.41649 -26301093.57849  22880828.9324   22880835.5804
  19862315.877   -75988398.70849 -59144156.78149  19862315.3554   19862319.5784
 96 12 10  0 33 29.9970000  0  7 27  7 18  2 31 10 19
  19953308.868   -58656444.56749 -44844337.96449  19953308.0924   19953311.9884
  23539574.725    -2161073.47049  -1635116.47649  23539573.7524   23539579.7174
  21268642.843   -79484359.53049 -61484130.86349  21268642.4654   21268646.7364
  21065475.465   -40845410.61549 -29555375.19049  21065474.5854   21065479.0494
  21182646.875   -54879540.74749 -42746421.67049  21182646.0994   21182650.1384
  22869377.217   -33841700.82949 -26347994.42749  22869375.3914   22869381.8134
  19848817.262   -76059334.45649 -59199431.38549  19848816.5404   19848820.8774
 96 12 10  0 33 59.9970000  0  7 27  7 18  2 31 10 19
  19928233.203   -58788217.94849 -44947018.52049  19928232.0424   19928236.0814
  23502141.867    -2357783.34149  -1788396.76649  23502140.4674   23502147.1034
  21269666.369   -79478981.25049 -61479940.00649  21269665.8674   21269669.6404
  21039635.562   -40981200.50949 -29661185.48549  21039634.7544   21039639.1894
  21174170.002   -54924087.17949 -42781133.16849  21174169.4974   21174172.8514
  22858003.464   -33901470.79749 -26394568.44049  22858003.0044   22858008.6884
  19835361.088   -76130046.72149 -59254531.84549  19835360.1764   19835364.7784
 96 12 10  0 34 29.9970000  0  7 27  7 18  2 31 10 19
  19903206.735   -58919732.96249 -45049497.74849  19903205.8174   19903209.5884
  23464720.552    -2554432.60749  -1941629.84449  23464720.0124   23464724.4324
  21270762.768   -79473220.03849 -61475450.76849  21270762.7174   21270766.5994
  21013861.253   -41116645.16449 -29766726.75849  21013860.2774   21013865.0034
  21165809.392   -54968023.10849 -42815368.95549  21165809.3654   21165812.4344
  22846726.369   -33960732.94249 -26440746.75149  22846724.3024   22846731.0794
  19821967.688   -76200429.69349 -59309375.73049  19821967.0984   19821970.9014
 96 12 10  0 34 59.9970000  0  7 27  7 18  2 31 10 19
  19878213.159   -59051074.97049 -45151842.16149  19878212.3604   19878215.9594
  23427288.811    -2751138.11249  -2094906.78249  23427287.9264   23427293.9924
  21271907.589   -79467204.35749 -61470763.23949  21271906.3364   21271910.6264
  20988129.871   -41251864.54649 -29872092.49149  20988128.7614   20988133.2384
  21157542.224   -55011467.71649 -42849221.89149  21157541.0894   21157544.9354
  22835523.501   -34019604.46049 -26486620.67649  22835522.6474   22835527.9104
  19808614.370   -76270601.84749 -59364055.33249  19808613.7424   19808617.7154
 96 12 10  0 35 29.9960000  0  7 27  7 18  2 31 10 19
  19853268.098   -59182161.93949 -45253987.84949  19853267.0494   19853270.9184
  23389858.914    -2947833.43949  -2248175.77149  23389857.6394   23389863.2104
  21273111.892   -79460875.69949 -61465831.82849  21273111.2324   21273115.5894
  20962453.973   -41386792.71949 -29977231.31049  20962453.2164   20962457.5284
  21149379.775   -55054361.11949 -42882645.33049  21149378.4904   21149382.5484
  22824405.786   -34078028.03749 -26532145.55149  22824404.4844   22824409.5354
  19795316.862   -76340480.72949 -59418506.41349  19795316.2684   19795320.2504
 96 12 10  0 35 59.9960000  0  7 27  7 18  2 31 10 19
  19828360.937   -59313049.53849 -45355978.17549  19828359.9624   19828363.8754
  23352419.694    -3144577.74949  -2401482.97449  23352418.0574   23352425.2494
  21274365.713   -79454286.58349 -61460697.46249  21274365.1734   21274369.5474
  20936822.193   -41521488.52949 -30082189.07649  20936820.6914   20936825.7854
  21141312.708   -55096753.59349 -42915678.41949  21141311.5554   21141315.8354
  22813360.785   -34136069.81049 -26577372.91249  22813359.1704   22813363.9384
  19782066.605   -76410111.59749 -59472764.22949  19782065.9214   19782070.3244
 96 12 10  0 36 29.9960000  0  7 27  7 18  2 31 10 19
  19803500.717   -59443690.63849 -45457776.43549  19803499.9124   19803503.7894
  23314984.077    -3341302.42349  -2554774.86249  23314982.7634   23314988.4104
  21275674.707   -79447407.84849 -61455337.42549  21275673.7684   21275678.8644
  20911245.155   -41655896.19749 -30186922.31349  20911244.0774   20911249.3034
  21133356.555   -55138563.11249 -42948257.26649  21133355.4224   21133359.6204
  22802399.207   -34193673.17049 -26622258.66349  22802397.8584   22802402.6224
  19768873.488   -76479441.85349 -59526787.80849  19768872.8344   19768877.2514
 96 12 10  0 36 59.9960000  0  7 27  7 18  2 31 10 19
  19778680.916   -59574119.27449 -45559409.13849  19778680.0354   19778684.2234
  23277553.798    -3537999.09849  -2708044.96149  23277553.4354   23277558.9604
  21277038.756   -79440239.31649 -61449751.57349  21277038.1234   21277042.3104
  20885722.780   -41790016.91849 -30291431.97149  20885721.8764   20885727.1604
  21125514.268   -55179773.98049 -42980369.63849  21125513.7214   21125518.0574
  22791519.279   -34250847.80649 -26666810.32449  22791518.3004   22791523.8754
  19755735.208   -76548483.79449 -59580586.72949  19755734.5204   19755739.0404
 96 12 10  0 37 29.9960000  0  7 27  7 18  2 31 10 19
  19753893.190   -59704379.32949 -45660910.46449  19753892.2354   19753896.4154
  23240126.391    -3734680.91349  -2861303.48149  23240124.9464   23240130.1624
  21278458.050   -79432780.65149 -61443939.64249  21278457.4904   21278462.6314
  20860250.590   -41923874.28149 -30395736.40649  20860249.5304   20860255.2084
  21117782.701   -55220403.78249 -43012029.22049  21117782.1644   21117786.6774
  22780717.295   -34307612.02349 -26711042.19749  22780714.4704   22780721.7104
  19742647.851   -76617258.18249 -59634177.16549  19742647.3204   19742651.5534
 96 12 10  0 37 59.9960000  0  7 27  7 18  2 31 10 19
  19729132.178   -59834498.77449 -45762302.23049  19729131.0874   19729135.4904
  23202698.451    -3931365.07749  -3014563.83649  23202696.8774   23202704.6444
  21279928.453   -79425053.38549 -61437918.41149  21279927.2234   21279933.1464
  20834823.256   -42057496.15249 -30499857.33949  20834822.1834   20834827.6174
  21110156.283   -55260481.40049 -43043258.52049  21110155.5334   21110159.6154
  22769989.572   -34363986.43649 -26754970.31149  22769988.2254   22769995.0414
  19729601.053   -76685819.65549 -59687601.69349  19729600.3224   19729604.5584
 96 12 10  0 38 29.9960000  0  7 27  7 18  2 31 10 19
  19704420.901   -59964357.10249 -45863490.53549  19704420.0644   19704424.0314
  23165292.020    -4127936.58049  -3167736.41749  23165290.5434   23165297.5054
  21281469.100   -79416957.33549 -61431609.82549  21281468.8464   21281472.8344
  20809459.959   -42190781.60949 -30603716.13649  20809458.7514   20809463.2114
  21102655.465   -55299898.62649 -43073973.23849  21102654.5164   21102658.9244
  22759359.646   -34419846.85449 -26798497.92549  22759359.6834   22759363.6084
  19716611.565   -76754079.97549 -59740791.56049  19716610.6444   19716615.1434
 96 12 10  0 38 59.9960000  0  7 27  7 18  2 31 10 19
  19679745.127   -60094029.12749 -45964533.66249  19679744.3864   19679748.9574
  23127886.777    -4324502.17249  -3320904.37049  23127885.6484   23127892.0604
  21283064.588   -79408573.43449 -61425076.93749  21283064.5514   21283068.5724
  20784141.223   -42323832.55749 -30707392.19049  20784140.4094   20784144.9444
  21095261.084   -55338756.23049 -43104251.89049  21095260.1054   21095264.0974
  22748809.372   -34475289.44349 -26841699.96449  22748808.3984   22748813.4064
  19703661.176   -76822134.68049 -59793821.20849  19703660.5404   19703664.9814
 96 12 10  0 39 29.9960000  0  7 27  7 18  2 31 10 19
  19655096.226   -60223560.01049 -46065466.81849  19655095.5114   19655099.8284
  23090468.781    -4521134.79749  -3474124.53749  23090467.5624   23090474.1484
  21284700.688   -79399976.27849 -61418377.87249  21284700.6384   21284705.3444
  20758857.243   -42456700.80049 -30810925.87049  20758856.1534   20758860.7854
  21087960.004   -55377122.96949 -43134148.04349  21087959.0204   21087962.8474
  22738327.482   -34530373.38449 -26884622.52649  22738326.9344   22738331.2514
  19690739.760   -76890036.89649 -59846732.02449  19690739.1254   19690743.5364
 96 12 10  0 39 59.9960000  0  7 27  7 18  2 31 10 19
  19630488.656   -60352874.01949 -46166230.97449  19630488.2164   19630492.0874
  23053051.289    -4717764.59249  -3627342.51049  23053049.8064   23053057.1904
  21286384.876   -79391126.24049 -61411481.74049  21286384.3634   21286388.6584
  20733621.034   -42589317.84049 -30914263.80949  20733619.6844   20733624.7394
  21080763.239   -55414941.63149 -43163617.12949  21080761.6624   21080765.9484
  22727924.335   -34585043.76149 -26927222.83449  22727923.2364   22727927.9084
  19677861.025   -76957714.92549 -59899468.15549  19677860.3714   19677864.7604
 96 12 10  0 40 29.9960000  0  7 27  7 18  2 31 10 19
  19605933.565   -60481912.22449 -46266780.22249  19605933.0554   19605936.9734
  23015644.607    -4914337.30449  -3780515.94649  23015643.5914   23015649.6004
  21288126.148   -79381976.12549 -61404351.78649  21288125.6174   21288130.0304
  20708443.350   -42721627.13149 -31017361.95549  20708441.9744   20708446.3514
  21073680.367   -55452162.29449 -43192620.24749  21073680.1454   21073683.0594
  22717606.386   -34639265.39649 -26969473.46549  22717605.3694   22717609.4724
  19665041.630   -77025081.36949 -59951961.49049  19665040.9754   19665045.0754
 96 12 10  0 40 59.9960000  0  7 27  7 18  2 31 10 19
  19581419.366   -60610735.27749 -46367161.82349  19581418.7564   19581422.7314
  22978240.172    -5110898.60649  -3933680.48149  22978238.3374   22978244.6524
  21289917.588   -79372562.10849 -61397016.20449  21289916.8774   21289921.2144
  20683317.057   -42853666.52449 -31120249.79149  20683316.0084   20683320.6214
  21066699.268   -55488848.18349 -43221206.64649  21066698.6384   21066702.6724
  22707363.461   -34693092.81449 -27011416.91849  22707362.2104   22707366.9174
  19652276.254   -77092164.05149 -60004233.71449  19652276.0224   19652280.3744
 96 12 10  0 41 29.9960000  0  7 27  7 18  2 31 10 19
  19556943.577   -60739356.31649 -46467386.00749  19556942.8004   19556946.9814
  22940844.332    -5307414.22749  -4086809.40549  22940842.4954   22940850.1684
  21291759.349   -79362883.41249 -61389474.36949  21291758.6824   21291762.5534
  20658244.667   -42985422.99449 -31222917.16049  20658243.9154   20658248.7984
  21059817.590   -55525011.95949 -43249386.21249  21059816.6324   21059820.8764
  22697195.487   -34746525.79349 -27053053.02449  22697194.2994   22697198.5704
  19639565.670   -77158958.96449 -60056281.69849  19639565.0624   19639569.5334
 96 12 10  0 41 59.9960000  0  7 27  7 18  2 31 10 19
  19532515.786   -60867725.08749 -46567413.62449  19532514.9014   19532519.2624
  22903470.508    -5503814.21149  -4239848.22349  22903468.8984   22903476.0824
  21293663.018   -79352879.53849 -61381679.15649  21293662.5444   21293667.1534
  20633233.745   -43116856.40349 -31325332.80449  20633232.4104   20633237.7054
  21053044.559   -55560604.57649 -43277120.72649  21053044.1414   21053047.8634
  22687113.019   -34799509.15249 -27094338.78049  22687111.0804   22687116.6554
  19626919.905   -77225413.11049 -60108064.14949  19626919.2474   19626923.5734
 96 12 10  0 42 29.9960000  0  7 27  7 18  2 31 10 19
  19508116.511   -60995943.87449 -46667324.36049  19508115.6634   19508119.9134
  22866099.781    -5700197.82549  -4392874.26349  22866097.7004   22866104.7664
  21295609.374   -79342651.57149 -61373709.31549  21295608.4074   21295612.8724
  20608265.733   -43248063.71949 -31427572.26749  20608264.6754   20608269.5424
  21046361.834   -55595723.13949 -43304485.83749  21046361.4674   21046364.9444
  22677101.331   -34852120.61749 -27135334.76149  22677099.9004   22677103.7054
  19614319.631   -77291628.24149 -60159660.35449  19614319.1194   19614323.2974
 96 12 10  0 42 59.9960000  0  7 27  7 18  2 31 10 19
  19483752.046   -61123979.87549 -46767092.67449  19483751.4404   19483755.5494
  22828740.488    -5896522.08149  -4545854.06049  22828740.5324   22828746.3494
  21297605.478   -79332162.11649 -61365535.73049  21297604.9654   21297609.3514
  20583349.716   -43378997.99449 -31529598.97149  20583348.9844   20583354.0344
  21039778.395   -55630319.35749 -43331443.93649  21039777.4554   21039781.3294
  22667171.000   -34904305.13349 -27175998.02049  22667169.9354   22667174.9274
  19601768.830   -77357583.10649 -60211053.75249  19601767.9784   19601772.2754
 96 12 10  0 43 29.9960000  0  7 27  7 18  2 31 10 19
  19459420.402   -61251843.43049 -46866726.60949  19459419.5044   19459423.9784
  22791386.198    -6092820.39149  -4698813.65749  22791384.8334   22791391.8384
  21299643.363   -79321453.06549 -61357191.02549  21299642.3844   21299646.9514
  20558479.275   -43509693.03449 -31631439.25549  20558478.1124   20558483.1684
  21033290.908   -55664411.20849 -43358009.01449  21033290.1864   21033294.1204
  22657315.069   -34956098.53449 -27216356.52949  22657313.7784   22657317.8194
  19589263.291   -77423299.81149 -60262261.57349  19589262.5264   19589266.7094
 96 12 10  0 43 59.9950000  0  7 27  7 18  2 31 10 19
  19435138.250   -61379447.02849 -46966157.98349  19435137.6044   19435141.8444
  22754046.447    -6289041.35549  -4851712.97349  22754044.5734   22754051.4274
  21301734.125   -79310465.85049 -61348629.57149  21301732.7474   21301737.5564
  20533667.332   -43640081.28849 -31733040.48149  20533666.4784   20533670.7064
  21026915.374   -55697914.67149 -43384115.61149  21026914.5304   21026918.1404
  22647546.265   -35007433.31249 -27256357.67049  22647543.7524   22647550.4954
  19576815.828   -77488711.73549 -60313231.90349  19576815.0234   19576818.9074
 96 12 10  0 44 29.9950000  0  7 27  7 18  2 31 10 19
  19410892.804   -61506857.97249 -47065439.23749  19410892.1594   19410896.2954
  22716704.286    -6485275.50949  -5004622.63549  22716703.4434   22716709.8524
  21303865.421   -79299265.58649 -61339902.10849  21303864.5714   21303869.2914
  20508899.353   -43770237.92149 -31834461.22849  20508898.5854   20508903.0104
  21020637.505   -55730904.44849 -43409821.92149  21020635.9174   21020640.7634
  22637849.067   -35058391.51149 -27296065.35949  22637846.9954   22637852.4624
  19564411.420   -77553897.14149 -60364025.71649  19564410.3314   19564414.7174
 96 12 10  0 44 59.9950000  0  7 27  7 18  2 31 10 19
  19386695.210   -61634017.64749 -47164524.69649  19386694.7114   19386698.5954
  22679371.442    -6681461.77949  -5157494.94249  22679370.0794   22679375.8534
  21306049.586   -79287787.47649 -61330958.13649  21306048.9494   21306052.9304
  20484183.145   -43900122.21749 -31935669.75549  20484181.8364   20484186.6404
  21014465.205   -55763340.15649 -43435096.50149  21014464.5994   21014467.8954
  22628226.846   -35108956.04349 -27335466.31049  22628225.3364   22628231.9004
  19552059.660   -77618805.45949 -60414603.62949  19552058.7014   19552063.0444
 96 12 10  0 45 29.9950000  0  7 27  7 18  2 31 10 19
  19362538.281   -61760963.38849 -47263443.44849  19362537.7044   19362541.4304
  22642040.604    -6877636.60849  -5310358.36649  22642039.5624   22642045.2924
  21308277.873   -79276077.31749 -61321833.35849  21308277.5764   21308281.5124
  20459506.361   -44029799.08649 -32036716.66349  20459505.0794   20459510.3694
  21008386.771   -55795282.35149 -43459986.52349  21008386.0374   21008389.6114
  22618668.856   -35159183.69749 -27374604.75849  22618667.1734   22618674.1574
  19539754.164   -77683470.97049 -60464992.33949  19539753.4204   19539757.4184
 96 12 10  0 45 59.9950000  0  7 27  7 18  2 31 10 19
  19338432.517   -61887640.19049 -47362152.64549  19338431.8424   19338435.4074
  22604726.808    -7073721.82549  -5463151.99049  22604725.9844   22604731.0384
  21310563.664   -79264065.47249 -61312473.50249  21310563.4944   21310567.5304
  20434882.229   -44159199.68649 -32137548.29849  20434881.2964   20434886.0094
  21002413.568   -55826672.37949 -43484446.28049  21002413.7814   21002416.2314
  22609187.327   -35209009.39649 -27413429.99749  22609186.3864   22609191.7324
  19527505.282   -77747839.11049 -60515149.33649  19527504.5304   19527508.9254
 96 12 10  0 46 29.9950000  0  7 27  7 18  2 31 10 19
  19314365.698   -62014112.27049 -47460702.30449  19314364.8934   19314368.6684
  22567419.845    -7269770.71449  -5615917.32149  22567418.1324   22567424.6834
  21312894.347   -79251817.60749 -61302929.71949  21312893.8114   21312898.8134
  20410298.996   -44288385.70149 -32238212.71749  20410298.2554   20410303.1374
  20996530.540   -55857588.98049 -43508537.13149  20996529.8454   20996533.2924
  22599767.989   -35258508.71049 -27452000.89549  22599767.5364   22599772.3124
  19515301.199   -77811971.88549 -60565122.92449  19515300.5794   19515304.8174
 96 12 10  0 46 59.9950000  0  7 27  7 18  2 31 10 19
  19290337.753   -62140379.98449 -47559092.72149  19290336.8884   19290340.9154
  22530119.260    -7465786.12249  -5768656.58149  22530117.5044   22530123.1394
  21315264.878   -79239360.59449 -61293222.98649  21315264.1204   21315268.8124
  20385756.191   -44417359.08649 -32338711.45049  20385755.1754   20385759.7654
  20990737.338   -55888032.83249 -43532259.60849  20990736.8654   20990740.4414
  22590410.342   -35307683.70349 -27490319.09049  22590409.9654   22590414.0154
  19503143.089   -77875863.08949 -60614908.28649  19503142.3754   19503147.0394
 96 12 10  0 47 29.9950000  0  7 27  7 18  2 31 10 19
  19266366.080   -62266351.84449 -47657252.60749  19266365.3034   19266369.3204
  22492840.732    -7661685.59949  -5921305.48849  22492839.4814   22492846.6494
  21317688.984   -79226622.00049 -61283296.82549  21317688.3614   21317693.1434
  20361274.131   -44546012.74849 -32438961.05449  20361272.8644   20361277.2884
  20985052.652   -55917906.17849 -43555537.53949  20985051.9314   20985055.0874
  22581133.606   -35356433.75349 -27528306.17049  22581133.0074   22581136.9424
  19491047.673   -77939425.12749 -60664437.15549  19491047.2494   19491051.2424
 96 12 10  0 47 59.9950000  0  7 27  7 18  2 31 10 19
  19242432.544   -62392123.34449 -47755256.36249  19242431.7924   19242435.8904
  22455562.758    -7857582.44749  -6073952.36749  22455561.1294   22455567.2524
  21320146.142   -79213709.79449 -61273235.37349  21320145.4304   21320150.1084
  20336837.923   -44674425.56449 -32539022.98549  20336836.7214   20336841.1674
  20979459.252   -55947299.24549 -43578441.22349  20979458.2834   20979461.7554
  22571918.106   -35404861.78249 -27566042.29749  22571916.7874   22571922.8734
  19478992.674   -78002774.65049 -60713800.41149  19478992.0844   19478996.5644
 96 12 10  0 48 29.9950000  0  7 27  7 18  2 31 10 19
  19218551.002   -62517621.82949 -47853047.38449  19218550.3844   19218554.5074
  22418297.576    -8053411.86649  -6226546.70949  22418295.8174   22418302.3304
  21322647.744   -79200563.91949 -61262991.86249  21322646.8394   21322651.4424
  20312459.542   -44802534.99249 -32638848.50549  20312458.6774   20312462.8674
  20973970.297   -55976143.56449 -43600917.31949  20973969.8034   20973973.3424
  22562777.392   -35452896.71949 -27603472.14549  22562775.4264   22562780.1784
  19466993.348   -78065831.67149 -60762935.76349  19466992.9814   19466997.2424
 96 12 10  0 48 59.9950000  0  7 27  7 18  2 31 10 19
  19194708.644   -62642914.39249 -47950677.94749  19194707.8304   19194712.1164
  22381036.212    -8249221.25049  -6379125.41049  22381033.9834   22381041.0974
  21325184.463   -79187233.10249 -61252604.23049  21325183.7724   21325188.1684
  20288129.158   -44930391.78949 -32738477.16949  20288128.0014   20288133.2844
  20968577.929   -56004480.68649 -43622998.19549  20968577.2564   20968580.7544
  22553705.573   -35500569.25749 -27640619.58949  22553704.3954   22553708.8814
  19455041.234   -78128640.76049 -60811877.91449  19455040.5864   19455044.9094
 96 12 10  0 49 29.9950000  0  7 27  7 18  2 31 10 19
  19170908.623   -62767984.16749 -48048134.90949  19170908.1464   19170911.7734
  22343788.181    -8444960.71349  -6531649.61349  22343787.3184   22343792.6324
  21327765.750   -79173668.17349 -61242034.18649  21327765.3754   21327769.9744
  20263853.431   -45057961.19449 -32837881.89649  20263852.4874   20263857.2094
  20963288.371   -56032277.82249 -43644658.29949  20963287.2084   20963291.2544
  22544709.828   -35547841.79449 -27677455.35049  22544708.2834   22544714.3584
  19443140.881   -78191177.57149 -60860607.89949  19443140.3244   19443144.4824
 96 12 10  0 49 59.9950000  0  7 27  7 18  2 31 10 19
  19147142.956   -62892873.51449 -48145451.27749  19147142.2194   19147146.1084
  22306549.198    -8640652.58149  -6684136.69049  22306548.1184   22306553.5504
  21330383.961   -79159909.29249 -61231312.98049  21330383.5834   21330388.2544
  20239622.580   -45185294.98449 -32937103.02749  20239621.3124   20239626.0974
  20958093.410   -56059577.79549 -43665930.99849  20958092.8544   20958095.9554
  22535783.369   -35594750.43949 -27714007.56249  22535781.8134   22535787.6144
  19431288.506   -78253462.17049 -60909141.35049  19431287.9094   19431291.9834
 96 12 10  0 50 29.9950000  0  7 27  7 18  2 31 10 19
  19123422.133   -63017526.97249 -48242583.83349  19123421.1714   19123425.5594
  22269333.358    -8836222.83649  -6836528.98049  22269331.9424   22269338.2454
  21333051.972   -79145888.95849 -61220388.06749  21333051.1364   21333056.5194
  20215444.511   -45312351.72249 -33036108.27149  20215443.6204   20215448.5484
  20953001.316   -56086336.85549 -43686782.20949  20953000.4004   20953004.0164
  22526937.819   -35641234.20449 -27750228.70349  22526936.3764   22526943.2454
  19419498.653   -78315418.49149 -60957419.00949  19419498.1214   19419501.9264
 96 12 10  0 50 59.9950000  0  7 27  7 18  2 31 10 19
  19099733.660   -63142010.56949 -48339584.03349  19099732.8604   19099737.1324
  22232128.742    -9031735.03649  -6988876.03349  22232127.8184   22232133.1474
  21335757.892   -79131669.29949 -61209307.82349  21335757.6924   21335762.0174
  20191307.036   -45439195.61949 -33134947.66549  20191306.6394   20191311.2134
  20947997.434   -56112632.04949 -43707271.97449  20947996.1144   20948000.5854
  22518157.586   -35687374.92249 -27786182.52549  22518156.2654   22518160.6544
  19407757.210   -78377120.00149 -61005498.11349  19407756.5704   19407760.6634
 96 12 10  0 51 29.9950000  0  7 27  7 18  2 31 10 19
  19076095.467   -63266230.15249 -48436378.50849  19076094.6744   19076098.7724
  22194947.197    -9227125.23549  -7141128.02949  22194946.0594   22194952.0084
  21338512.251   -79117195.44649 -61198029.50949  21338511.5864   21338517.0824
  20167222.184   -45565762.71949 -33233571.36549  20167221.0434   20167226.1414
  20943092.193   -56138409.11949 -43727358.00949  20943091.3304   20943095.5494
  22509450.612   -35733130.78749 -27821836.46249  22509449.9024   22509454.7004
  19396078.443   -78438492.13949 -61053320.56249  19396077.7354   19396082.1934
 96 12 10  0 51 59.9950000  0  7 27  7 18  2 31 10 19
  19052508.479   -63390180.63149 -48532963.29049  19052507.9334   19052511.7164
  22157783.661    -9422421.05049  -7293306.46849  22157782.1074   22157788.0904
  21341310.471   -79102491.11849 -61186571.60849  21341310.2984   21341314.7514
  20143186.189   -45692072.79449 -33331994.79249  20143185.0034   20143189.9944
  20938279.959   -56163697.43349 -43747063.18149  20938278.5214   20938283.0414
  22500811.737   -35778528.39449 -27857211.22549  22500810.6334   22500815.7324
  19384459.325   -78499551.08049 -61100898.95949  19384458.4394   19384462.9134
 96 12 10  0 52 29.9950000  0  7 27  7 18  2 31 10 19
  19028971.662   -63513867.76749 -48629342.87649  19028970.9584   19028974.6884
  22120636.354    -9617631.08349  -7445418.08549  22120634.2844   22120640.0794
  21344153.269   -79087552.51349 -61174931.16649  21344152.9604   21344157.3454
  20119201.167   -45818114.79549 -33430209.33249  20119200.1084   20119204.7004
  20933560.324   -56188499.29549 -43766389.31149  20933559.7584   20933563.4054
  22492237.834   -35823584.49149 -27892319.89149  22492236.8084   22492241.7344
  19372894.601   -78560324.11349 -61148254.57349  19372893.7654   19372898.3534
 96 12 10  0 52 59.9940000  0  7 27  7 18  2 31 10 19
  19005476.253   -63637337.44749 -48725553.01749  19005476.1034   19005479.3654
  22083497.588    -9812796.33549  -7597494.82249  22083496.2644   22083501.1664
  21347027.581   -79072448.27349 -61163161.63049  21347026.9814   21347031.9774
  20095261.748   -45943916.50349 -33528236.63549  20095260.5114   20095265.5884
  20928925.807   -56212854.47749 -43785367.36949  20928924.5774   20928928.6524
  22483719.813   -35868346.65249 -27927199.51749  22483718.3864   22483724.7454
  19361375.929   -78620854.97549 -61195421.48649  19361375.4694   19361379.1334
 96 12 10  0 53 29.9940000  0  7 27  7 18  2 31 10 19
  18982023.696   -63760582.04049 -48821587.76349  18982023.0094   18982026.8374
  22046367.205   -10007917.48349  -7749537.20849  22046365.8594   22046371.9314
  21349932.526   -79057183.00849 -61151266.62949  21349932.5094   21349935.8944
  20071368.624   -46069475.21849 -33626074.58749  20071367.5314   20071372.8564
  20924379.174   -56236746.90149 -43803984.83549  20924378.4044   20924382.3484
  22475259.366   -35912805.73549 -27961842.98349  22475258.1234   22475265.3784
  19349902.243   -78681149.66849 -61242404.36949  19349901.3924   19349905.5034
 96 12 10  0 53 59.9940000  0  7 27  7 18  2 31 10 19
  18958618.975   -63883574.85949 -48917426.32549  18958618.3024   18958622.0174
  22009254.939   -10202943.06649  -7901505.11849  22009253.3514   22009259.5014
  21352878.578   -79041701.73749 -61139203.31949  21352878.0604   21352882.8034
  20047531.422   -46194740.63449 -33723684.00249  20047530.2844   20047535.3924
  20919927.329   -56260141.14749 -43822214.11249  20919926.3664   20919930.3254
  22466864.909   -35956918.79949 -27996216.81649  22466863.6044   22466870.0464
  19338480.135   -78741173.31549 -61289176.05249  19338479.7494   19338483.4434
 96 12 10  0 54 29.9940000  0  7 27  7 18  2 31 10 19
  18935255.188   -64006352.25849 -49013097.02349  18935254.2764   18935258.2904
  21972158.346   -10397886.45749  -8053409.00749  21972157.1224   21972162.6224
  21355860.277   -79026033.02149 -61126993.95049  21355859.8564   21355864.0244
  20023744.833   -46319740.01249 -33821086.11049  20023743.4014   20023748.5594
  20915567.027   -56283054.41549 -43840068.60949  20915566.1254   20915570.3564
  22458531.089   -36000713.04249 -28030342.21749  22458530.2134   22458534.9484
  19327107.480   -78800937.28049 -61335745.37349  19327106.9124   19327110.5834
 96 12 10  0 54 59.9940000  0  7 27  7 18  2 31 10 19
  18911940.932   -64128868.93649 -49108564.55749  18911939.8964   18911944.1804
  21935083.313   -10592716.87749  -8205224.86149  21935082.0894   21935088.1974
  21358881.258   -79010158.13949 -61114623.92049  21358880.8344   21358884.6314
  20000008.891   -46444472.97649 -33918280.61949  20000008.1124   20000012.8994
  20911299.880   -56305478.13849 -43857541.63449  20911298.9394   20911302.9064
  22450264.600   -36044154.39149 -28064192.64449  22450263.1064   22450268.1314
  19315790.603   -78860407.86949 -61382086.09049  19315789.6274   19315793.9724
 96 12 10  0 55 29.9940000  0  7 27  7 18  2 31 10 19
  18888684.557   -64251081.84149 -49203795.38449  18888683.5564   18888687.7684
  21898037.302   -10787395.14049  -8356922.17249  21898035.7754   21898041.9834
  21361953.012   -78994016.45549 -61102045.99749  21361952.4784   21361956.6214
  19976327.915   -46568917.54749 -34015250.41749  19976327.2064   19976331.5604
  20907132.396   -56327378.24749 -43874606.64049  20907131.9144   20907135.6244
  22442069.464   -36087221.02749 -28097751.07449  22442068.4294   22442074.5144
  19304532.675   -78919568.41249 -61428185.21149  19304531.9114   19304536.4854
 96 12 10  0 55 59.9940000  0  7 27  7 18  2 31 10 19
  18865475.146   -64373048.05349 -49298833.99549  18865474.4044   18865478.3604
  21861012.487   -10981961.40849  -8508532.22549  21861010.9874   21861016.8534
  21365067.305   -78977651.25149 -61089293.90549  21365066.8424   21365070.5844
  19952690.966   -46693131.33349 -34112040.36449  19952690.2504   19952694.4194
  20903054.367   -56348807.92149 -43891305.09749  20903053.6274   20903057.8714
  22433935.559   -36129965.21849 -28131058.25849  22433934.7904   22433941.0674
  19293325.257   -78978463.46649 -61474077.47049  19293324.5594   19293328.6994
 96 12 10  0 56 29.9940000  0  7 27  7 18  2 31 10 19
  18842319.287   -64494732.77049 -49393653.24849  18842318.6144   18842322.4234
  21824014.379   -11176387.50749  -8660033.07149  21824012.2814   21824018.5434
  21368221.256   -78961077.50749 -61076379.31849  21368220.8094   21368224.3544
  19929098.613   -46817110.75249 -34208647.69149  19929097.8434   19929102.1154
  20899071.776   -56369736.87349 -43907613.36249  20899070.6744   20899075.9864
  22425867.383   -36172363.71949 -28164096.06149  22425866.6264   22425872.2784
  19282169.080   -79037089.47949 -61519760.07949  19282168.3234   19282172.6684
 96 12 10  0 56 59.9940000  0  7 27  7 18  2 31 10 19
  18819206.748   -64616189.88349 -49488295.14249  18819205.9654   18819209.6494
  21787031.718   -11370732.27049  -8811470.52649  21787030.1234   21787036.0924
  21371403.404   -78944355.29749 -61063349.03349  21371402.6564   21371405.8944
  19905540.137   -46940911.64649 -34305115.91149  19905539.1324   19905543.6834
  20895172.677   -56390227.25049 -43923579.87549  20895171.8444   20895175.6494
  22417855.367   -36214467.46249 -28196904.19249  22417853.8634   22417859.3914
  19271051.179   -79095514.02349 -61565285.69049  19271050.2804   19271054.8874
 96 12 10  0 57 29.9940000  0  7 27  7 18  2 31 10 19
  18796152.985   -64737338.17949 -49582696.41149  18796152.2854   18796156.1164
  21750082.159   -11564903.21649  -8962772.55449  21750080.4334   21750086.7664
  21374632.371   -78927386.72949 -61050126.79149  21374632.0204   21374634.4284
  19882037.694   -47064417.52349 -34401354.24449  19882036.6624   19882041.6144
  20891378.395   -56410166.17749 -43939116.70249  20891377.9104   20891381.0244
  22409917.540   -36256180.50149 -28229407.88149  22409916.5584   22409920.6564
  19259991.167   -79153634.73949 -61610574.56849  19259990.5164   19259994.9494
 96 12 10  0 57 59.9940000  0  7 27  7 18  2 31 10 19
  18773140.927   -64858267.48449 -49676927.03049  18773139.9164   18773144.2214
  21713147.443   -11758996.31549  -9114013.93349  21713146.3024   21713151.1944
  21377885.195   -78910292.16749 -61036806.36549  21377883.5394   21377888.3544
  19858573.591   -47187722.23049 -34497435.82249  19858572.4764   19858577.7224
  20887669.174   -56429658.41049 -43954305.43949  20887668.3384   20887671.6874
  22402038.250   -36297586.19449 -28261672.08249  22402036.5434   22402041.9914
  19248975.889   -79211520.52449 -61655680.37349  19248975.0624   19248979.6194
 96 12 10  0 58 29.9940000  0  7 27  7 18  2 31 10 19
  18750177.821   -64978939.28949 -49770957.00649  18750177.1924   18750180.8944
  21676234.283   -11952975.99649  -9265166.91949  21676233.1564   21676238.9344
  21381170.495   -78893026.83749 -61023352.87849  21381169.2354   21381174.1724
  19835156.918   -47310777.32649 -34593322.91249  19835155.4784   19835160.8124
  20884050.980   -56448671.91049 -43969121.16049  20884049.6634   20884053.6474
  22394225.280   -36338644.39149 -28293665.51149  22394223.6224   22394229.3954
  19238016.126   -79269114.65649 -61700558.91949  19238015.3094   19238019.8454
 96 12 10  0 58 59.9940000  0  7 27  7 18  2 31 10 19
  18727249.770   -65099426.97849 -49864843.51349  18727249.1254   18727252.6574
  21639330.409   -12146907.13649  -9416282.09949  21639329.4244   21639335.1474
  21384480.736   -78875630.11849 -61009797.00649  21384479.6634   21384484.8414
  19811778.973   -47433629.07149 -34689051.54449  19811777.8124   19811782.7404
  20880509.542   -56467282.62649 -43983622.99649  20880508.9344   20880512.2714
  22386463.816   -36379432.00949 -28325448.09849  22386463.0144   22386468.5134
  19227103.760   -79326459.56249 -61745243.26049  19227103.2234   19227107.6724
 96 12 10  0 59 29.9940000  0  7 27  7 18  2 31 10 19
  18704362.670   -65219699.49749 -49958562.35449  18704361.8604   18704365.3004
  21602442.063   -12340756.55849  -9567333.59249  21602441.9114   21602446.2224
  21387819.238   -78858085.08349 -60996125.57449  21387817.8824   21387823.3614
  19788445.215   -47556248.69649 -34784599.29349  19788444.1854   19788448.8984
  20877049.138   -56485467.41349 -43997792.96449  20877048.2204   20877051.2704
  22378754.336   -36419946.61549 -28357017.93449  22378752.9824   22378758.6394
  19216243.790   -79383529.15649 -61789713.07349  19216243.2124   19216247.1844
 96 12 10  0 59 59.9940000  0  7 27  7 18  2 31 10 19
  18681536.108   -65339653.87849 -50052033.30349  18681535.3624   18681539.2314
  21565589.279   -12534419.19849  -9718239.53749  21565587.7644   21565593.4464
  21391203.026   -78840302.29449 -60982268.87749  21391202.2994   21391207.7814
  19765173.701   -47678541.45149 -34879892.34549  19765172.8564   19765177.1084
  20873685.525   -56503142.92249 -44011566.08749  20873684.8494   20873687.9934
  22371114.013   -36460097.35549 -28388304.24049  22371113.1314   22371117.8134
  19205454.061   -79440229.87849 -61833895.45749  19205453.3514   19205457.3484
 96 12 10  1  0 29.9940000  0  7 27  7 18  2 31 10 19
  18658748.775   -65459402.30649 -50145343.76049  18658748.2574   18658751.6934
  21528750.898   -12728006.11449  -9869086.46249  21528749.7774   21528755.3264
  21394611.505   -78822390.06049 -60968311.31249  21394610.7894   21394616.4504
  19741943.559   -47800616.90449 -34975016.06449  19741942.5984   19741946.8164
  20870399.262   -56520412.25849 -44025022.70449  20870398.3144   20870401.9604
  22363520.156   -36500003.84649 -28419400.22449  22363518.3384   22363524.5584
  19194710.630   -79496687.04349 -61877888.05349  19194709.9894   19194713.7284
 96 12 10  1  0 59.9940000  0  7 27  7 18  2 31 10 19
  18636025.967   -65578811.47949 -50238389.86549  18636025.3684   18636028.7504
  21491948.680   -12921403.05549 -10019785.35849  21491947.1654   21491952.9404
  21398065.020   -78804241.52649 -60954169.61549  21398065.0584   21398069.7684
  19718776.217   -47922362.48849 -35069882.74549  19718775.2664   19718779.8004
  20867212.634   -56537158.15849 -44038071.44849  20867212.0904   20867214.6924
  22355995.192   -36539547.27149 -28450213.30649  22355994.2974   22355999.5124
  19184033.890   -79552793.79549 -61921607.60249  19184032.9404   19184037.1014
 96 12 10  1  1 29.9930000  0  7 27  7 18  2 31 10 19
  18613358.450   -65697929.90749 -50331209.42549  18613357.7614   18613361.3414
  21455171.442   -13114668.05749 -10170381.41149  21455170.6044   21455175.1474
  21401549.369   -78785931.32749 -60939901.95149  21401549.1564   21401554.3824
  19695657.513   -48043852.54049 -35164550.31249  19695656.5614   19695661.0804
  20864115.190   -56553435.43349 -44050755.03949  20864114.7544   20864117.6214
  22348531.578   -36578768.98049 -28480775.69849  22348530.6644   22348535.7374
  19173411.278   -79608616.09349 -61965105.50549  19173410.4844   19173414.8284
 96 12 10  1  1 59.9930000  0  7 27  7 18  2 31 10 19
  18590727.853   -65816854.45349 -50423877.89649  18590726.8184   18590731.0474
  21418398.378   -13307912.01649 -10320961.10149  21418397.3724   21418402.1274
  21405049.219   -78767539.70549 -60925570.82649  21405048.8134   21405054.1584
  19672568.657   -48165185.63549 -35259095.57449  19672567.6254   19672571.9884
  20861090.914   -56569328.03849 -44063138.86249  20861089.9384   20861093.0644
  22341116.593   -36617735.96349 -28511139.61849  22341114.7584   22341121.7104
  19162826.414   -79664239.88149 -62008448.70849  19162825.5924   19162829.7834
 96 12 10  1  2 29.9930000  0  7 27  7 18  2 31 10 19
  18568157.911   -65935460.27149 -50516298.01749  18568157.2124   18568160.8034
  21381653.943   -13501005.06249 -10471423.17949  21381653.3394   21381657.3734
  21408585.813   -78748955.63649 -60911089.76149  21408585.3754   21408590.9914
  19649531.117   -48286248.87849 -35353430.57849  19649529.9534   19649534.4614
  20858162.908   -56584714.89549 -44075128.60449  20858161.4454   20858165.1824
  22333771.741   -36656333.75149 -28541215.85549  22333770.1434   22333775.4294
  19152302.493   -79719543.43449 -62051542.39249  19152301.5584   19152305.9174
 96 12 10  1  2 59.9930000  0  7 27  7 18  2 31 10 19
  18545649.437   -66053743.13349 -50608466.48349  18545648.9744   18545652.4374
  21344941.093   -13693932.52349 -10621756.20849  21344940.1554   21344944.6644
  21412159.921   -78730174.27549 -60896454.95049  21412159.5904   21412165.1234
  19626544.100   -48407046.14249 -35447558.30849  19626543.0074   19626547.4374
  20855329.507   -56599604.52949 -44086730.89749  20855327.9874   20855332.6284
  22326497.503   -36694559.35549 -28571002.05949  22326496.1884   22326501.8054
  19141839.996   -79774524.00149 -62094384.40049  19141839.4004   19141843.5474
 96 12 10  1  3 29.9930000  0  7 27  7 18  2 31 10 19
  18523195.467   -66171739.69549 -50700411.85549  18523194.8794   18523198.4544
  21308256.732   -13886710.42749 -10771972.71549  21308256.3514   21308260.1044
  21415767.278   -78711218.09049 -60881683.92349  21415766.8734   21415771.2974
  19603602.449   -48527605.22749 -35541500.45149  19603601.3594   19603606.0734
  20852584.303   -56614030.89549 -44097972.21849  20852582.7274   20852587.1584
  22319286.648   -36732451.85749 -28600528.71649  22319285.0404   22319290.2924
  19131433.332   -79829211.20449 -62136997.81049  19131432.5554   19131436.8084
 96 12 10  1  3 59.9930000  0  7 27  7 18  2 31 10 19
  18500787.563   -66289494.15549 -50792168.57649  18500786.6824   18500790.5854
  21271595.207   -14079368.15549 -10922095.57749  21271594.1324   21271598.5274
  21419399.431   -78692131.01749 -60866810.90449  21419398.7694   21419404.0364
  19580700.157   -48647957.42149 -35635281.36349  19580699.0144   19580703.7874
  20849916.997   -56628047.62649 -44108894.33249  20849916.0734   20849919.9494
  22312125.887   -36770081.29749 -28629850.35649  22312124.9474   22312129.1424
  19121074.727   -79883646.00049 -62179414.53549  19121074.0964   19121078.0414
 96 12 10  1  4 29.9930000  0  7 27  7 18  2 31 10 19
  18478431.834   -66406974.09049 -50883711.38449  18478431.0084   18478434.7324
  21234966.223   -14271854.85849 -11072085.18149  21234965.5194   21234969.6964
  21423063.455   -78672876.68249 -60851807.54549  21423063.2224   21423067.7644
  19557841.700   -48768079.32049 -35728882.84349  19557840.4394   19557845.3264
  20847329.679   -56641643.96849 -44119488.88449  20847328.8054   20847333.2394
  22305017.041   -36807438.84349 -28658960.16149  22305015.9994   22305020.9404
  19110770.009   -79937797.99549 -62221610.90349  19110769.6004   19110773.2314
 96 12 10  1  4 59.9930000  0  7 27  7 18  2 31 10 19
  18456120.753   -66524219.41149 -50975071.39249  18456119.3144   18456123.7974
  21198361.563   -14464213.35749 -11221974.87449  21198359.1214   21198365.3974
  21426751.962   -78653493.69749 -60836703.95449  21426750.4294   21426758.3944
  19535020.910   -48888003.31849 -35822330.12649  19535019.5174   19535024.1204
  20844812.688   -56654870.77449 -44129795.49149  20844811.9574   20844815.1824
  22297950.973   -36844571.11549 -28687894.43349  22297948.6014   22297955.3964
  19100511.624   -79991706.52849 -62263617.57749  19100511.2414   19100515.1244
 96 12 10  1  5 29.9930000  0  7 27  7 18  2 31 10 19
  18433855.049   -66641226.51449 -51066245.73349  18433854.0584   18433858.1324
  21161783.287   -14656433.54349 -11371756.79249  21161781.4144   21161786.4934
  21430463.773   -78633987.97049 -60821504.69249  21430463.8994   21430469.1434
  19512241.781   -49007708.14849 -35915606.58949  19512240.4474   19512245.5164
  20842368.810   -56667713.67749 -44139802.93549  20842367.9294   20842372.0734
  22290927.115   -36881481.15149 -28716655.50649  22290925.9334   22290931.3454
  19090300.369   -80045367.19049 -62305431.06849  19090299.6214   19090303.7064
 96 12 10  1  5 59.9930000  0  7 27  7 18  2 31 10 19
  18411656.268   -66757881.98249 -51157146.08549  18411655.5064   18411659.3564
  21125251.767   -14848408.11449 -11521347.33949  21125250.2644   21125255.6884
  21434217.311   -78614263.49549 -60806134.99849  21434216.6114   21434221.5324
  19489524.652   -49127087.39849 -36008629.37849  19489523.6144   19489528.5624
  20840017.076   -56680072.02649 -44149432.81849  20840016.4774   20840020.9374
  22283966.572   -36918059.49149 -28745158.11949  22283964.4824   22283971.0224
  19080157.116   -80098670.22849 -62346965.91049  19080156.3234   19080160.6244
 96 12 10  1  6 29.9930000  0  7 27  7 18  2 31 10 19
  18389502.114   -66874302.86349 -51247863.65149  18389501.2934   18389505.5304
  21088744.687   -15040253.85649 -11670837.50449  21088743.6974   21088749.2024
  21437990.627   -78594434.83249 -60790684.10449  21437989.9784   21437994.8344
  19466847.298   -49246257.71349 -36101489.35649  19466846.2934   19466851.1254
  20837734.118   -56692069.29949 -44158781.33349  20837733.0784   20837736.6154
  22277049.914   -36954406.74149 -28773480.69449  22277049.2304   22277052.7034
  19070059.456   -80151733.59049 -62388313.98049  19070058.7434   19070062.9844
 96 12 10  1  6 59.9930000  0  7 27  7 18  2 31 10 19
  18367407.869   -66990408.43949 -51338335.51949  18367406.7394   18367410.8624
  21052276.438   -15231895.78249 -11820168.84649  21052274.9634   21052280.8984
  21441795.398   -78574440.62749 -60775104.20849  21441795.0044   21441800.9164
  19444228.677   -49365119.39749 -36194108.84449  19444227.5514   19444232.3114
  20835536.933   -56703615.34549 -44167778.25949  20835536.1384   20835540.1134
  22270194.535   -36990432.71149 -28801552.90049  22270193.5164   22270198.6494
  19060023.599   -80204472.18349 -62429408.99149  19060022.7714   19060026.9744
 96 12 10  1  7 29.9930000  0  7 27  7 18  2 31 10 19
  18345362.134   -67106259.35249 -51428608.94849  18345361.4714   18345365.3124
  21015836.154   -15423390.50149 -11969385.49649  21015834.9804   21015840.4694
  21445621.993   -78554331.93249 -60759435.12249  21445621.5854   21445626.2444
  19421658.646   -49483725.91849 -36286529.50249  19421657.5864   19421661.7814
  20833414.503   -56714768.66949 -44176469.15649  20833412.8284   20833416.9724
  22263389.947   -37026191.20449 -28829416.69749  22263389.2164   22263393.4284
  19050040.512   -80256933.86249 -62470288.22549  19050039.9224   19050044.0024
 96 12 10  1  7 59.9930000  0  7 27  7 18  2 31 10 19
  18323361.746   -67221872.31149 -51518696.97749  18323361.0214   18323364.7424
  20979419.640   -15614760.52349 -12118504.96849  20979418.6514   20979424.2264
  21449469.106   -78534115.55849 -60743682.12649  21449469.2414   21449474.5604
  19399132.484   -49602101.77349 -36378770.41949  19399131.6614   19399135.8854
  20831363.070   -56725548.89349 -44184869.32149  20831362.2484   20831366.3104
  22256633.958   -37061693.91049 -28857081.15749  22256631.8944   22256639.0424
  19040111.357   -80309111.71649 -62510946.29749  19040110.4364   19040114.9494
 96 12 10  1  8 29.9930000  0  7 27  7 18  2 31 10 19
  18301411.473   -67337221.88549 -51608579.75849  18301410.6974   18301414.3114
  20943031.178   -15805982.66849 -12267509.23249  20943029.4824   20943035.9294
  21453341.893   -78513764.05549 -60727823.84149  21453341.3014   21453347.5754
  19376655.191   -49720220.37149 -36470810.88449  19376654.0624   19376658.7694
  20829391.302   -56735911.01749 -44192943.68649  20829390.7234   20829394.1824
  22249930.073   -37096922.99449 -28884532.42049  22249927.9054   22249934.5314
  19030241.389   -80360978.39949 -62551361.89049  19030240.5194   19030244.9754
 96 12 10  1  8 59.9930000  0  7 27  7 18  2 31 10 19
  18279517.458   -67452275.96649 -51698232.28449  18279517.0944   18279520.3314
  20906675.486   -15997032.67849 -12416379.35249  20906674.2214   20906680.2924
  21457244.855   -78493254.30649 -60711842.24749  21457244.0294   21457248.8134
  19354232.437   -49838052.62249 -36562628.21149  19354231.2354   19354235.9584
  20827508.099   -56745807.44849 -44200655.19349  20827507.2174   20827511.1774
  22243281.567   -37131860.56949 -28911756.53449  22243281.2074   22243286.4364
  19020437.255   -80412499.26449 -62591508.02349  19020436.6764   19020440.3144
 96 12 10  1  9 29.9930000  0  8 26 27  7 18  2 31 10 19
  22721950.413    -8268736.14549  -6422474.81549  22721949.7224   22721954.1604
  18257680.066   -67567032.39549 -51787652.86949  18257679.3724   18257683.1634
  20870350.251   -16187923.17049 -12565125.17549  20870349.0884   20870354.9024
  21461176.233   -78472594.67749 -60695743.84749  21461175.9274   21461180.9304
  19331856.847   -49955637.09649 -36654252.47349  19331855.9554   19331860.3384
  20825712.003   -56755246.06149 -44208009.94449  20825711.2804   20825714.8384
  22236684.117   -37166529.85749 -28938771.60149  22236682.8054   22236689.5144
  19010693.832   -80463701.76549 -62631406.07649  19010693.0614   19010696.9234
 96 12 10  1  9 59.9930000  0  8 26 27  7 18  2 31 10 19
  22687012.576    -8452335.21849  -6565538.98649  22687011.7294   22687015.8664
  18235903.344   -67681469.36849 -51876824.54949  18235902.4174   18235906.4454
  20834056.809   -16378646.45149 -12713740.73949  20834055.0744   20834061.2604
  21465135.320   -78451789.79749 -60679532.30949  21465135.4664   21465139.4634
  19309526.206   -50072985.23049 -36745692.60149  19309525.4044   19309530.0034
  20824004.143   -56764221.20549 -44215003.59149  20824002.9434   20824007.8624
  22230137.516   -37200932.40649 -28965578.79749  22230137.1064   22230143.3284
  19001008.558   -80514598.68749 -62671066.04349  19001007.6964   19001012.1544
 96 12 10  1 10 29.9920000  0  8 26 27  7 18  2 31 10 19
  22652116.604    -8635714.08649  -6708431.54849  22652115.1674   22652120.3374
  18214188.581   -67795581.32549 -51965742.92349  18214188.2404   18214191.8124
  20797794.189   -16569207.69449 -12862229.98049  20797793.6174   20797797.7164
  21469116.816   -78430867.08149 -60663228.87449  21469117.5794   21469121.0574
  19287238.303   -50190108.68549 -36836957.60249  19287237.2144   19287242.2694
  20822379.174   -56772760.78549 -44221657.75949  20822378.1584   20822381.4154
  22223635.883   -37235098.66749 -28992201.91349  22223636.5874   22223641.8524
  18991375.356   -80565221.80149 -62710512.59349  18991375.0054   18991378.6224
 96 12 10  1 10 59.9920000  0  8 26 27  7 18  2 31 10 19
  22617249.700    -8818940.86349  -6851205.60549  22617248.6454   22617252.6794
  18192529.678   -67909399.60449 -52054432.50149  18192528.8644   18192532.0514
  20761556.061   -16759640.78149 -13010619.38949  20761555.2444   20761561.8864
  21473112.798   -78409867.97849 -60646865.98149  21473112.0444   21473120.6214
  19264984.476   -50307052.97449 -36928083.02549  19264983.0204   19264988.1994
  20820826.234   -56780921.47249                  20820825.7724   20820827.4894
  22217172.688   -37269062.79349 -29018667.49149  22217171.7124   22217179.5714
  18981787.599   -80615606.10249 -62749773.10849  18981787.0124   18981790.7084
 96 12 10  1 11 29.9920000  0  8 26 27  7 18  2 31 10 19
  22582421.399    -9001963.66249  -6993820.70849  22582419.9564   22582424.1964
  18170938.733   -68022860.57249 -52142843.62349  18170937.9014   18170941.4384
  20725356.438   -16949871.44449 -13158851.07249  20725354.7654   20725361.3524
  21477132.402   -78388744.91249 -60630406.46949  21477132.9204   21477138.0604
  19242771.823   -50423780.85249 -37019039.79149  19242770.6474   19242775.2064
  20819350.917   -56788674.00349 -44234057.67259  20819349.2644   20819353.9444
  22210757.232   -37302776.10549 -29044937.66149  22210754.9244   22210763.3174
  18972253.960   -80665706.02049 -62788811.99749  18972253.8224   18972256.6374
 96 12 10  1 11 59.9920000  0  8 26 27  7 18  2 31 10 19
  22547622.886    -9184831.45049  -7136315.03349  22547622.6264   22547626.9034
  18149403.473   -68136029.09649 -52231026.88449  18149402.6404   18149406.2874
  20689187.043   -17139943.41849 -13306959.06849  20689185.7354   20689190.9024
  21481165.310   -78367552.22349 -60613892.70649  21481164.9794   21481168.9974
  19220593.270   -50540329.78149 -37109857.13149  19220592.4214   19220596.6914
  20817941.202   -56796081.74149 -44239829.91349  20817940.0604   20817943.4684
  22204380.307   -37336286.43349 -29071049.60749  22204379.5984   22204384.8244
  18962767.653   -80715557.10549 -62827657.00249  18962766.6504   18962770.8784
 96 12 10  1 12 29.9920000  0  8 26 27  7 18  2 31 10 19
  22512867.695    -9367471.24049  -7278631.71249  22512867.5664   22512871.7874
  18127934.282   -68248850.65149 -52318939.78249  18127933.5734   18127937.4754
  20653063.297   -17329775.29249 -13454879.98449  20653062.4524   20653066.4364
  21485224.716   -78346220.22849 -60597270.39449  21485223.7494   21485229.2364
  19198464.271   -50656618.73149 -37200471.89749  19198463.4804   19198467.8094
  20816611.228   -56803070.17049 -44245275.44249  20816610.3014   20816613.3374
  22198057.185   -37369515.07849 -29096942.09849  22198055.9864   22198062.6744
  18953343.730   -80765079.55849 -62866245.93249  18953342.6744   18953347.3794
 96 12 10  1 12 59.9920000  0  8 26 27  7 18  2 31 10 19
  22478147.771    -9549925.56049  -7420803.86949  22478147.9724   22478152.2764
  18106519.230   -68361387.91449 -52406631.15349  18106518.6484   18106521.7764
  20616977.478   -17519407.93549 -13602645.66549  20616976.7644   20616981.1704
  21489301.426   -78324796.99549 -60580576.98349  21489301.2264   21489305.4584
  19176374.918   -50772699.15249 -37290924.16349  19176374.1124   19176378.5584
  20815351.569   -56809689.56149 -44250433.39949  20815351.0224   20815353.8684
  22191779.687   -37402504.52449 -29122648.19549  22191779.1714   22191785.3954
  18943972.548   -80814324.85949 -62904618.90349  18943971.6714   18943976.1354
 96 12 10  1 13 29.9920000  0  8 26 27  7 18  2 31 10 19
  22443457.967    -9732221.28549  -7562852.44649  22443457.6084   22443461.9094
  18085147.482   -68473697.32449 -52494144.97449  18085146.9234   18085150.1474
  20580919.628   -17708893.30749 -13750296.59049  20580918.8964   20580922.6734
  21493388.908   -78303317.40049 -60563839.66149  21493389.4364   21493393.0904
  19154318.119   -50888608.73149 -37381243.30349  19154317.5724   19154321.8624
  20814156.390   -56815970.19749 -44255327.40049  20814155.2704   20814158.7094
  22185539.221   -37435299.42849 -29148202.70149  22185538.6614   22185544.2664
  18934646.215   -80863334.62749 -62942808.33949  18934645.3084   18934649.7464
 96 12 10  1 13 59.9920000  0  8 26 27  7 18  2 31 10 19
  22408809.831    -9914298.38849  -7704730.68049  22408809.9944   22408813.9154
  18063827.369   -68585735.03749 -52581447.08749  18063826.9134   18063829.9334
  20544896.996   -17898193.73549 -13897803.39949  20544895.6854   20544899.2904
  21497497.419   -78281727.15749 -60547016.12649  21497497.5224   21497502.2274
  19132308.808   -51004269.10449 -37471368.26149  19132308.1594   19132312.3454
  20813037.367   -56821850.10349 -44259909.14349  20813036.4154   20813040.4474
  22179345.731   -37467847.28649 -29173564.70949  22179344.8894   22179350.8044
  18925376.162   -80912049.00549 -62980767.60149  18925375.2154   18925379.6574
 96 12 10  1 14 29.9920000  0  8 26 27  7 18  2 31 10 19
  22374199.635   -10096176.23649  -7846453.65449  22374198.9544   22374204.3554
  18042557.516   -68697508.79749 -52668543.51749  18042556.7884   18042559.9444
  20508906.528   -18087324.37349 -14045177.88749  20508905.2404   20508909.3214
  21501624.208   -78260041.00449 -60530117.84249  21501623.7764   21501628.3664
  19110344.141   -51119694.46149 -37561310.07849  19110343.2354   19110347.7654
  20811990.096   -56827353.19849 -44264197.26349  20811988.7904   20811992.7154
  22173194.546   -37500173.62249 -29198754.09149  22173194.4974   22173198.3604
  18916159.335   -80960483.28749 -63018508.60149  18916158.4864   18916162.7984
 96 12 10  1 14 59.9920000  0  8 26 27  7 18  2 31 10 19
  22339641.717   -10277778.74949  -7987962.09449  22339640.3194   22339646.1174
  18021354.522   -68808931.23549 -52755366.19649  18021353.8164   18021356.8754
  20472962.959   -18276208.59249 -14192360.36749  20472961.6844   20472966.3824
  21505783.711   -78238182.83149 -60513085.52849  21505783.1864   21505787.7844
  19088439.290   -51234805.37349 -37651006.88449  19088437.9994   19088442.5504
  20811029.785   -56832400.00649 -44268129.82549  20811029.0944   20811032.3154
  22167098.427   -37532210.49549 -29223717.92749  22167097.3784   22167101.7354
  18907011.095   -81008557.58649 -63055969.10149  18907010.4394   18907014.4824
 96 12 10  1 15 29.9920000  0  8 26 27  7 18  2 31 10 19
  22305121.282   -10459184.52549  -8129317.23849  22305121.5564   22305125.3264
  18000206.283   -68920066.01049 -52841964.71749  18000205.7674   18000208.9874
  20437053.152   -18464915.71549 -14339404.86349  20437052.2734   20437056.9564
  21509962.141   -78216224.84749 -60495975.43249  21509961.6634   21509966.3664
  19066581.525   -51349668.26149 -37740510.42549  19066580.1014   19066584.9994
  20810143.111   -56837059.93949 -44271760.92949  20810143.3884   20810146.4104
  22161045.245   -37564019.81049 -29248504.41549  22161043.4594   22161049.2194
  18897918.154   -81056341.74249 -63093203.50749  18897917.6744   18897922.1744
 96 12 10  1 15 59.9920000  0  8 26 27  7 18  2 31 10 19
  22270640.448   -10640382.74449  -8270510.65049  22270639.4874   22270645.2694
  17979116.296   -69030894.79349 -52928324.80749  17979115.6674   17979118.8724
  20401183.389   -18653412.27249 -14486285.26949  20401182.0764   20401185.8104
  21514160.314   -78194163.43649 -60478784.75149  21514159.6274   21514164.7974
  19044772.625   -51464274.13849 -37829813.70049  19044771.2494   19044776.0474
  20809328.545   -56841340.74449 -44275096.61649  20809327.9824   20809331.0834
  22155038.496   -37595585.60949 -29273101.18549  22155037.7774   22155042.3074
  18888882.818   -81103823.14149 -63130202.01349  18888882.4094   18888886.2984
 96 12 10  1 16 29.9920000  0  8 26 27  7 18  2 31 10 19
  22236192.805   -10821405.83749  -8411567.58449  22236192.6144   22236196.8944
  17958078.810   -69141447.47149 -53014469.75249  17958077.9714   17958081.3964
  20365350.594   -18841714.54549 -14633014.28249  20365349.0824   20365353.3284
  21518369.838   -78172042.89149 -60461547.97749  21518369.1034   21518373.8324
  19023001.964   -51578678.78649 -37918960.16749  19023000.5614   19023005.6474
  20808578.114   -56845284.33449 -44278169.52949  20808577.6614   20808581.5224
  22149071.766   -37626941.73349 -29297534.55849  22149070.1084   22149075.6854
  18879896.878   -81151045.02449 -63166998.28549  18879896.2804   18879900.1644
 96 12 10  1 16 59.9920000  0  8 26 27  7 18  2 31 10 19
  22201783.285   -11002229.16749  -8552468.88649  22201783.6654   22201786.5254
  17937095.703   -69251714.52849 -53100392.13149  17937094.8384   17937098.1544
  20329557.206   -19029809.81249 -14779582.01249  20329555.8414   20329560.6374
  21522592.663   -78149852.39949 -60444256.70049  21522591.8904   21522597.3054
  19001270.175   -51692879.82149 -38007947.97349  19001269.0254   19001273.5484
  20807895.130   -56848873.39249 -44280966.19949  20807894.0754   20807898.2064
  22143148.870   -37658066.90649 -29321787.90949  22143148.2474   22143153.9454
  18870961.194   -81198002.82449 -63203588.78949  18870961.2354   18870964.6804
 96 12 10  1 17 29.9920000  0  8 26 27  7 18  2 31 10 19
  22167415.646   -11182832.60649  -8693198.79949  22167415.1284   22167418.9524
  17916170.277   -69361678.65249 -53186078.46249  17916169.6544   17916172.6094
  20293803.115   -19217698.40349 -14925988.68349  20293801.2744   20293806.1044
  21526831.820   -78127576.08149 -60426898.54549  21526830.9254   21526835.8484
  18979578.493   -51806870.55549 -38096771.91849  18979577.5724   18979582.1384
  20807278.894   -56852111.39949 -44283489.31949  20807277.6714   20807281.5604
  22137270.003   -37688960.84549 -29345861.14649  22137269.7074   22137273.3614
  18862079.458   -81244677.15849 -63239958.40649  18862078.6554   18862082.6674
 96 12 10  1 17 59.9920000  0  8 26 27  7 18  2 31 10 19
  22133096.563   -11363181.54949  -8833730.40949  22133095.6674   22133101.1404
  17895306.945   -69471316.43549 -53271510.49449  17895306.1074   17895309.5804
  20258092.232   -19405359.87449 -15072218.36649  20258091.1054   20258095.9204
  21531090.217   -78105198.61649 -60409461.57749  21531089.3874   21531094.8194
  18957930.560   -51920631.54649 -38185416.83649  18957929.7684   18957934.0044
  20806734.023   -56854974.77949 -44285720.52149  20806732.7994   20806737.7824
  22131436.624   -37719616.12049 -29369748.41149  22131435.7764   22131441.7474
  18853258.369   -81291032.15949 -63276079.18949  18853257.4714   18853261.8374
 96 12 10  1 18 29.9920000  0  8 26 27  7 18  2 31 10 19
  22098824.901   -11543280.24849  -8974067.02149  22098825.0124   22098828.0884
  17874506.771   -69580621.97449 -53356683.63349  17874506.0274   17874508.9784
  20222421.564   -19592809.94249 -15218283.31849  20222420.5404   20222426.0434
  21535367.431   -78082722.00749 -60391947.34749  21535366.8264   21535371.6054
  18936325.763   -52034165.84749 -38273885.12049  18936324.8054   18936329.2634
  20806260.854   -56857461.48049 -44287658.20849  20806259.8164   20806263.0984
  22125645.539   -37750048.41049 -29393461.91849  22125643.1864   22125648.9854
  18844497.760   -81337069.30049 -63311952.29049  18844496.9664   18844501.1524
 96 12 10  1 18 59.9910000  0  8 26 27  7 18  2 31 10 19
  22064591.974   -11723175.67749  -9114245.23649  22064591.9514   22064595.3594
  17853762.898   -69689631.66649 -53441626.24649  17853762.4874   17853765.6094
  20186783.532   -19780088.63249 -15364214.78449  20186782.2314   20186787.3244
  21539657.348   -78060178.50649 -60374381.01349  21539656.6764   21539661.3054
  18914757.754   -52147506.55949 -38362202.55849  18914756.9864   18914761.6514
  20805850.358   -56859619.03449 -44289339.40449  20805850.2404   20805853.5864
  22119886.422   -37780312.25549 -29417044.15849  22119884.0534   22119891.5924
  18835791.223   -81382822.07249 -63347603.80649  18835790.1244   18835794.6374
 96 12 10  1 19 29.9910000  0  8 26 27  7 18  2 31 10 19
  22030415.728   -11902772.89049  -9254191.07149  22030415.4914   22030419.9484
  17833095.128   -69798241.67849 -53526257.42649  17833094.4964   17833097.6144
  20151197.872   -19967092.34349 -15509931.92349  20151196.5074   20151202.2344
  21543976.827   -78037479.79749 -60356693.72049  21543975.6064   21543981.2194
  18893245.463   -52260554.42549 -38450291.80049  18893244.4494   18893249.0404
  20805519.496   -56861357.79949 -44290694.28849  20805518.7894   20805522.8514
  22114176.808   -37810315.66449 -29440423.48549  22114175.5554   22114180.8404
  18827158.764   -81428185.61449 -63382952.02549  18827157.7204   18827162.7184
 96 12 10  1 19 59.9910000  0  8 26 27  7 18  2 31 10 19
  21996279.484   -12082159.90049  -9393973.09749  21996278.9934   21996282.7774
  17812486.495   -69906540.93449 -53610646.45149  17812485.8634   17812489.1264
  20115654.638   -20153873.17249 -15655475.39749  20115653.3534   20115659.2214
  21548306.142   -78014729.21849 -60338966.01349  21548305.0294   21548308.9984
  18871772.852   -52373393.94049 -38538218.68549  18871771.9044   18871776.3104
  20805250.549   -56862770.64249 -44291795.20549  20805248.5264   20805253.9774
  22108499.701   -37840148.21649 -29463669.67449  22108497.2764   22108504.8794
  18818579.229   -81473271.16449 -63418083.62049  18818578.6494   18818583.4664
 96 12 10  1 20 29.9910000  0  8 26 27  7 18  2 31 10 19
  21962185.068   -12261327.79449  -9533584.38949  21962185.1864   21962189.1794
  17791937.435   -70014526.92149 -53694791.37349  17791936.6494   17791940.0334
  20080154.803   -20340425.91449 -15800841.14049  20080154.1194   20080159.2044
  21552645.705   -77991924.93449 -60321196.45049  21552645.6644   21552649.3364
  18850336.918   -52486040.58649 -38625995.27549  18850335.7544   18850340.2354
  20805041.290   -56863869.81849 -44292651.71049  20805040.4704   20805044.3614
  22102852.987   -37869820.91749 -29486791.22949  22102850.7154   22102857.4584
  18810048.755   -81518099.24349 -63453014.59549  18810048.2954   18810053.0654
 96 12 10  1 20 59.9910000  0  8 26 27  7 18  2 31 10 19
  21928137.109   -12440251.13049  -9673005.11449  21928136.8574   21928140.9554
  17771450.878   -70122184.29549 -53778680.22249  17771449.9414   17771453.3404
  20044700.793   -20526738.17049 -15946019.49649  20044700.0334   20044705.4714
  21556996.924   -77969059.36549 -60303379.13749  21556996.5824   21557001.3364
  18828940.926   -52598477.12749 -38713608.15249  18828939.8064   18828944.2914
  20804895.260   -56864636.87749 -44293249.41649  20804894.5614   20804897.5244
  22097239.385   -37899320.91649 -29509778.29949  22097238.6004   22097243.7094
  18801568.338   -81562664.70249 -63487740.92949  18801567.7064   18801572.0784
 96 12 10  1 21 29.9910000  0  8 26 27  7 18  2 31 10 19
  21894144.251   -12618884.99949  -9812200.28749  21894142.8504   21894147.3214
  17751031.341   -70229489.63349 -53862294.77049  17751030.8074   17751034.1154
  20009298.615   -20712778.06049 -16090985.62449  20009297.8114   20009302.7524
  21561362.230   -77946119.75549 -60285504.12749  21561360.5414   21561366.0724
  18807591.050   -52710671.34449 -38801032.21149  18807590.1464   18807594.3384
  20804817.925   -56865043.34749 -44293566.14249  20804817.3954   20804820.9184
  22091664.860   -37928615.74049 -29532605.44649  22091664.2294   22091669.0234
  18793141.639   -81606947.58649 -63522247.09149  18793141.1094   18793145.1144
 96 12 10  1 21 59.9910000  0  8 26 27  7 18  2 31 10 19
  21860200.994   -12797258.23849  -9951192.38249  21860200.2284   21860203.6324
  17730675.710   -70336459.17649 -53945647.65649  17730674.9894   17730678.3904
  19973943.402   -20898571.63049 -16235759.81549  19973942.0884   19973947.5294
  21565741.465   -77923106.60749 -60267571.80849  21565740.3594   21565745.6964
  18786283.153   -52822645.42349 -38888284.73749  18786282.0084   18786286.8484
  20804807.567   -56865097.80249 -44293608.57549  20804806.9924   20804811.2354
  22086126.305   -37957721.66449 -29555285.40949  22086125.1444   22086131.2384
  18784765.532   -81650964.25149 -63556545.78949  18784764.6084   18784769.2544
 96 12 10  1 22 29.9910000  0  8 26 27  7 18  2 31 10 19
  21826293.517   -12975442.85149 -10090037.48949  21826292.8924   21826296.0984
  17710371.324   -70443159.56149 -54028790.81149  17710370.5564   17710373.8604
  19938618.761   -21084204.10249 -16380408.47049  19938618.3524   19938623.1794
  21570121.982   -77900086.68949 -60249634.21449  21570120.7764   21570125.3414
  18765005.190   -52934461.81249 -38975414.37649  18765003.9384   18765008.7024
  20804852.039   -56864863.99449 -44293426.40349  20804851.7514   20804854.9174
  22080612.143   -37986699.38349 -29577865.49049  22080611.1214   22080616.8104
  18776433.267   -81694750.41249 -63590664.88749  18776432.6264   18776437.1754
 96 12 10  1 22 59.9910000  0  8 26 27  7 18  2 31 10 19
  21792429.899   -13153396.76949 -10228702.84449  21792429.4454   21792432.6104
  17690128.439   -70549536.60349 -54111682.00749  17690127.8794   17690130.9414
  19903335.696   -21269618.13549 -16524886.91949  19903334.1884   19903339.7694
  21574513.502   -77877008.70649 -60231651.38949  21574512.7964   21574516.4034
  18743771.539   -53046045.11949 -39062362.39949  18743770.5384   18743775.0014
  20804961.311   -56864289.83649 -44292979.00149  20804960.7554   20804964.8214
  22075133.779   -38015489.21449 -29600299.14649  22075132.1144   22075137.9664
  18768160.751   -81738222.95849 -63624539.59849  18768159.8234   18768164.2164
 96 12 10  1 23 29.9910000  0  8 26 27  7 18  2 31 10 19
  21758613.958   -13331100.23949 -10367173.05549  21758613.1264   21758617.2884
  17669952.071   -70655564.28649 -54194300.97949  17669951.6374   17669954.5334
  19868102.394   -21454770.07249 -16669161.14049  19868101.4704   19868106.3344
  21578919.754   -77853852.89149 -60213607.90949  21578918.9954   21578924.0934
  18722584.914   -53157381.47049 -39149117.99449  18722584.0254   18722588.6514
  20805137.995   -56863361.57549 -44292255.69249  20805137.4834   20805141.2444
  22069695.392   -38044067.37349 -29622567.86849  22069694.1194   22069700.1034
  18759955.393   -81781342.29149 -63658139.08449  18759954.8934   18759959.1584
 96 12 10  1 23 59.9910000  0  8 26 27  7 18  2 31 10 19
  21724831.332   -13508628.55449 -10505506.77949  21724830.8034   21724834.2034
  17649832.336   -70761294.40049 -54276688.07849  17649831.7264   17649835.0544
  19832906.983   -21639722.91149 -16813280.20649  19832905.4754   19832910.8554
  21583329.566   -77830678.75349 -60195550.14549  21583328.9124   21583334.0784
  18701431.468   -53268543.80349 -39235737.98649  18701430.2494   18701435.1774
  20805369.641   -56862144.54649 -44291307.35049  20805368.5634   20805373.2914
  22064286.497   -38072490.98749 -29644716.14249  22064285.9234   22064289.6844
  18751807.995   -81824157.22849 -63691501.38449  18751807.4044   18751811.7904
 96 12 10  1 24 29.9910000  0  8 26 27  7 18  2 31 10 19
  21691091.141   -13685934.26449 -10643667.04149  21691090.0614   21691094.5084
  17629774.924   -70866696.99849 -54358819.96849  17629774.2914   17629777.3114
  19797756.230   -21824440.78449 -16957216.19249  19797755.0194   19797760.3354
  21587746.787   -77807465.76249 -60177462.10149  21587745.9944   21587751.1664
  18680318.142   -53379494.98749 -39322193.43949  18680317.0964   18680321.5924
  20805663.138   -56860602.35549 -44290105.64849  20805662.3604   20805666.5074
  22058912.407   -38100732.92149 -29666722.85949  22058912.8624   22058917.3714
  18743725.465   -81866631.51949 -63724598.23949  18743724.6394   18743729.6504
 96 12 10  1 24 59.9910000  0  8 26 27  7 18  2 31 10 19
  21657404.307   -13862959.34549 -10781608.63649  21657403.4924   21657408.2034
  17609788.801   -70971724.79449 -54440659.80449  17609788.0274   17609791.1194
  19762659.030   -22008877.42949 -17100933.04349  19762657.9874   19762663.0404
  21592181.109   -77784162.46349 -60159303.71349  21592180.9144   21592185.2904
  18659253.049   -53490192.31349 -39408451.08849  18659251.5494   18659256.7014
  20806026.234   -56858694.21049 -44288618.78949  20806026.0684   20806029.1844
  22053580.797   -38128752.20249 -29688556.07649  22053579.2554   22053584.6084
  18735710.461   -81908750.77549 -63757418.44749  18735709.3584   18735714.5114
 96 12 10  1 25 29.9910000  0  8 26 27  7 18  2 31 10 19
  21623766.130   -14039728.79749 -10919351.04949  21623765.2494   21623769.4734
  17589869.152   -71076403.14949 -54522227.34949  17589868.3484   17589871.4144
  19727610.064   -22193060.83949 -17244452.56249  19727609.3404   19727614.3494
  21596626.531   -77760801.09249 -60141100.05449  21596625.3974   21596631.1854
  18638228.831   -53600674.95049 -39494541.45249  18638227.2844   18638232.6164
  20806454.803   -56856442.27449 -44286864.03049  20806453.8424   20806458.2534
  22048285.811   -38156578.07149 -29710238.57149  22048283.7514   22048290.4024
  18727751.421   -81950575.28449 -63790008.97849  18727750.6784   18727755.1424
 96 12 10  1 25 59.9910000  0  8 26 27  7 18  2 31 10 19
  21590178.161   -14216234.67049 -11056888.08749  21590177.2214   21590181.6734
  17570014.295   -71180740.92649 -54603529.50949  17570013.4534   17570016.7764
  19692607.668   -22376999.92349 -17387781.70549  19692606.9824   19692611.4734
  21601083.598   -77737378.79649 -60122848.93949  21601082.8624   21601087.4604
  18617248.035   -53710929.28649 -39580453.91749  18617246.9684   18617251.9024
  20806949.738   -56853841.35249 -44284837.34049  20806948.1704   20806953.0414
  22043025.736   -38184219.40449 -29731777.29349  22043023.6824   22043029.3824
  18719847.125   -81992112.49049 -63822375.64549  18719846.5004   18719851.3384
 96 12 10  1 26 29.9910000  0  8 26 27  7 18  2 31 10 19
  21556639.947   -14392478.89149 -11194221.20849  21556639.0194   21556642.7644
  17550219.309   -71284764.31649 -54684586.68949  17550218.8464   17550222.0074
  19657649.019   -22560709.21249 -17530931.77749  19657648.1234   19657653.3074
  21605547.629   -77713920.31649 -60104569.60549  21605546.9814   21605552.5634
  18596309.110   -53820963.71949 -39666195.02049  18596307.9944   18596313.0454
  20807504.739   -56850924.61149 -44282564.54349  20807504.7944   20807508.1544
  22037792.751   -38211717.75349 -29753204.59149  22037791.4944   22037796.8894
  18711990.495   -82033399.00149 -63854546.95449  18711989.6594   18711994.4264
 96 12 10  1 26 59.9910000  0  8 26 27  7 18  2 31 10 19
  21523161.236   -14568410.07549 -11331310.42949  21523161.2564   21523163.8154
  17530493.890   -71388422.35349 -54765359.18349  17530493.4324   17530496.6864
  19622746.268   -22744124.92249 -17673853.09149  19622745.4764   19622750.2204
  21610028.160   -77690374.70749 -60086222.39349  21610027.7094   21610032.6244
  18575422.763   -53930722.32249 -39751721.19549  18575421.9034   18575426.3464
  20808128.129   -56847648.45049 -44280011.70449  20808127.1934   20808131.1424
  22032594.217   -38239035.93649 -29774491.51249  22032592.0144   22032600.0314
  18704191.783   -82074381.59749 -63886481.45249  18704191.5184   18704195.7274
 96 12 10  1 27 29.9910000  0  8 26 27  7 18  2 31 10 19
  21489721.947   -14744134.59449 -11468238.63349  21489720.4864   21489723.7194
  17510818.464   -71491817.76649 -54845927.06149  17510817.5434   17510821.4714
  19587882.399   -22927336.28649 -17816615.19449  19587880.2134   19587885.9934
  21614502.761   -77666860.79949 -60067899.89949  21614502.7414   21614507.3224
  18554566.987   -54040320.40949 -39837122.31249  18554566.3614   18554569.6584
  20808800.128   -56844116.79749 -44277259.77549  20808798.8484   20808803.7014
  22027407.781   -38266290.86849 -29795729.13549  22027404.9154   22027412.2624
  18696436.330   -82115137.28349 -63918239.16449  18696436.0374   18696439.6094
 96 12 10  1 27 59.9900000  0  7 26 27  7 18  2 31 19
  21456334.902   -14919584.69749 -11604952.96449  21456335.5384   21456338.1564
  17491203.065   -71594897.32349 -54926248.76549  17491202.3934   17491205.8484
  19553068.729   -23110283.23649 -17959171.23649  19553067.4434   19553072.2814
  21618980.314   -77643330.88849 -60049564.91349  21618980.0224   21618985.1754
  18533752.547   -54149701.09649 -39922353.98849  18533751.5914   18533756.1254
  20809527.344   -56840295.07949 -44274281.79249  20809526.5354   20809530.4204
  18688737.663   -82155593.95849 -63949763.84049  18688737.2164   18688741.0624
 96 12 10  1 28 29.9900000  0  7 26 27  7 18  2 31 19
  21423003.244   -15094743.80249 -11741440.55749  21423002.8744   21423005.6864
  17471654.989   -71697623.12649 -55006294.84049  17471654.2454   17471657.6924
  19518308.735   -23292948.19249 -18101507.54749  19518307.4974   19518312.8184
  21623466.089   -77619757.95549 -60031196.40949  21623466.0264   21623471.2714
  18512983.147   -54258845.19749 -40007401.32849  18512982.0894   18512986.7184
  20810314.722   -56836156.97549 -44271057.31049  20810313.2204   20810317.7864
  18681102.450   -82195717.13549 -63981028.66049  18681101.5034   18681106.2044
 96 12 10  1 28 59.9900000  0  7 26 27  7 18  2 31 19
  21389725.208   -15269621.08649 -11877708.53649  21389724.0224   21389727.7954
  17452174.433   -71799994.21649 -55086064.51749  17452173.6424   17452176.9394
  19483600.249   -23475342.12549 -18243632.67249  19483598.7854   19483603.8954
  21627957.276   -77596156.72349 -60012805.83749  21627956.4974   21627961.2744
  18492253.959   -54367777.83649 -40092283.88849  18492252.9104   18492257.2634
  20811159.771   -56831715.66149 -44267596.55449  20811158.4254   20811163.6544
  18673529.554   -82235512.34949 -64012037.92249  18673528.3854   18673533.2964
 96 12 10  1 29 29.9900000  0  7 26 27  7 18  2 31 19
  21356510.566   -15444165.28449 -12013716.99549  21356510.8554   21356514.0274
  17432770.228   -71901963.57849 -55165521.15449  17432769.3354   17432773.0444
  19448948.385   -23657438.32649 -18385525.80749  19448946.5544   19448951.8784
  21632459.120   -77572499.46549 -59994371.63949  21632458.4514   21632463.4284
  18471569.862   -54476473.53549 -40176981.83349  18471568.9094   18471573.5434
  20812064.783   -56826959.03449 -44263890.10249  20812063.5284   20812068.1434
  18666023.095   -82274958.38449 -64042775.09049  18666022.3024   18666027.1484
 96 12 10  1 29 59.9900000  0  8 26 15 27  7 18  2 31 19
  21323344.630   -15618453.72449 -12149526.14349  21323343.8264   21323347.7434
  21779417.433   -12391811.94349  -9253439.14649  21779414.6754   21779420.8624
  17413428.124   -72003606.75149 -55244723.62749  17413427.0854   17413430.9344
  19414335.501   -23839329.28649 -18527259.01449  19414333.1774   19414339.5294
  21636958.523   -77548854.80149 -59975947.23249  21636956.9564   21636962.8684
  18450915.857   -54585010.86549 -40261556.36349  18450914.5584   18450919.4654
  20813012.916   -56821976.25549 -44260007.42049  20813012.4914   20813015.9344
  18658563.824   -82314156.98049 -64073319.46149  18658563.5254   18658567.2314
 96 12 10  1 30 29.9900000  0  8 26 15 27  7 18  2 31 19
  21290245.282   -15792392.19349 -12285062.57549  21290244.2514   21290248.3694
  21750438.443   -12544095.72349  -9372101.80449  21750437.6354   21750442.1814
  17394167.560   -72104821.72849 -55323592.44049  17394166.5594   17394170.3114
  19379782.035   -24020908.49849 -18668749.29549  19379781.1374   19379785.6914
  21641474.536   -77525122.53149 -59957454.57749  21641474.0494   21641478.8694
  18430308.746   -54693301.84049 -40345938.93849  18430307.7534   18430312.0284
  20814025.036   -56816657.82349 -44255863.19749  20814024.6814   20814028.7494
  18651168.255   -82353021.00649 -64103603.12749  18651167.4954   18651171.8094
 96 12 10  1 30 59.9900000  0  8 26 15 27  7 18  2 31 19
  21257193.350   -15966081.08049 -12420404.53949  21257193.2414   21257196.3204
  21721494.739   -12696195.64049  -9490621.19149  21721493.3034   21721498.3104
  17374969.401   -72205708.35649 -55402205.39249  17374968.5404   17374972.2574
  19345273.075   -24202254.39249 -18810057.77149  19345272.8364   19345276.5584
  21645989.946   -77501394.10549 -59938964.92849  21645989.7034   21645994.0414
  18409729.277   -54801447.54149 -40430208.30049  18409728.1704   18409732.8324
  20815081.060   -56811109.08749 -44251539.50149  20815080.0104   20815083.9604
  18643817.117   -82391651.61249 -64133704.90249  18643816.4944   18643821.0364
 96 12 10  1 31 29.9900000  0  8 26 15 27  7 18  2 31 19
  21224201.925   -16139451.89349 -12555498.63649  21224200.9014   21224205.3394
  21692601.888   -12848029.31949  -9608933.10949  21692601.4054   21692605.9634
  17355845.879   -72306202.76949 -55480512.72649  17355845.2584   17355848.7724
  19310824.748   -24383282.06149 -18951118.28049  19310823.8654   19310828.5174
  21650519.162   -77477592.95349 -59920418.59649  21650518.2184   21650524.2134
  18389194.984   -54909355.89249 -40514292.72249  18389193.7364   18389198.5344
  20816198.463   -56805237.23349 -44246964.03949  20816197.4564   20816201.1054
  18636525.324   -82429970.47549 -64163563.77049  18636525.1824   18636529.5234
 96 12 10  1 31 59.9900000  0  8 26 15 27  7 18  2 31 19
  21191266.456   -16312528.55049 -12690363.52449  21191265.1624   21191270.3084
  21663759.802   -12999595.90249  -9727036.91149  21663758.9424   21663761.8564
  17336793.808   -72406322.31649 -55558527.95049  17336793.2084   17336796.7174
  19276435.616   -24563998.97749 -19091936.63749  19276434.7024   19276439.1884
  21655059.808   -77453732.05849 -59901825.71349  21655058.5754   21655063.9744
  18368704.963   -55017031.58449 -40598195.84149  18368703.7614   18368708.6654
  20817379.916   -56799029.16349 -44242126.59249  20817379.3284   20817383.1484
  18629293.237   -82467975.73349 -64193178.26449  18629292.9294   18629297.0214
 96 12 10  1 32 29.9900000  0  8 26 15 27  7 18  2 31 19
  21158379.239   -16485351.57349 -12825030.79249  21158379.1894   21158382.8924
  21634961.773   -13150930.44249  -9844959.90049  21634959.7694   21634965.0074
  17317804.677   -72506111.09249 -55636285.43649  17317804.2344   17317807.6644
  19242099.257   -24744438.51549 -19232538.85049  19242098.8724   19242102.4394
  21659598.361   -77429881.60349 -59883240.95049  21659596.5634   21659603.3794
  18348254.515   -55124499.24249 -40681936.86649  18348253.2394   18348258.0444
  20818617.768   -56792524.34249 -44237057.90949  20818616.6624   20818620.7014
  18622114.604   -82505700.28249 -64222574.03749  18622114.3684   18622118.3804
 96 12 10  1 32 59.9900000  0  8 26 15 27  7 18  2 31 19
  21125542.464   -16657909.31849 -12959491.32749  21125541.3324   21125546.4394
  21606209.098   -13302026.33549  -9962696.92249  21606207.9044   21606213.0104
  17298878.430   -72605569.70049 -55713785.65149  17298877.9464   17298881.4184
  19207814.123   -24924608.67949 -19372931.17049  19207813.2284   19207818.0164
  21664132.876   -77406052.37349 -59864672.74549  21664132.2434   21664137.8134
  18327845.139   -55231751.07549 -40765509.71149  18327843.9984   18327848.7584
  20819910.970   -56785728.42949 -44231762.39849  20819910.7164   20819913.4044
  18614989.934   -82543140.99949 -64251748.62449  18614989.1114   18614993.5244
 96 12 10  1 33 29.9900000  0  8 26 15 27  7 18  2 31 19
  21092766.780   -16830146.12649 -13093701.79249  21092765.8624   21092770.8614
  21577510.255   -13452839.79549 -10080213.87149  21577509.3714   21577514.1044
  17280022.996   -72704655.88049 -55790995.65749  17280022.2304   17280025.8564
  19173585.191   -25104483.28649 -19513093.18549  19173584.5744   19173588.9694
  21668668.476   -77382217.35149 -59846100.00249  21668666.8744   21668673.3234
  18307482.646   -55338756.51749 -40848890.56749  18307481.5244   18307486.0744
  20821266.591   -56778604.83249 -44226211.54749  20821266.1374   20821269.2494
  18607927.423   -82580254.66249 -64280668.36949  18607926.8404   18607931.0294
 96 12 10  1 33 59.9900000  0  8 26 15 27  7 18  2 31 19
  21060044.000   -17002105.12649 -13227695.78449  21060043.4854   21060048.2034
  21548854.560   -13603426.29349 -10197553.95149  21548854.3394   21548859.0734
  17261229.401   -72803416.41349 -55867951.91049  17261228.2704   17261232.4854
  19139402.174   -25284116.31549 -19653066.95549  19139400.9184   19139405.2884
  21673193.349   -77358438.69849 -59827571.20349  21673192.9914   21673197.9464
  18287153.575   -55445586.80749 -40932134.93649  18287152.6884   18287157.2644
  20822669.756   -56771231.08449 -44220465.77149  20822669.0164   20822672.0774
  18600917.193   -82617093.59749 -64309374.05049  18600916.5534   18600920.9134
 96 12 10  1 34 29.9900000  0  8 26 15 27  7 18  2 31 19
  21027376.515   -17173774.25049 -13361463.93149  21027376.0304   21027381.0964
  21520243.231   -13753780.01249 -10314712.67949  21520242.7764   21520246.1964
  17242499.398   -72901842.81449 -55944647.82549  17242498.8864   17242501.2814
  19105268.305   -25463490.74349 -19792839.23649  19105267.1494   19105272.1934
  21677710.954   -77334699.02749 -59809072.79749  21677708.9144   21677721.6974
  18266858.315   -55552239.39849 -41015240.86949  18266856.8884   18266862.4744
  20824118.801   -56763616.68449 -44214532.49449  20824116.9844   20824123.4814
  18593960.018   -82653654.01449 -64337862.71749  18593959.3004   18593963.9364
 96 12 10  1 34 59.9900000  0  8 26 15 27  7 18  2 31 19
  20994769.580   -17345125.12749 -13494984.04549  20994769.4044   20994773.9024
  21491680.482   -13903878.15649 -10431672.23749  21491678.4014   21491684.0004
  17223836.753   -72999915.34749 -56021067.95449  17223835.7874   17223839.6584
  19071187.734   -25642584.67849 -19932392.91049  19071186.6524   19071191.2384
  21682229.208   -77310956.15049 -59790571.86549  21682230.0544   21682232.6274
  18246597.358   -55658711.63749 -41098206.20749  18246596.6444   18246601.1884
  20825615.223   -56755752.88949 -44208404.84449  20825615.3764   20825618.2164
  18587062.003   -82689903.25849 -64366108.86249  18587061.4054   18587065.8684
 96 12 10  1 35 29.9900000  0  8 26 15 27  7 18  2 31 19
  20962226.650   -17516139.58449 -13628242.04549  20962226.6924   20962229.7864
  21463170.928   -14053697.02149 -10548414.19049  21463168.6784   21463173.8904
  17205246.095   -73097609.58149 -56097193.35149  17205245.0574   17205248.8634
  19037166.718   -25821365.85449 -20071702.92049  19037165.7844   19037170.9554
  21686753.096   -77287183.80149 -59772047.96849  21686755.1524   21686756.5504
  18226375.809   -55764976.74449 -41181010.19849  18226374.5934   18226378.4954
  20827161.476   -56747627.51549 -44202073.38849  20827160.3274   20827163.7774
  18580226.919   -82725822.23649 -64394097.71449  18580226.4974   18580230.3364
 96 12 10  1 35 59.9900000  0  8 26 15 27  7 18  2 31 19
  20929754.139   -17686783.97649 -13761211.66349  20929754.9424   20929757.9744
  21434723.548   -14203189.08049 -10664901.47749  21434720.4724   21434723.8354
  17186737.648   -73194871.11849 -56172981.54149  17186736.8904   17186740.8904
  19003214.597   -25999785.23649 -20210730.99049  19003212.9094   19003219.3394
  21691290.811   -77263337.93649 -59753466.80849  21691289.3934   21691295.3134
  18206203.273   -55870984.04349 -41263613.27649  18206202.3084   18206207.7784
  20828766.808   -56739191.84149 -44195500.13449  20828766.7354   20828769.6014
  18573462.172   -82761371.29749 -64421798.28849  18573461.8604   18573465.8344
 96 12 10  1 36 29.9890000  0  8 26 15 27  7 18  2 31 19
  20897333.463   -17857155.46049 -13893968.64849  20897333.3474   20897335.9414
  21406321.774   -14352441.06849 -10781201.72549  21406322.1524   21406327.9814
  17168295.837   -73291783.10549 -56248497.37049  17168295.4264   17168299.2614
  18969314.037   -26177933.13149 -20349547.50649  18969314.1474   18969319.5624
  21695825.212   -77239510.02449 -59734899.60849  21695824.8334   21695826.2054
  18186064.013   -55976816.81149 -41346080.35149  18186063.3604   18186066.8984
  20830413.488   -56730538.90449 -44188757.59049  20830413.1954   20830415.5594
  18566748.193   -82796653.58149 -64449290.98049  18566747.0194   18566750.8134
 96 12 10  1 36 59.9890000  0  8 26 15 27  7 18  2 31 19
  20864966.667   -18027243.73149 -14026504.93649  20864967.4544   20864969.3534
  21377968.271   -14501439.17349 -10897304.12149  21377968.2914   21377972.5234
  17149923.031   -73388333.08049 -56323731.10349  17149922.6464   17149926.3044
  18935465.493   -26355807.78349 -20488151.09849  18935464.1314   18935468.9534
  21700358.504   -77215687.97449 -59716337.01349  21700357.6354   21700360.7654
  18165960.581   -56082461.48849 -41428400.85049  18165959.4284   18165963.6204
  20832104.367   -56721652.90149 -44181833.42549  20832101.6264   20832109.7384
  18560087.617   -82831655.23549 -64476564.99849  18560086.9494   18560090.8144
 96 12 10  1 37 29.9890000  0  8 26 15 27  7 18  2 31 19
  20832658.568   -18197023.90349 -14158801.15049  20832659.5404   20832660.6614
  21349668.398   -14650155.36049 -11013186.86149  21349667.6134   21349673.7904
  17131624.212   -73484494.22549 -56398661.87349  17131623.8844   17131627.6174
  18901674.018   -26533382.36749 -20626520.90249  18901672.7244   18901678.6524
  21704890.445   -77191872.46449 -59697779.50949  21704890.2874   21704898.1154
  18145898.459   -56187889.02849 -41510552.18249  18145897.3174   18145901.3924
  20833845.079   -56712504.99449 -44174705.19949  20833845.3094   20833849.0734
  18553481.569   -82866370.02149 -64503615.49749  18553480.6334   18553485.1804
 96 12 10  1 37 59.9890000  0  8 26 15 27  7 18  2 31 19
  20800404.512   -18366519.92049 -14290875.97649  20800405.1694   20800408.0044
  21321416.882   -14798618.10549 -11128872.09049  21321416.1014   21321421.6714
  17113392.867   -73580300.96449 -56473316.49349  17113392.5154   17113396.4714
  18867934.139   -26710685.92649 -20764679.51949  18867933.7214   18867939.7534
  21709413.619   -77168103.55949 -59679258.31449  21709412.2674   21709416.1694
  18125871.055   -56293133.73149 -41592561.05449  18125869.7124   18125873.9344
  20835630.989   -56703119.54649 -44167391.88149  20835628.8044   20835632.7404
  18546924.700   -82900826.06049 -64530464.37249  18546923.2724   18546927.4284
 96 12 10  1 38 29.9890000  0  8 26 15 27  7 18  2 31 19
  20768211.657   -18535694.50849 -14422700.28649  20768212.3764   20768213.9754
  21293218.392   -14946802.78549 -11244340.62549  21293222.3894   21293219.0454
  17095229.205   -73675752.28549 -56547694.12849  17095228.5404   17095232.4414
  18834252.349   -26887684.57649 -20902600.49949  18834250.8994   18834256.0814
  21713932.853   -77144355.09849 -59660753.06449  21713931.7284   21713935.6254
  18105884.260   -56398164.95149 -41674403.53149  18105883.0584   18105886.9144
  20837465.041   -56693481.00649 -44159881.31849  20837463.9244   20837468.2514
  18540422.176   -82934996.54249 -64557090.71249  18540421.3434   18540426.3314
 96 12 10  1 38 59.9890000  0  7 26 15 27  7  2 31 19
  20736086.147   -18704515.05649 -14554248.76549  20736086.4364   20736089.1194
  21265076.421   -15094690.12349 -11359577.51149  21265072.5074   21265080.8884
  17077134.208   -73770842.60549 -56621790.50649  17077133.6964   17077137.5464
  18800632.356   -27064358.59549 -21040268.57449  18800631.3944   18800636.9974
  18085937.576   -56502985.05749 -41756081.55049  18085936.3974   18085941.0394
  20839350.158   -56683574.46149 -44152161.94249  20839350.6684   20839354.6794
  18533979.622   -82968852.18149 -64583471.76049  18533978.8634   18533983.2544
 96 12 10  1 39 29.9890000  0  7 26 15 27  7  2 31 19
  20704034.402   -18872947.67749 -14685494.95249  20704033.5564   20704037.0684
  21236998.432   -15242239.56549 -11474551.04849  21236995.3544   21237000.0104
  17059116.014   -73865529.39749 -56695572.41649  17059115.5704   17059119.0454
  18767083.256   -27240660.51649 -21177646.66849  18767082.8494   18767087.2204
  18066036.114   -56607567.43749 -41837574.30349  18066034.7644   18066039.5874
  20841295.679   -56673350.57949 -44144195.29149  20841294.2224   20841299.9674
  18527604.040   -83002356.50649 -64609579.03649  18527603.0874   18527608.5874
 96 12 10  1 39 59.9890000  0  7 26 15 27  7  2 31 19
  20672038.466   -19041087.26249 -14816512.78749  20672038.4464   20672041.9514
  21208966.944   -15389544.07949 -11589333.75549  21208964.1604   21208966.4984
  17041156.707   -73959906.51749 -56769113.02549  17041156.1134   17041159.8634
  18733587.729   -27416680.77149 -21314805.28649  18733584.8494   18733590.2324
  18046160.255   -56712015.45449 -41918962.36549  18046159.1844   18046163.6784
  20843279.803   -56662923.65749 -44136070.43249  20843282.4164   20843284.1124
  18521278.759   -83035596.49749 -64635480.35049  18521278.1864   18521284.4954
 96 12 10  1 40 29.9890000  0  7 26 15 27  7  2 31 19
  20640115.950   -19208841.20449 -14947230.08949  20640114.6264   20640120.3144
  21181002.231   -15536499.45749 -11703844.41249  21181000.8384   21181009.6964
  17023275.290   -74053874.17949 -56842334.58049  17023274.6624   17023278.0584
  18700165.333   -27592317.07549 -21451664.72249  18700163.6264   18700169.3854
  18026327.028   -56816239.71849 -42000176.06349  18026325.3954   18026330.7194
  20845317.960   -56652213.17949 -44127724.60549  20845317.6774   20845322.0864
  18515023.336   -83068469.52549 -64661095.70849  18515023.8564   18515025.8834
 96 12 10  1 40 59.9890000  0  7 26 15 27  7  2 31 19
  20608254.593   -19376274.20949 -15077697.37249  20608254.9324   20608258.5044
  21153094.051   -15683158.12049 -11818123.88749  21153091.7494   21153095.9354
  17005463.893   -74147473.12649 -56915268.82249  17005462.8234   17005466.7714
  18666804.452   -27767630.30249 -21588272.42249  18666802.7514   18666809.1054
  18006524.895   -56920300.69749 -42081262.53649  18006524.0734   18006528.6034
  20847398.427   -56641280.36149 -44119205.52849  20847397.4574   20847403.2664
  18508826.069   -83101036.53449 -64686472.63449  18508825.7674   18508830.3764
 96 12 10  1 41 29.9890000  0  7 26 15 27  7  2 31 19
  20576446.532   -19543426.48649 -15207945.87649  20576446.6524   20576449.3474
  21125237.519   -15829545.40749 -11932191.87649  21125237.2534   21125241.5394
  16987718.337   -74240726.03649 -56987933.42349  16987717.1784   16987721.9534
  18633501.267   -27942640.05849 -21724643.64149  18633500.3064   18633505.0824
  17986753.454   -57024200.52049 -42162223.42249  17986752.6704   17986756.6434
  20849513.935   -56630163.76349 -44110543.23349  20849513.1224   20849517.4764
  18502679.458   -83133337.54549 -64711642.26849  18502678.1024   18502683.0934
 96 12 10  1 41 59.9890000  0  7 26 15 27  7  2 31 19
  20544709.426   -19710206.00849 -15337903.92649  20544707.8354   20544712.7424
  21097449.412   -15975573.67749 -12045980.13549  21097448.3804   21097451.8184
  16970054.267   -74333550.75649 -57060264.36849  16970053.3774   16970057.2314
  18600272.348   -28117259.40749 -21860710.65249  18600271.5204   18600276.8574
  17967030.906   -57127843.60549 -42242984.25549  17967030.2244   17967034.3404
  20851678.018   -56618791.94449 -44101682.09449  20851677.6844   20851680.2244
  18496601.233   -83165279.29649 -64736531.95049  18496600.5004   18496603.7854
 96 12 10  1 42 29.9890000  0  7 26 15 27  7  2 31 19
  20513035.069   -19876655.74249 -15467604.98449  20513034.8214   20513041.4244
  21069721.976   -16121283.26049 -12159520.03949  21069719.5274   21069723.4994
  16952464.887   -74425983.54149 -57132289.91249  16952463.7444   16952467.8764
  18567109.013   -28291533.76549 -21996508.82449  18567108.5084   18567112.2754
  17947348.745   -57231274.53649 -42323579.76149  17947347.9804   17947351.6714
  20853883.438   -56607202.70049 -44092651.50649  20853882.5384   20853885.9214
  18490582.031   -83196910.54549 -64761179.67449  18490581.2374   18490584.3334
 96 12 10  1 42 59.9890000  0  7 26 15 27  7  2 31 19
  20481413.861   -20042826.29149 -15597088.47349  20481413.3134   20481417.5494
  21042044.548   -16266730.09449 -12272855.19449  21042042.2374   21042048.5374
  16934943.967   -74518056.89449 -57204035.36249  16934943.5434   16934947.0794
  18534000.378   -28465520.48149 -22132082.85449  18533999.0394   18534003.5754
  17927698.008   -57334540.26949 -42404046.52949  17927697.0944   17927700.9364
  20856121.841   -56595439.96549 -44083485.71249  20856121.1784   20856125.2674
  18484609.833   -83228294.45349 -64785634.65649  18484608.9814   18484613.0994
 96 12 10  1 43 29.9890000  0  7 26 15 27  7  2 31 19
  20449852.910   -20208680.83749 -15726325.78049  20449853.1114   20449854.8884
  21014422.536   -16411884.73649 -12385962.68749  21014420.1104   21014424.3834
  16917496.847   -74609742.57149 -57275478.77849  16917496.0714   16917499.4004
  18500950.083   -28639200.88749                  18500949.5594   18500951.4454
  17908082.719   -57437619.27349 -42484367.84649  17908081.3134   17908085.4634
  20858399.499   -56583470.85549 -44074159.16049  20858398.0124   20858404.2684
  18478689.527   -83259405.61149 -64809877.15249  18478688.7404   18478694.5954
 96 12 10  1 43 59.9890000  0  7 26 15 27  7  2 31 19
  20418366.287   -20374144.35749 -15855258.39549  20418366.0894   20418369.4234
  20986868.837   -16556679.50349 -12498789.76149  20986864.6864   20986873.9264
  16900136.322   -74700973.11649 -57346567.51949  16900135.6604   16900139.9474
  18467967.658   -28812525.13549 -22402476.10359  18467967.2024   18467969.3024
  17888513.360   -57540456.58849 -42564500.81949  17888511.8214   17888516.8384
  20860728.321   -56571232.49949 -44064622.77449  20860727.3694   20860732.1774
  18472833.211   -83290180.67949 -64833857.74149  18472832.1144   18472836.3594
 96 12 10  1 44 29.9890000  0  7 26 15 27  7  2 31 19
  20386944.945   -20539265.04549 -15983923.83249  20386944.1824   20386947.4674
  20959374.651   -16701161.07749 -12611372.75749  20959373.0584   20959377.3804
  16882854.502   -74791789.77749 -57417333.70749  16882853.5544   16882857.5394
  18435042.062   -28985549.80449 -22537300.45549  18435041.1174   18435045.2844
  17868982.099   -57643093.76949 -42644477.80349  17868980.8824   17868985.1494
  20863100.247   -56558767.96049 -44054910.12049  20863099.0274   20863102.4364
  18467029.467   -83320679.15749 -64857622.75649  18467028.7024   18467033.7414
 96 12 10  1 44 59.9890000  0  7 26 15 27  7  2 31 19
  20355586.477   -20704054.96049 -16112331.53249  20355586.7614   20355590.0024
  20931937.212   -16845345.07449 -12723723.89949  20931935.6924   20931941.3214
  16865644.750   -74882227.57149 -57487804.71949  16865643.9684   16865647.7204
  18402169.961   -29158293.17049 -22671905.67049  18402168.2744   18402173.4644
  17849486.055   -57745546.24449 -42724310.89049  17849484.9294   17849488.9974
  20865512.848   -56546089.31349 -44045030.66249  20865512.0874   20865516.9464
  18461274.829   -83350919.96949 -64881187.03749  18461274.1264   18461279.0004
 96 12 10  1 45 29.9880000  0  7 26 15 27  7  2 31 19
  20324302.797   -20868452.17349 -16240433.24049  20324302.3984   20324305.9564
  20904568.045   -16989171.64449 -12835796.51849  20904567.0994   20904572.0884
  16848512.186   -74972259.68149 -57557959.60849  16848511.5784   16848515.2534
  18369363.416   -29330691.92249 -22806242.36349  18369362.7654   18369367.3534
  17830033.940   -57847768.11549 -42803964.30049  17830032.9554   17830037.0764
  20867974.323   -56533154.19349 -44034951.34749  20867973.7124   20867978.0614
  18455581.928   -83380836.54549 -64904498.66449  18455581.1574   18455586.0784
 96 12 10  1 45 59.9880000  0  7 26 15 27  7  2 31 19
  20293076.469   -21032547.44649 -16368299.66049  20293075.7464   20293079.3894
  20877248.892   -17132734.59149 -12947663.72749  20877248.5424   20877252.5774
  16831440.837   -75061969.89749 -57627863.67249  16831440.1064   16831443.8034
  18336609.320   -29502815.10249 -22940364.29149  18336607.9204   18336613.2724
  17810606.287   -57949861.03949 -42883517.20749  17810605.2654   17810609.3904
  20870466.733   -56520056.52149 -44024745.38449  20870465.9474   20870470.2254
  18449935.746   -83410507.93149 -64927619.23049  18449935.1664   18449938.9904
 96 12 10  1 46 29.9880000  0  7 26 15 27  7  2 31 19
  20261925.348   -21196247.36449 -16495858.02149  20261924.1324   20261927.6144
  20849996.526   -17275946.69849 -13059257.53949  20849996.0884   20849998.5664
  16814444.113   -75151287.69349 -57697461.95449  16814443.2234   16814446.9604
  18303927.961   -29674556.51949 -23074188.78949  18303927.4554   18303931.9594
  17791216.628   -58051754.02549 -42962914.33749  17791215.3484   17791219.4904
  20873005.012   -56506717.72949 -44014351.53949  20873003.6304   20873008.8814
  18444354.031   -83439840.65149 -64950475.91449  18444353.8704   18444356.9924
 96 12 10  1 46 59.9880000  0  7 26 15 27  7  2 31 19
  20230849.008   -21359554.06749 -16623110.00249  20230848.6054   20230852.4504
  20822809.210   -17418817.40749 -13170585.34249  20822807.6704   20822813.4334
  16797518.674   -75240231.34449 -57766768.70949  16797517.9904   16797522.4244
  18271317.900   -29845923.87449 -23207721.76749  18271316.2114   18271321.6774
  17771859.904   -58153474.15549 -43042176.77749  17771858.6184   17771863.1594
  20875583.189   -56493169.39249 -44003794.36749  20875581.3064   20875586.7014
  18438836.151   -83468837.59049 -64973070.96249  18438835.9794   18438839.5974
 96 12 10  1 47 29.9880000  0  7 26 15 27  7  2 31 19
  20199835.781   -21522529.12849 -16750103.52049  20199834.1464   20199839.2804
  20795674.651   -17561410.16549 -13281696.54649  20795674.1144   20795678.4024
  16780654.985   -75328850.60949 -57835822.63949  16780653.9754   16780658.1504
  18238768.538   -30016971.86649 -23341005.87149  18238768.1644   18238772.1724
  17752525.252   -58255077.88249 -43121348.47649  17752523.9534   17752528.3254
  20878186.124   -56479491.15649 -43993136.00949  20878185.8734   20878188.2654
  18433369.091   -83497567.17849 -64995457.63749  18433368.5444   18433372.8214
 96 12 10  1 47 59.9880000  0  7 26 15 27  7  2 31 19
  20168905.800   -21685066.74649 -16876756.20349  20168905.9374   20168909.6544
  20768614.237   -17703612.78449 -13392503.73849  20768613.1384   20768618.3534
  16763874.871   -75417030.46149 -57904534.22749  16763874.0224   16763878.1034
  18206298.155   -30187605.70349 -23473967.30249  18206297.4934   18206302.2604
  17733235.163   -58356447.55349 -43200337.82649  17733233.9584   17733238.2494
  20880832.920   -56465582.24149 -43982297.86849  20880832.7104   20880836.5414
  18427969.575   -83525941.86249 -65017567.80649  18427968.9834   18427973.6334
 96 12 10  1 48 29.9880000  0  7 26 15 27  7  2 31 19
  20138041.636   -21847258.78049 -17003139.59249  20138041.5244   20138045.0404
  20741613.141   -17845504.85649 -13503068.98549  20741613.0504   20741617.0334
  16747161.807   -75504857.86249 -57972971.16049  16747160.6824   16747165.4204
  18173886.716   -30357929.47449 -23606687.12249  18173886.0314   18173890.2504
  17713977.566   -58457646.88949 -43279194.44649  17713976.5794   17713980.7474
  20883507.299   -56451528.13949 -43971346.61049  20883506.1704   20883510.1154
  18422619.615   -83554055.90049 -65039474.86349  18422618.7064   18422623.2354
 96 12 10  1 48 59.9880000  0  7 26 15 27  7  2 31 19
  20107245.971   -22009091.19049 -17129242.76649  20107245.7334   20107250.0264
  20714676.885   -17987056.98049 -13613369.32849  20714676.0084   20714680.0744
  16730525.073   -75592284.42849 -58041095.76949  16730524.2694   16730528.2914
  18141538.183   -30527922.64949 -23739149.32049  18141537.1654   18141542.0704
  17694759.202   -58558639.98349 -43357890.35649  17694757.9644   17694762.6514
  20886215.139   -56437298.09849 -43960258.26349  20886214.2854   20886219.2514
  18417322.296   -83581893.56249 -65061166.57049  18417321.5844   18417326.0744
 96 12 10  1 49 29.9880000  0  7 26 15 27  7  2 31 19
  20076519.208   -22170561.55549 -17255063.80849  20076518.4754   20076522.4514
  20687806.474   -18128262.52049 -13723399.58949  20687805.0414   20687809.5334
  16713967.013   -75679297.52949 -58108898.18249  16713966.5524   16713970.3414
  18109255.006   -30697572.05249 -23871343.63549  18109254.0744   18109258.9414
  17675580.650   -58659423.52049 -43436422.97249  17675579.2214   17675584.1524
  20888958.582   -56422881.10049 -43949024.24849  20888958.1354   20888961.9304
  18412077.979   -83609452.67449 -65082641.20749  18412077.5544   18412081.8664
 96 12 10  1 49 59.9880000  0  7 26 15 27  7  2 31 19
  20045865.464   -22331648.19249 -17380585.86549  20045865.9264   20045868.9634
  20661007.086   -18269094.08349 -13833138.45249  20661006.1134   20661010.1134
  16697493.012   -75765869.10549 -58176356.56049  16697492.2674   16697496.7274
  18077042.044   -30866852.30149 -24003250.30549  18077041.3154   18077045.4254
  17656444.057   -58759986.54549 -43514783.76349  17656442.8394   17656447.5364
  20891742.035   -56408254.32549 -43937626.74249  20891740.8694   20891744.6624
  18406892.022   -83636704.94649 -65103876.76549  18406891.2344   18406895.9124
 96 12 10  1 50 29.9880000  0  7 26 15 27  7  2 31 19
  20015273.087   -22492412.95549 -17505857.10849  20015273.5444   20015277.4474
  20634266.603   -18409616.20149 -13942636.15649  20634265.3454   20634271.0314
  16681091.670   -75852058.69149 -58243517.27449  16681090.9814   16681094.9074
  18044890.259   -31035811.53449 -24134906.83049  18044888.8734   18044893.6464
  17637333.589   -58860412.87249 -43593038.04249  17637332.4794   17637336.8904
  20894554.004   -56393477.81249 -43926112.57649  20894553.9714   20894556.5574
  18401755.410   -83663697.29049 -65124909.76349  18401754.4114   18401759.2834
 96 12 10  1 50 59.9880000  0  7 26 15 27  7  2 31 19
  19984759.598   -22652763.05249 -17630805.22749  19984759.2294   19984762.5654
  20607602.371   -18549737.77849 -14051821.79649  20607600.7854   20607605.6134
  16664778.863   -75937783.23049 -58310315.61949  16664778.4944   16664782.3484
  18012817.679   -31204354.15049 -24266238.72349  18012816.3574   18012821.3644
  17618263.068   -58960629.39149 -43671128.82549  17618262.4714   17618266.4624
  20897409.362   -56378472.78249 -43914420.33249  20897408.5954   20897412.4224
  18396684.512   -83690344.61649 -65145673.93749  18396684.0214   18396688.7034
 96 12 10  1 51 29.9880000  0  7 26 15 27  7  2 31 19
  19954313.919   -22812756.60449 -17755475.52349  19954312.9974   19954318.0684
  20581002.073   -18689522.53249 -14160744.94149  20581000.9504   20581006.7624
  16648540.352   -76023117.37949 -58376809.76049  16648539.6964   16648543.7334
  17980811.578   -31372546.49649 -24397297.67349  17980810.0044   17980815.3954
  17599218.468   -59060710.00649 -43749113.70949  17599217.7954   17599221.5184
  20900293.690   -56363315.99449 -43902609.84949  20900292.8084   20900297.3094
  18391665.651   -83716719.30649 -65166225.66449  18391664.8654   18391669.6464
 96 12 10  1 51 59.9880000  0  7 26 15 27  7  2 31 19
  19923940.533   -22972369.30149 -17879849.02549  19923940.5734   19923943.0954
  20554471.286   -18828941.78649 -14269383.29849  20554469.2274   20554475.5684
  16632379.845   -76108041.63449 -58442984.50849  16632379.0244   16632383.0264
  17948873.963   -31540378.55149 -24528075.87549  17948872.6644   17948877.4764
  17580204.314   -59160630.18549 -43826973.57749  17580203.3094   17580207.1304
  20903210.564   -56347988.07249 -43890666.02449  20903209.2194   20903213.3444
  18386701.408   -83742806.76249 -65186553.56049  18386700.5424   18386705.0864
 96 12 10  1 52 29.9880000  0  7 26 15 27  7  2 31 19
  19893633.051   -23131635.16649 -18003952.28949  19893631.8554   19893635.9374
  20528003.635   -18968029.49249 -14377763.29749  20528002.4104   20528007.5574
  16616288.410   -76192602.85849 -58508876.35649  16616287.5734   16616291.7624
  17916995.985   -31707897.24549 -24658609.89249  17916994.5334   17916999.9384
  17561214.668   -59260421.43949 -43904732.98949  17561213.3754   17561217.7784
  20906151.958   -56332530.72249 -43878621.31549  20906150.8434   20906154.6004
  18381783.705   -83768649.66349 -65206690.89549  18381783.1364   18381787.0414
 96 12 10  1 52 59.9880000  0  7 26 15 27  7  2 31 19
  19863398.116   -23290520.11149 -18127758.72249  19863397.0064   19863400.6864
  20501607.070   -19106744.79549 -14485853.12449  20501605.6244   20501611.0194
  16600272.326   -76276767.65749 -58574459.33049  16600271.2514   16600275.5284
  17885184.159   -31875068.97549 -24788873.58749  17885183.4654   17885188.4224
  17542260.992   -59360023.76849 -43982345.19749  17542260.0464   17542264.0594
  20909124.558   -56316909.26449 -43866448.73649  20909123.7354   20909127.6814
  18376916.599   -83794226.36849 -65226620.81249  18376916.1564   18376920.4794
 96 12 10  1 53 29.9880000  0  7 26 15 27  7  2 31 19
  19833231.541   -23449046.55149 -18251285.78649  19833230.8704   19833235.9314
  20475275.610   -19245117.04349 -14593675.63349  20475273.8334   20475280.1194
  16584325.518   -76360568.45049 -58639758.64949  16584325.0814   16584328.6694
  17853433.263   -32041921.53249 -24918888.53049  17853431.9364   17853437.3924
  17523337.120   -59459469.51049 -44059835.36649  17523336.0374   17523340.4984
  20912122.662   -56301154.35049 -43854172.19649  20912121.7194   20912125.3804
  18372096.999   -83819553.35049 -65246356.13549  18372095.9434   18372101.4534
 96 12 10  1 53 59.9870000  0  7 26 15 27  7  2 31 19
  19803147.427   -23607139.74549 -18374475.26449  19803146.4874   19803151.1334
  20449024.030   -19383068.65349 -14701170.38449  20449022.8064   20449027.9024
  16568461.328   -76443935.63449 -58704720.09549  16568460.8134   16568464.4564
  17821758.613   -32208373.53049 -25048591.38449  17821758.2634   17821762.6774
  17504459.678   -59558671.08649 -44137135.30349  17504458.6154   17504463.0384
  20915159.371   -56285196.47949 -43841737.47649  20915158.4974   20915163.4074
  18367341.188   -83844545.27749 -65265830.38749  18367340.3654   18367345.8784
 96 12 10  1 54 29.9870000  0  7 26 15 27  7  2 31 19
  19773138.564   -23764836.88149 -18497356.13749  19773138.0714   19773142.4694
  20422845.509   -19520636.33249 -14808365.96049  20422843.6104   20422849.2964
  16552673.627   -76526900.49949 -58769368.04549  16552673.0234   16552676.9944
  17790158.073   -32374436.21449 -25177990.85449  17790157.2004   17790161.8484
  17485622.352   -59657661.72649 -44214270.85849  17485621.3964   17485625.8264
  20918230.235   -56269058.95149 -43829162.75249  20918228.7924   20918233.5394
  18362645.178   -83869223.49249 -65285060.18249  18362644.3864   18362649.5604
 96 12 10  1 54 59.9870000  0  6 26 15 27  7  2 19
  19743199.119   -23922169.05449 -18619952.60949  19743199.2084   19743203.0324
  20396733.776   -19657854.47749 -14915289.15849  20396732.5564   20396738.5914
  16536957.206   -76609490.96749 -58833724.24849  16536956.4334   16536960.1174
  17758627.094   -32540132.80849 -25307105.06049  17758626.2894   17758630.5444
  17466815.398   -59756492.93749 -44291282.18249  17466814.3664   17466818.7494
  18358002.321   -83893622.20849 -65304072.19049  18358001.4104   18358006.1804
 96 12 10  1 55 29.9870000  0  6 26 15 27  7  2 19
  19713348.591   -24079034.53949 -18742185.43549  19713347.5534   19713352.0074
  20370705.431   -19794635.56149 -15021871.79749  20370705.3244   20370709.5344
  16521331.811   -76691602.73749 -58897707.45149  16521331.3704   16521334.9414
  17727182.069   -32705377.35249 -25435867.02749  17727181.5384   17727185.7394
  17448051.142   -59855099.76349 -44368118.66049  17448050.2364   17448054.1954
  18353429.969   -83917649.87349 -65322795.06149  18353429.2454   18353433.3064
 96 12 10  1 55 59.9870000  0  6 26 15 27  7  2 19
  19683562.263   -24235562.79349 -18864155.48449  19683561.9744   19683565.8574
  20344736.673   -19931103.20449 -15128210.18549  20344735.8324   20344741.1174
  16505775.939   -76773349.29649 -58961406.06349  16505775.2904   16505779.2694
  17695800.087   -32870291.28249 -25564371.37449  17695799.2334   17695804.2014
  17429306.088   -59953605.97549 -44444876.73749  17429305.0834   17429309.3474
  18348902.293   -83941442.58149 -65341334.85249  18348901.0304   18348905.4534
 96 12 10  1 56 29.9870000  0  6 26 15 27  7  2 19
  19653858.489   -24391657.87749 -18985788.00349  19653859.3164   19653862.1024
  20318845.220   -20067163.94049 -15234231.50749  20318843.8974   20318849.3264
  16490309.390   -76854626.58449 -59024739.02049  16490308.6374   16490312.5734
  17664497.700   -33034787.06149 -25692549.88549  17664496.8534   17664501.3844
  17410594.273   -60051937.29849 -44521498.53749  17410593.2074   17410597.4394
  18344433.838   -83964923.86949 -65359631.98349  18344432.9234   18344437.2074
 96 12 10  1 56 59.9870000  0  6 26 15 27  7  2 19
  19624234.506   -24547333.54149 -19107093.70149  19624234.5454   19624237.8094
  20293029.021   -20202828.39849 -15339944.04949  20293027.6894   20293032.3924
  16474929.883   -76935446.32749 -59087715.44749  16474929.3444   16474933.4384
  17633269.692   -33198891.74449 -25820423.66149  17633268.4324   17633273.2214
  17391913.966   -60150102.79149 -44597991.12649  17391913.0794   17391916.8584
  18340020.493   -83988116.09849 -65377703.87049  18340020.3384   18340024.0774
 96 12 10  1 57 29.9870000  0  6 26 15 27  7  2 19
  19594689.596   -24702593.70449 -19228075.64649  19594689.7294   19594692.2104
  20267288.974   -20338092.47349 -15445344.61349  20267288.1984   20267291.9464
  16459635.349   -77015819.86849 -59150344.18849  16459634.6824   16459638.7544
  17602116.978   -33362599.99249 -25947988.51449  17602115.9194   17602120.4144
  17373268.376   -60248086.07949 -44674341.73349  17373267.2774   17373271.2774
  18335662.143   -84011019.70149 -65395550.85449  18335662.7654   18335666.4984
 96 12 10  1 57 59.9870000  0  6 26 15 27  7  2 19
  19565208.697   -24857516.97949 -19348795.07349  19565207.8684   19565211.6834
  20241612.654   -20473022.27849 -15550484.70249  20241612.0544   20241615.8144
  16444408.092   -77095839.78449 -59212697.36649  16444407.2944   16444411.1354
  17571027.751   -33525974.44049 -26075293.26049  17571026.1224   17571031.2884
  17354646.951   -60345942.45449 -44750593.44549  17354645.6094   17354649.9454
  18331346.943   -84033696.97649 -65413221.46949  18331346.8034   18331350.8154
 96 12 10  1 58 29.9870000  0  6 26 15 27  7  2 19
  19535811.035   -25012002.58249 -19469173.45149  19535810.6104   19535812.8844
  20216021.323   -20607505.61949 -15655276.90149  20216020.5704   20216025.2274
  16429266.962   -77175406.90549 -59274697.72549  16429266.0364   16429270.1984
  17540021.443   -33688913.19049 -26202258.50549  17540020.3574   17540024.8834
  17336071.317   -60443557.74649 -44826657.29449  17336070.2284   17336074.2724
  18327097.016   -84056030.89949 -65430624.54649  18327097.2154   18327101.3024
 96 12 10  1 58 59.9870000  0  6 26 15 27  7  2 19
  19506484.070   -25166116.64749 -19589262.32149  19506484.4624   19506486.7504
  20190504.326   -20741598.50149 -15759764.84949  20190503.2254   20190507.9674
  16414198.323   -77254593.09949 -59336401.24849  16414197.5974   16414201.6004
  17509085.877   -33851480.90249 -26328934.64149  17509084.5634   17509089.1024
  17317532.400   -60540980.30049 -44902570.97149  17317531.2734   17317535.5984
  18322904.804   -84078061.16949 -65447791.00549  18322904.4074   18322908.2014
 96 12 10  1 59 29.9870000  0  6 26 15 27  7  2 19
  19477224.377   -25319877.35449 -19709075.84449  19477223.5494   19477227.7634
  20165057.068   -20875324.91849 -15863967.23449  20165056.5724   20165060.7314
  16399198.114   -77333420.21349 -59397824.97349  16399197.5124   16399201.0314
  17478214.348   -34013712.06549 -26455348.52349  17478212.8354   17478217.6174
  17299024.851   -60638237.96649 -44978356.16249  17299023.5854   17299028.0164
  18318768.481   -84099798.08649 -65464728.88149  18318768.3214   18318771.6844
 96 12 10  1 59 59.9870000  0  6 26 15 27  7  2 19
  19448036.632   -25473259.81549 -19828594.64149  19448035.8754   19448039.4574
  20139684.552   -21008658.56249 -15967863.55649  20139684.1174   20139688.3534
  16384273.629   -77411849.24749 -59458938.51349  16384273.0944   16384276.9024
  17447409.850   -34175590.73149 -26581487.72049  17447408.5004   17447413.2464
  17280552.874   -60735308.76549 -45053995.73349  17280551.5734   17280555.9194
  18314693.434   -84121213.00749 -65481415.84849  18314692.7024   18314697.0624
 96 12 10  2  0 29.9870000  0  6 26 15 27  7  2 19
  19418932.542   -25626202.38049 -19947770.65749  19418932.2634   19418935.1424
  20114398.427   -21141539.13949 -16071406.82249  20114397.4924   20114401.7144
  16369438.921   -77489806.25549 -59519684.23349  16369438.3144   16369442.0264
  17416683.644   -34337057.43449 -26707305.91349  17416682.1424   17416687.1654
  17262125.882   -60832143.26549 -45129451.18049  17262125.0104   17262129.1004
  18310686.611   -84142269.03349 -65497823.14949  18310686.4564   18310690.2574
 96 12 10  2  0 59.9870000  0  6 26 15 27  7  2 19
  19389903.062   -25778753.57449 -20066641.71549  19389902.4304   19389904.7104
  20089184.170   -21274041.42049 -16174655.32549  20089182.8784   20089187.5194
  16354681.015   -77567359.48549 -59580115.31349  16354680.1314   16354684.3144
  17386024.575   -34498171.78149 -26832849.55649  17386023.3274   17386027.8204
  17243726.230   -60928834.16449 -45204794.73049  17243725.1574   17243729.6504
  18306731.444   -84163053.39349 -65514018.75949  18306730.6944   18306734.9634
 96 12 10  2  1 29.9870000  0  6 26 15 27  7  2 19
  19360968.815   -25930804.36349 -20185122.85949  19360968.8604   19360971.2854
  20064059.740   -21406070.50349 -16277535.10049  20064058.7114   20064064.0954
  16340018.296   -77644412.46349 -59640156.59749  16340017.3114   16340021.6574
  17355455.951   -34658811.10249 -26958023.03049  17355454.6294   17355459.6714
  17225369.565   -61025298.93549 -45279962.07949  17225368.4164   17225372.7914
  18302842.888   -84183488.23149 -65529942.02849  18302842.6264   18302847.1564
 96 12 10  2  1 59.9870000  0  6 26 15 27  7  2 19
  19332112.789   -26082443.62449 -20303283.30849  19332112.7274   19332115.1834
  20039007.936   -21537717.45749 -16380117.12449  20039007.1544   20039011.7714
  16325432.936   -77721058.95749 -59699881.14949  16325432.3784   16325435.8944
  17324962.834   -34819053.20749 -27082886.98649  17324961.7794   17324966.4844
  17207036.749   -61121638.48049 -45355031.84449  17207035.8674   17207040.0844
  18298999.966   -84203682.99749 -65545678.23649  18298999.8264   18299003.7834
 96 12 10  2  2 29.9870000  0  6 26 15 27  7  2 19
  19303342.086   -26233634.86949 -20421094.65049  19303342.0944   19303344.7984
  20014033.966   -21668956.20049 -16482381.04649  20014032.5544   20014038.3664
  16310929.542   -77797275.07849 -59759270.33349  16310928.8694   16310932.6044
  17294551.999   -34978862.80049 -27207413.92249  17294551.0414   17294555.8044
  17188730.737   -61217837.71149 -45429992.27849  17188729.9104   17188734.0184
  18295205.601   -84223622.67449 -65561215.66049  18295204.6934   18295208.9884
 96 12 10  2  2 59.9860000  0  6 26 15 27  7  2 19
  19274660.788   -26384356.38749 -20538539.98149  19274661.1004   19274664.5104
  19989141.663   -21799766.06949 -16584310.77249  19989140.2764   19989145.4214
  16296511.646   -77873041.83649 -59818309.36649  16296511.1304   16296514.8884
  17264225.913   -35138227.44249 -27331594.15549  17264225.3854   17264229.6704
  17170454.700   -61313879.43449 -45504829.97349  17170453.8724   17170457.6814
  18291465.093   -84243279.03749 -65576532.32849  18291464.8424   18291468.8904
 96 12 10  2  3 29.9860000  0  6 26 15 27  7  2 19
  19246056.252   -26534674.53749 -20655670.99949  19246056.5824   19246058.7144
  19964322.369   -21930193.17349 -16685942.25149  19964321.2984   19964325.8964
  16282170.834   -77948403.25749 -59877032.55349  16282169.7784   16282173.9094
  17233971.450   -35297216.04649 -27455481.36149  17233970.5704   17233974.8824
  17152202.240   -61409797.23449 -45579571.10249  17152201.1284   17152205.1324
  18287770.115   -84262696.37549 -65591662.72749  18287769.5414   18287773.7814
 96 12 10  2  3 59.9860000  0  6 26 15 27  7  2 19
  19217534.152   -26684559.43449 -20772464.42249  19217533.8184   19217537.7074
  19939583.956   -22060195.04149 -16787242.38749  19939582.4844   19939587.8924
  16267915.666   -78023314.70549 -59935405.11449  16267914.7674   16267918.5724
  17203790.926   -35455815.97849 -27579065.71049  17203789.9844   17203794.1204
  17133980.544   -61505552.92849 -45654185.92649  17133979.6834   17133983.2964
  18284126.581   -84281843.37149 -65606582.48249  18284125.9534   18284130.4224
 96 12 10  2  4 29.9860000  0  6 26 15 27  7  2 19
  19189088.242   -26834044.26949 -20888946.11149  19189088.3114   19189090.6834
  19914921.941   -22189794.50349 -16888228.97349  19914921.4374   19914926.0254
  16253738.072   -78097818.11949 -59993459.72349  16253737.1024   16253740.7884
  17173679.343   -35614053.81049 -27702367.89449  17173678.5604   17173682.7574
  17115787.181   -61601159.82949 -45728684.80049  17115786.0584   17115789.9824
  18280529.261   -84300747.15349 -65621312.71949  18280527.9344   18280532.3034
 96 12 10  2  4 59.9860000  0  6 26 15 27  7  2 19
  19160729.414   -26983070.80749 -21005070.66549  19160728.7544   19160731.7634
  19890347.632   -22318933.41849 -16988856.64149  19890346.3704   19890352.2164
  16239646.245   -78171871.28949 -60051163.49149  16239646.0774   16239649.1294
  17143646.144   -35771879.34749 -27825348.80549  17143645.1414   17143649.5514
  17097633.836   -61696556.65749 -45803019.97249  17097633.1754   17097636.5574
  18276989.686   -84319346.88649 -65635806.01449  18276988.8844   18276993.6334
 96 12 10  2  5 29.9860000  0  6 26 15 27  7  2 19
  19132453.137   -27131663.81349 -21120857.40849  19132453.1984   19132455.6654
  19865855.305   -22447641.96649 -17089149.00149  19865854.9454   19865858.5124
  16225630.956   -78245522.97649 -60108554.42149  16225630.6904   16225633.6804
  17113687.667   -35929312.69149 -27948024.12849  17113686.8214   17113690.7024
  17079516.077   -61791766.77049 -45877209.66349  17079515.1284   17079518.7004
  18273502.141   -84337673.61849 -65650086.59949  18273501.3384   18273506.1754
 96 12 10  2  5 59.9860000  0  6 26 15 27  7  2 19
  19104263.268   -27279802.38149 -21236290.02549  19104262.6344   19104265.9124
  19841447.089   -22575908.07849 -17189096.59949  19841446.2634   19841450.6334
  16211692.604   -78318770.00149 -60165630.02849  16211692.1694   16211695.2864
  17083809.678   -36086323.00949 -28070369.81249  17083808.6954   17083812.8324
  17061436.023   -61886778.31249 -45951244.62049  17061434.9144   17061438.6244
  18270069.905   -84355710.07249 -65664141.00249  18270069.2544   18270073.7034
 96 12 10  2  6 29.9860000  0  6 26 15 27  7  2 19
  19076159.189   -27427489.71449 -21351371.05149  19076158.7104   19076162.0984
  19817120.663   -22703744.22349 -17288709.15349  19817119.3644   19817123.8984
  16197826.966   -78391634.66249 -60222407.69249  16197826.6784   16197829.7434
  17054011.857   -36242911.72749 -28192386.98149  17054010.7644   17054015.3034
  17043391.190   -61981604.27349 -46025134.97249  17043389.9574   17043393.7144
  18266691.417   -84373464.88349 -65677975.93949  18266690.9834   18266696.0744
 96 12 10  2  6 59.9860000  0  6 26 15 27  7  2 19
  19048135.824   -27574752.72249 -21466121.42449  19048135.2804   19048138.7754
  19792870.439   -22831179.11549 -17388009.05449  19792869.2124   19792873.7214
  16184032.378   -78464125.83949 -60278894.32349  16184031.7884   16184034.9844
  17024289.026   -36399106.18249 -28314096.92949  17024288.0814   17024292.1764
  17025373.581   -62076286.99749 -46098913.70949  17025372.5804   17025376.3974
  18263362.761   -84390958.27149 -65691607.17149  18263362.1774   18263367.0474
 96 12 10  2  7 29.9860000  0  6 26 15 27  7  2 19
  19020205.394   -27721528.45349 -21580492.10349  19020205.2964   19020209.1314
  19768711.896   -22958133.81049 -17486934.76449  19768711.8464   19768715.0444
  16170327.099   -78536147.84649 -60335015.37149  16170326.5664   16170329.8504
  16994655.654   -36554830.57449 -28435440.59849  16994654.6154   16994658.7524
  17007397.097   -62170754.32849 -46172524.61249  17007395.8554   17007399.6104
  18260097.732   -84408116.70549 -65704977.39149  18260096.9284   18260102.2404
 96 12 10  2  7 59.9860000  0  6 26 15 27  7  2 19
  18992352.141   -27867898.50149 -21694546.67249  18992352.1184   18992354.7994
  19744631.677   -23084677.31549 -17585540.05849  19744631.3464   19744633.8074
  16156700.436   -78607756.79449 -60390814.56049  16156700.0994   16156703.1564
  16965097.474   -36710160.09249 -28556476.56549  16965096.2784   16965100.3164
  16989443.413   -62265101.34249 -46246041.75949  16989442.2144   16989445.8674
  18256882.168   -84425014.27049 -65718144.34749  18256882.1634   18256886.4714
 96 12 10  2  8 29.9860000  0  6 26 15 27  7  2 19
  18964585.391   -28013813.59349 -21808246.72349  18964585.3114   18964588.0364
  19720640.432   -23210752.57949 -17683780.48849  19720639.4054   19720641.7704
  16143165.459   -78678883.85349 -60446238.24149  16143164.7104   16143168.0244
  16935622.923   -36865049.74549 -28677169.78849  16935621.8834   16935626.0394
  16971521.959   -62359279.16049 -46319427.06749  16971520.8614   16971524.5574
  18253726.182   -84441599.54149 -65731067.94449  18253725.8594   18253731.1264
 96 12 10  2  8 59.9860000  0  6 26 15 27  7  2 19
  18936900.948   -28159296.50349 -21921610.00449  18936901.0964   18936903.5364
  19696734.619   -23336378.01549 -17781670.39349  19696734.1354   19696737.6764
  16129721.893   -78749529.91349 -60501287.12149  16129720.9074   16129724.6764
  16906228.146   -37019520.57249 -28797536.65549  16906226.9634   16906231.2304
  16953628.693   -62453308.92949 -46392697.01449  16953627.6584   16953631.3804
  18250626.030   -84457891.69949 -65743763.15549  18250625.9454   18250629.7814
 96 12 10  2  9 29.9860000  0  6 26 15 27  7  2 19
  18909296.074   -28304361.15549 -22034647.36949  18909295.8774   18909299.4534
  19672911.993   -23461566.25349 -17879219.64649  19672910.9474   19672915.2574
  16116366.453   -78819712.85949 -60555975.12749  16116365.6024   16116369.1924
  16876907.645   -37173600.52049 -28917598.93349  16876906.2414   16876911.0114
  16935759.062   -62547214.45049 -46465870.13349  16935757.9294   16935761.6334
  18247576.189   -84473919.61649 -65756252.46449  18247575.9464   18247579.4254
 96 12 10  2  9 59.9860000  0  6 26 15 27  7  2 19
  18881778.797   -28448965.57849 -22147326.13549  18881778.5274   18881781.8134
  19649177.750   -23586290.02349 -17976406.97949  19649176.7384   19649181.9484
  16103102.195   -78889416.95949 -60610290.02049  16103101.5854   16103104.7494
  16847666.454   -37327263.60049 -29037336.38549  16847665.2044   16847669.9404
  16917917.908   -62640970.37449 -46538926.69449  16917916.9204   16917920.5904
  18244580.764   -84489661.15049 -65768518.61649  18244579.8804   18244583.9724
 96 12 10  2 10 29.9860000  0  6 26 15 27  7  2 19
  18854350.782   -28593100.39849 -22259638.96849  18854350.3954   18854353.4394
  19625533.074   -23710543.62849 -18073227.93349  19625532.2574   19625536.7634
  16089928.454   -78958645.57849 -60664234.40249  16089927.8654   16089930.8374
  16818505.108   -37480507.27449 -29156747.02149  16818504.2724   16818508.3004
  16900108.974   -62734556.91349 -46611851.26549  16900107.8994   16900111.6234
  18241639.900   -84505115.18449 -65780560.74949  18241638.7664   18241643.2144
 96 12 10  2 10 59.9860000  0  6 26 15 27  7  2 19
  18827005.962   -28736797.67249 -22371610.86349  18827005.2164   18827008.9034
  19601970.962   -23834363.30249 -18169710.75849  19601969.9194   19601974.9994
  16076835.214   -79027451.26549 -60717849.22549  16076834.6694   16076837.8514
  16789416.421   -37633369.41949 -29275860.35649  16789415.1104   16789419.9944
  16882323.390   -62828020.64649 -46684680.13749  16882322.0824   16882326.2824
  18238745.242   -84520326.41649 -65792413.66849  18238744.3304   18238748.0064
 96 12 10  2 11 29.9850000  0  6 26 15 27  7  2 19
  18799751.979   -28880017.97749 -22483211.08449  18799751.0534   18799754.7924
  19578498.850   -23957709.67049 -18265824.78149  19578496.8294   19578504.0654
  16063824.435   -79095823.51449 -60771126.31849  16063823.5564   16063827.0704
  16760409.747   -37785800.23649 -29394637.60649  16760408.4814   16760412.7064
  16864569.642   -62921317.14149 -46757378.70549  16864568.2824   16864572.4354
  18235903.081   -84535261.97649 -65804051.78149  18235901.8484   18235905.9274
 96 12 10  2 11 59.9850000  0  6 26 15 27  7  2 19
  18772581.443   -29022800.00849 -22594469.80249  18772580.5034   18772585.1504
  19555109.269   -24080621.69449 -18361600.34449  19555107.0514   19555113.4504
  16050887.224   -79163808.98649 -60824102.01449  16050886.4034   16050889.8234
  16731480.803   -37937822.37449 -29513096.40349  16731479.7084   16731483.8354
  16846843.822   -63014466.60849 -46829962.70849  16846842.6644   16846846.6984
  18233108.908   -84549945.01349 -65815493.13549  18233108.1724   18233112.2824
 96 12 10  2 12 29.9850000  0  6 26 15 27  7  2 19
  18745492.631   -29165152.62149 -22705393.90949  18745492.9354   18745496.1374
  19531802.636   -24203097.96049 -18457036.38049  19531801.9954   19531806.4734
  16038024.623   -79231402.54449 -60876772.31449  16038023.5974   16038027.3574
  16702630.641   -38089430.80749 -29631232.81949  16702629.2104   16702633.6604
  16829147.687   -63107460.51949 -46902425.48349  16829146.7244   16829150.2934
  18230361.939   -84564380.32749 -65826741.44149  18230361.0544   18230365.3804
 96 12 10  2 12 59.9850000  0  6 26 15 27  7  2 19
  18718500.731   -29306996.05449 -22815921.25749  18718500.4324   18718503.6624
  19508593.700   -24325062.68749 -18552073.80149  19508593.0224   19508596.8054
  16025252.625   -79298520.02749 -60929071.66349  16025252.0194   16025255.2324
  16673875.717   -38240538.71549 -29748979.22849  16673875.0374   16673878.8354
  16811494.113   -63200230.47949 -46974713.76249  16811493.0564   16811496.6284
  18227676.777   -84578490.57149 -65837736.46649  18227676.3524   18227681.1084
 96 12 10  2 13 29.9850000  0  6 26 15 27  7  2 19
  18691585.634   -29448436.12849 -22926134.29649  18691585.3054   18691589.0934
  19485463.619   -24446612.85949 -18646788.20049  19485463.3144   19485465.9724
  16012552.797   -79365257.93449 -60981075.22549  16012551.8514   16012555.4784
  16645198.950   -38391236.28649 -29866405.88349  16645197.6094   16645201.8854
  16793867.048   -63292861.14449 -47046893.49049  16793865.9494   16793869.8904
  18225035.849   -84592368.54449 -65848550.48249  18225034.9714   18225039.7964
 96 12 10  2 13 59.9850000  0  6 26 15 27  7  2 19
  18664766.624   -29589371.04949 -23035953.71849  18664766.4414   18664770.1614
  19462431.719   -24567646.35749 -18741099.98349  19462431.3094   19462434.7384
  15999945.868   -79431507.70749 -61032698.43449  15999944.9794   15999948.5844
  16616618.695   -38541426.15549 -29983436.93749  16616617.4354   16616622.1154
  16776282.204   -63385270.15349 -47118900.50649  16776281.2024   16776285.1604
  18222457.304   -84605918.90649 -65859109.22649  18222457.1154   18222461.1884
 96 12 10  2 14 29.9850000  0  6 26 15 27  7  2 19
  18638028.767   -29729879.44049 -23145440.77349  18638028.9114   18638031.7074
  19439483.432   -24688239.83449 -18835068.91349  19439481.8374   19439486.3124
  15987418.165   -79497340.94249 -61083997.05849  15987417.3714   15987420.8434
  16588120.082   -38691187.03849 -30100133.71249  16588118.5644   16588123.1984
  16758721.181   -63477554.08149 -47190810.05349  16758720.1694   16758723.9654
  18219925.034   -84619226.15049 -65869478.52449  18219925.2184   18219928.4154
 96 12 10  2 14 59.9850000  0  6 26 15 27  7  2 19
  18611383.721   -29869900.34249 -23254547.96649  18611383.5674   18611386.4054
  19416629.334   -24808338.95449 -18928652.62049  19416628.3284   19416633.2934
  15974977.368   -79562717.80349 -61134940.07249  15974976.7044   15974980.0024
  16559715.475   -38840454.02949 -30216445.64149  16559714.3984   16559718.7354
  16741190.876   -63569676.56349 -47262593.79849  16741189.8354   16741193.5174
  18217450.390   -84632230.83749 -65879612.05749  18217449.9224   18217454.6294
 96 12 10  2 15 29.9850000  0  6 26 15 27  7  2 19
  18584822.308   -30009481.44449 -23363312.46849  18584821.7164   18584825.1874
  19393861.553   -24927985.36349 -19021883.56549  19393861.2494   19393863.8234
  15962613.548   -79627690.50149 -61185568.15149  15962613.2634   15962616.0974
  16531394.660   -38989280.91249 -30332414.62849  16531393.8144   16531397.7974
  16723682.839   -63661682.15449 -47334286.45749  16723681.9564   16723685.2064
  18215023.992   -84644982.17049 -65889548.19649  18215022.8024   18215026.7284
 96 12 10  2 15 59.9850000  0  6 26 15 27  7  2 19
  18558343.522   -30148628.56049 -23471738.79549  18558342.6074   18558345.7664
  19371177.985   -25047188.86349 -19114769.38949  19371176.8234   19371180.7784
  15950327.572   -79692254.03649 -61235877.40449  15950326.8394   15950329.9544
  16503153.608   -39137689.11249 -30448057.35949  16503152.7354   16503156.7364
  16706192.343   -63753595.64949 -47405907.35149  16706191.3444   16706194.9714
  18212643.444   -84657492.19249 -65899296.27849  18212642.6004   18212646.8344
 96 12 10  2 16 29.9850000  0  6 26 15 27  7  2 19
  18531960.926   -30287269.80649 -23579770.92549  18531960.7814   18531963.7754
  19348591.239   -25165881.78149 -19207257.38149  19348591.0294   19348594.5724
  15938133.802   -79756332.68249 -61285808.81949  15938133.3204   15938136.5074
  16475003.239   -39285620.60449 -30563328.63549  16475002.6434   16475006.2794
  16688735.210   -63845333.60049 -47477391.46149  16688734.2204   16688737.6694
  18210320.285   -84669700.54149 -65908809.30349  18210319.4184   18210324.6814
 96 12 10  2 16 59.9850000  0  6 26 15 27  7  2 19
  18505672.056   -30425418.87349 -23687419.53249  18505671.7104   18505674.7494
  19326098.727   -25284079.59849 -19299359.54949  19326097.9614   19326102.2134
  15926029.267   -79819942.59249 -61335374.98649  15926028.4204   15926031.5994
  16446935.846   -39433116.00149 -30678260.09949  16446934.7844   16446938.9884
  16671311.894   -63936893.90249 -47548737.13949  16671310.7924   16671314.2944
  18208050.461   -84681628.59149 -65918103.90849  18208049.8394   18208054.2904
 96 12 10  2 17 29.9850000  0  6 26 15 27  7  2 19
  18479476.954   -30563074.83049 -23794683.91349  18479476.2654   18479480.2944
  19303701.292   -25401779.28449 -19391073.56049  19303700.0774   19303704.3634
  15914016.946   -79883067.59749 -61384563.31049  15914016.2764   15914019.1524
  16418947.636   -39580195.04349 -30792867.13649  16418946.7604   16418950.9534
  16653924.425   -64028265.62849 -47619935.88749  16653923.0394   16653926.6414
  18205831.164   -84693290.75349 -65927191.32149  18205831.4654   18205835.9074
 96 12 10  2 17 59.9850000  0  6 26 15 27  7  2 19
  18453364.217   -30700298.07349 -23901611.08749  18453363.6824   18453367.4104
  19281387.799   -25519036.94849 -19482443.14849  19281385.4754   19281391.3874
  15902085.866   -79945765.60249 -61433418.89349  15902084.9564   15902088.3164
  16391026.630   -39726921.11949 -30907199.12649  16391025.6794   16391029.7164
  16636562.040   -64119505.38949 -47691031.79749  16636560.9784   16636564.4624
  18203650.275   -84704751.80749 -65936122.02649  18203649.4564   18203654.8734
 96 12 10  2 18 29.9850000  0  6 26 15 27  7  2 19
  18427343.073   -30837040.25149 -24008163.42849  18427343.2864   18427346.1924
  19259166.881   -25635807.82549 -19573433.42049  19259165.8474   19259171.6734
  15890240.871   -80008011.61849 -61481922.28549  15890240.2464   15890243.3584
  16363181.917   -39873246.28949 -31021218.72549  16363180.7464   16363184.9044
  16619235.294   -64210558.15749 -47761982.00149  16619234.2944   16619237.7954
  18201516.127   -84715967.25249 -65944861.34249  18201515.4134   18201519.9374
 96 12 10  2 18 59.9850000  0  6 26 15 27  7  2 19
  18401412.426   -30973307.12649 -24114345.40049  18401411.4484   18401415.1934
  19237039.559   -25752087.82649 -19664041.18149  19237038.4954   19237044.1884
  15878481.090   -80069809.88549 -61530076.78549  15878480.1974   15878483.2864
  16335415.414   -40019160.52449 -31134918.11149  16335414.2684   16335418.2294
  16601941.900   -64301435.40749 -47832795.42949  16601940.8564   16601944.3534
  18199431.254   -84726923.66849 -65953398.82849  18199431.0164   18199434.8564
 96 12 10  2 19 29.9850000  0  6 26 15 27  7  2 19
  18375569.757   -31109111.30449 -24220166.82449  18375568.9484   18375572.3574
  19215004.221   -25867884.78249 -19754272.56149  19215003.7204   19215008.2294
  15866803.993   -80131173.05949 -61577892.25249  15866803.3114   15866806.3654
  16307730.780   -40164644.33649 -31248282.10249  16307729.6644   16307733.8164
  16584676.468   -64392165.75149 -47903494.38849  16584675.5084   16584678.6674
  18197394.921   -84737624.89149 -65961737.46049  18197394.3764   18197400.2394
 96 12 10  2 19 59.9850000  0  6 26 15 27  7  2 19
  18349822.512   -31244413.89849 -24325597.39949  18349822.2024   18349826.2504
  19193067.903   -25983161.02749 -19844098.18349  19193067.5464   19193071.1984
  15855214.777   -80192074.64649 -61625348.04249  15855214.2344   15855217.1044
  16280140.493   -40309632.09249 -31361259.56149  16280139.2244   16280143.4554
  16567445.534   -64482714.84049 -47974052.10949  16567444.5174   16567448.0694
  18195418.201   -84748013.07149 -65969832.16549  18195417.4554   18195421.7174
 96 12 10  2 20 29.9840000  0  6 26 15 27  7  2 19
  18324162.349   -31379258.91049 -24430671.41549  18324161.4074   18324165.6224
  19171220.843   -26097967.83249 -19933558.00849  19171219.9314   19171224.0864
  15843703.589   -80252566.40249 -61672484.48449  15843702.7434   15843706.0784
  16252638.851   -40454153.76349 -31473873.83449  16252637.4934   16252642.0104
  16550240.405   -64573128.55349 -48044504.33649  16550239.0984   16550242.7384
  18193493.005   -84758130.42049 -65977715.83249  18193492.4274   18193497.0094
 96 12 10  2 20 59.9840000  0  6 26 15 27  7  2 19
  18298589.698   -31513644.03849 -24535387.09049  18298588.8414   18298592.5454
  19149466.488   -26212287.47349 -20022638.22749  19149465.1014   19149470.1974
  15832275.853   -80312619.52249 -61719279.12649  15832274.9544   15832278.1714
  16225230.310   -40598186.25649 -31586106.93749  16225229.0884   16225233.5204
  16533062.470   -64663399.20049 -48114845.09549  16533061.3504   16533065.0354
  18191622.324   -84767961.26549 -65985376.25249  18191622.1724   18191626.3114
 96 12 10  2 21 29.9840000  0  6 26 15 27  7  2 19
  18273106.978   -31647556.21349 -24639734.22249  18273106.6914   18273110.3374
  19127805.860   -26326114.58049 -20111334.67049  19127803.8674   19127810.1384
  15820931.955   -80372231.85449 -61765730.30049  15820930.9274   15820934.4014
  16197915.255   -40741727.77049 -31697957.45349  16197914.1574   16197918.4334
  16515913.651   -64753516.67649 -48185066.50349  16515912.5024   16515916.4234
  18189805.188   -84777510.48749 -65992817.22749  18189803.6614   18189808.6734
 96 12 10  2 21 59.9840000  0  6 26 15 27  7  2 19
  18247721.018   -31780960.00249 -24743685.21649  18247720.4764   18247723.6114
  19106244.058   -26439422.14649 -20199626.26049  19106243.8734   19106247.6304
  15809676.401   -80431379.99649 -61811819.76549  15809675.8194   15809679.0344
  16170694.286   -40884775.29249 -31809423.04349  16170693.3024   16170697.1654
  16498800.412   -64843447.06249 -48255142.12349  16498799.2994   16498803.0764
  18188045.495   -84786757.80449 -66000022.94349  18188045.3184   18188049.1394
 96 12 10  2 22 29.9840000  0  6 26 15 27  7  2 19
  18222420.143   -31913916.96049 -24847288.03049  18222420.2414   18222422.8504
  19084769.087   -26552274.03149 -20287562.78249  19084768.6304   19084771.6574
  15798499.431   -80490115.26749 -61857587.51249  15798498.4174   15798502.0254
  16143549.247   -41027423.47649 -31920577.45749  16143548.3244   16143552.2644
  16481708.332   -64933266.45849 -48325131.25649  16481707.0824   16481711.0664
  18186325.507   -84795796.03749 -66007065.73849  18186323.9704   18186329.7114
 96 12 10  2 22 59.9840000  0  6 26 15 27  7  2 19
  18197233.793   -32046272.12849 -24950421.91849  18197233.2384   18197235.5084
  19063408.960   -26664523.04149 -20375029.50749  19063407.8174   19063411.8564
  15787428.457   -80548293.12749 -61902920.91049  15787427.8014   15787431.1474
  16116504.252   -41169545.87449 -32031322.17349  16116503.2974   16116507.4494
  16464661.892   -65022845.70449 -48394933.26449  16464660.8524   16464664.4684
  18184671.223   -84804488.87449 -66013839.39549  18184670.7344   18184675.9714
 96 12 10  2 23 29.9840000  0  6 26 15 27  7  2 19
  18172137.159   -32178155.70749 -25053188.33049  18172135.9624   18172139.6064
  19042133.600   -26776325.34149 -20462148.16349  19042131.7564   19042135.8964
  15776434.005   -80606069.59949 -61947941.54249  15776433.4224   15776436.3994
  16089527.052   -41311311.98049 -32141789.25549  16089525.9034   16089530.2004
  16447631.404   -65112341.47049 -48464670.22049  16447630.3624   16447634.0764
  18183053.320   -84812990.86549 -66020464.35149  18183052.7844   18183057.2714
 96 12 10  2 23 59.9840000  0  6 26 15 27  7  2 19
  18147136.684   -32309533.36149 -25155560.52149  18147136.0894   18147139.1454
  19020951.977   -26887634.86149 -20548882.85549  19020950.4904   19020953.9774
  15765524.891   -80663397.60349 -61992612.72349  15765524.1854   15765527.4124
  16062626.877   -41452673.25149 -32251940.88749  16062625.5264   16062629.8184
  16430624.861   -65201711.47749 -48534309.18149  16430623.6164   16430627.3254
  18181480.434   -84821256.82849 -66026905.38549  18181479.7734   18181484.4174
 96 12 10  2 24 29.9840000  0  6 26 15 27  7  2 19
  18122235.607   -32440388.90749 -25257525.86349  18122234.9084   18122238.8584
  18999870.203   -26998420.74349 -20635209.46949  18999868.6354   18999872.5494
  15754708.658   -80720237.10549 -62036903.24449  15754707.8234   15754711.5524
  16035812.886   -41593581.64149 -32361739.60049  16035811.5494   16035815.8474
  16413647.843   -65290926.12349 -48603827.07549  16413646.5794   16413650.4564
  18179959.649   -84829249.03849 -66033133.07749  18179958.6574   18179963.4214
 96 12 10  2 24 59.9840000  0  6 26 15 27  7  2 19
  18097424.200   -32570773.31949 -25359124.09849  18097423.8444   18097427.5654
  18978880.175   -27108724.66149 -20721160.54349  18978879.4754   18978882.8184
  15743974.717   -80776644.15149 -62080856.79349  15743973.7244   15743977.5034
  16009080.064   -41734063.17149 -32471205.71849  16009078.9354   16009083.3444
  16396695.228   -65380012.46749 -48673245.00549  16396694.1554   16396698.0514
  18178486.673   -84836989.98549 -66039165.00349  18178485.2674   18178490.8674
 96 12 10  2 25 29.9840000  0  6 26 15 27  7  2 19
  18072699.727   -32700700.81849 -25460366.28649  18072698.7314   18072703.0394
  18957983.596   -27218536.38349 -20806728.09849  18957981.2734   18957986.6004
  15733324.089   -80832613.48949 -62124469.27049  15733323.0874   15733327.1594
  15982432.139   -41874098.50749 -32580324.15149  15982430.4144   15982435.1824
  16379769.746   -65468956.58049 -48742552.10149  16379768.6824   16379772.4364
  18177061.497   -84844479.19749 -66045000.77049  18177061.4324   18177064.4264
 96 12 10  2 25 59.9840000  0  6 26 15 27  7  2 19
  18048070.623   -32830127.00549 -25561217.85449  18048069.7314   18048074.7984
  18937193.646   -27327787.47049 -20891858.78049  18937193.2444   18937197.1764
  15722770.212   -80888074.06649 -62167685.31249  15722769.0734   15722773.2754
  15955884.958   -42013604.37349 -32689030.01149  15955883.6124   15955888.1034
  16362884.311   -65557690.26249 -48811695.23049  16362883.2024   16362887.0854
  18175696.739   -84851650.96549 -66050589.19549  18175696.3274   18175699.9774
 96 12 10  2 26 29.9840000  0  6 26 15 27  7  2 19
  18023521.622   -32959132.80249 -25661741.83949  18023521.6764   18023525.1404
  18916492.404   -27436573.77149 -20976627.31049  18916491.9754   18916495.8024
  15712294.587   -80943123.79349 -62210581.21149  15712293.8154   15712297.6814
  15929420.647   -42152674.90949 -32797396.65249  15929419.7024   15929423.6774
  16346018.706   -65646319.64949 -48880757.08749  16346017.6574   16346021.4784
  18174371.421   -84858615.04449 -66056015.76249  18174370.9154   18174375.0774
 96 12 10  2 26 59.9840000  0  6 26 15 27  7  2 19
  17999068.756   -33087633.76149 -25761872.44949  17999068.7744   17999072.8134
  18895893.485   -27544822.00349 -21060976.55449  18895892.5164   18895896.5854
  15701908.195   -80997704.71249 -62253111.80249  15701907.7154   15701910.9684
  15903051.243   -42291247.01749 -32905374.90549  15903050.1374   15903054.4324
  16329183.989   -65734786.48849 -48949692.28349  16329182.8424   16329186.4534
  18173095.645   -84865319.50249 -66061240.05049  18173093.7994   18173099.2534
 96 12 10  2 27 29.9840000  0  6 26 15 27  7  2 19
  17974708.663   -33215647.78649 -25861623.63249  17974708.4784   17974711.8804
  18875391.396   -27652561.36549 -21144929.29249  18875389.8894   18875395.3524
  15691607.602   -81051834.55949 -62295290.90349  15691606.7574   15691610.7844
  15876769.018   -42429361.00849 -33012996.17749  15876767.5734   15876772.5174
  16312372.665   -65823130.40249 -49018531.68849  16312371.5304   16312375.3214
  18171861.606   -84871804.70049 -66066293.47249  18171860.8134   18171865.9914
 96 12 10  2 27 59.9840000  0  6 26 15 27  7  2 19
  17950453.462   -33343110.43149 -25960945.17149  17950453.1104   17950456.3394
  18854994.214   -27759749.54949 -21228452.52849  18854993.8394   18854998.3484
  15681400.459   -81105473.87149 -62337087.78149  15681400.0234   15681403.5214
  15850581.247   -42566978.31449 -33120230.42849  15850579.7724   15850584.4834
  16295593.511   -65911305.18949 -49087239.30849  16295592.1164   16295596.2344
  18170679.134   -84878018.39249 -66071135.33349  18170679.1214   18170683.5884
 96 12 10  2 28 29.9840000  0  6 26 15 27  7  2 19
  17926291.023   -33470085.07849 -26059886.45149  17926290.4374   17926293.7934
  18834688.571   -27866456.36149 -21311600.68349  18834687.0374   18834692.3204
  15671269.539   -81158712.52549 -62378572.45849  15671269.0764   15671272.6024
  15824472.053   -42704182.23349 -33227142.56249  15824470.8774   15824475.4734
  16278833.364   -65999380.02849 -49155869.04749  16278831.9794   16278836.2224
  18169534.155   -84884035.04649 -66075823.66149  18169533.6144   18169537.8394
 96 12 10  2 28 59.9830000  0  6 26 15 27  7  2 19
  17902230.474   -33596524.01249 -26158410.29149  17902229.5144   17902232.5224
  18814485.303   -27972625.30449 -21394329.71649  18814483.7544   18814487.7884
  15661223.790   -81211503.47349 -62419708.26749  15661223.2714   15661226.6974
  15798452.052   -42840917.75249 -33333689.70349  15798450.9904   15798455.3944
  16262105.420   -66087286.02049 -49224367.22049  16262104.3694   16262108.3684
  18168437.426   -84889797.75349 -66080314.09549  18168436.6134   18168441.4824
 96 12 10  2 29 29.9830000  0  6 26 15 27  7  2 19
  17878264.583   -33722465.17849 -26256546.25749  17878264.6454   17878268.4334
  18794377.887   -28078290.31749 -21476666.07349  18794375.4154   18794381.3334
  15651257.452   -81263876.51549 -62460518.43649  15651256.4614   15651260.7324
  15772516.862   -42977208.09349 -33439889.94949  15772515.7954   15772520.2834
  16245407.056   -66175036.67649 -49292744.34749  16245406.0794   16245409.8824
  18167384.268   -84895332.01549 -66084626.52149  18167383.8024   18167389.1454
 96 12 10  2 29 59.9830000  0  6 26 15 27  7  2 19
  17854396.363   -33847893.23449 -26354282.39149  17854396.0994   17854399.4274
  18774370.461   -28183429.24849 -21558592.49749  18774369.4254   18774373.5284
  15641371.924   -81315824.87649 -62500997.68749  15641371.1644   15641375.2864
  15746674.189   -43113012.18849 -33545711.31049  15746673.2054   15746677.6314
  16228741.317   -66262616.08649 -49360988.04249  16228740.4074   16228744.0984
  18166376.169   -84900629.85049 -66088754.72749  18166376.7994   18166380.4724
 96 12 10  2 30 29.9830000  0  6 26 15 27  7  2 19
  17830625.070   -33972812.12449 -26451621.78849  17830624.8354   17830628.1904
  18754463.254   -28288041.95649 -21640108.86149  18754461.9764   18754465.8824
  15631569.206   -81367338.23449 -62541137.97849  15631568.5204   15631572.8554
  15720924.666   -43248326.82949 -33651151.27549  15720923.7014   15720927.8094
  16212105.681   -66350037.17049 -49429108.36249  16212104.8334   16212108.5284
  18165411.707   -84905699.11549 -66092704.82949  18165411.7074   18165416.0434
 96 12 10  2 30 59.9830000  0  6 26 15 27  7  2 19
  17806954.480   -34097202.06449 -26548549.01949  17806954.5124   17806957.4104
  18734658.044   -28392118.95949 -21721207.80949  18734656.7274   18734661.8354
  15621855.144   -81418386.03749 -62580915.50249  15621854.4054   15621858.3674
  15695269.027   -43383148.37349 -33756207.01249  15695268.0924   15695271.8334
  16195501.744   -66437291.44449 -49497098.70449  16195500.4984   16195504.5444
  18164493.059   -84910527.76049 -66096467.44249  18164492.6034   18164496.8334
 96 12 10  2 31 29.9830000  0  6 26 15 27  7  2 19
  17783380.296   -34221085.55849 -26645081.60849  17783379.9424   17783383.7044
  18714948.791   -28495691.72349 -21801913.81749  18714946.7824   18714951.7584
  15612226.484   -81468985.13849 -62620343.38249  15612225.8514   15612229.7154
  15669699.649   -43517516.42549 -33860909.36949  15669698.7034   15669702.5454
  16178921.852   -66524419.16649 -49564990.42949  16178920.7164   16178924.6604
  18163617.271   -84915130.79649 -66100054.24549  18163616.8504   18163621.5194
 96 12 10  2 31 59.9830000  0  6 26 15 27  7  2 19
  17759915.994   -34344391.24549 -26741163.94849  17759915.3364   17759919.5744
  18695350.527   -28598680.76749 -21882165.01249  18695349.4694   18695353.1704
  15602699.584   -81519049.32849 -62659354.44749  15602699.0164   15602702.8914
  15644228.076   -43651370.77149 -33965211.44249  15644226.8674   15644230.8094
  16162378.638   -66611354.02649 -49632731.87449  16162377.4194   16162381.5784
  18162802.965   -84919410.42049 -66103389.04249  18162801.8344   18162807.0574
 96 12 10  2 32 29.9830000  0  6 26 15 27  7  2 19
  17736540.497   -34467230.14649 -26836882.55449  17736540.0394   17736543.9194
  18675843.065   -28701192.10249 -21962043.96149  18675841.0744   18675846.2694
  15593254.937   -81568681.48649 -62698028.86149  15593254.1454   15593258.5104
  15618830.627   -43784835.39849 -34069209.83849  15618829.4394   15618833.4744
  16145854.684   -66698187.95849 -49700394.66949  16145853.5484   16145857.5074
  18162031.286   -84923465.33649 -66106548.73049  18162029.8984   18162035.0584
 96 12 10  2 32 59.9830000  0  6 26 15 27  7  2 19
  17713262.474   -34589557.36649 -26932202.47149  17713262.0544   17713265.5234
  18656437.491   -28803168.50149 -22041506.07449  18656436.1084   18656442.0404
  15583900.622   -81617838.45749 -62736332.99949  15583899.7814   15583904.1914
  15593516.466   -43917862.32249 -34172867.17449  15593515.5044   15593519.2634
  16129361.187   -66784861.77049 -49767932.69849  16129360.0164   16129363.8594
  18161312.334   -84927242.90849 -66109492.31149  18161310.6964   18161316.1044
 96 12 10  2 33 29.9830000  0  6 26 15 27  7  2 19
  17690070.184   -34711433.96449 -27027171.24649  17690070.4094   17690073.3424
  18637126.507   -28904648.16549 -22120581.13749  18637125.1274   18637131.0114
  15574626.009   -81666576.99349 -62774311.08749  15574625.4914   15574629.4764
  15568280.846   -44050476.83449 -34276203.14549  15568279.9344   15568283.4884
  16112887.622   -66871431.13949 -49835389.34649  16112886.7214   16112890.5614
  18160636.601   -84930793.56949 -66112259.07249  18160635.4144   18160641.4904
 96 12 10  2 33 59.9830000  0  6 26 15 27  7  2 19
  17666973.313   -34832808.85349 -27121749.07649  17666972.9594   17666976.4384
  18617922.239   -29005567.37849 -22199219.47049  18617921.8614   18617926.5284
  15565439.433   -81714852.90349 -62811928.69349  15565438.7114   15565442.5424
  15543137.960   -44182603.64949 -34379159.09449  15543136.8804   15543140.7144
  16096442.106   -66957853.18249 -49902731.19349  16096441.1864   16096444.9134
  18160009.609   -84934088.33549 -66114826.43949  18160009.2674   18160013.6224
 96 12 10  2 34 29.9830000  0  6 26 15 27  7  2 19
  17643964.416   -34953721.70849 -27215966.87649  17643963.7684   17643967.4274
  18598815.762   -29105973.15649 -22277457.73249  18598815.0984   18598819.3014
  15556330.329   -81762721.67949 -62849229.04749  15556329.6674   15556333.5864
  15518079.847   -44314284.95549 -34481767.89249  15518078.7884   15518082.9654
  16080012.719   -67044190.19349 -49970006.78449  16080011.7204   16080015.5054
  18159417.764   -84937198.63849 -66117250.07249  18159417.0874   18159421.7664
 96 12 10  2 34 59.9830000  0  6 26 15 27  7  2 19
  17621047.549   -35074150.33749 -27309807.35349  17621047.2134   17621050.5894
  18579810.816   -29205845.32349 -22355280.19149  18579809.9054   18579815.9154
  15547302.773   -81810162.02449 -62886195.56649  15547302.1974   15547305.8944
  15493111.523   -44445494.19149 -34584008.84149  15493110.6334   15493114.5344
  16063599.494   -67130442.14249 -50037216.09349  16063598.3824   16063602.2734
  18158864.889   -84940104.43349 -66119514.34449  18158864.7204   18158869.2754
 96 12 10  2 35 29.9830000  0  6 26 15 27  7  2 19
  17598236.025   -35194025.90649 -27403216.89449  17598235.7054   17598238.9124
  18560917.124   -29305132.36749 -22432646.71449  18560916.8054   18560921.3654
  15538368.396   -81857112.66149 -62922780.48949  15538367.5724   15538371.5564
  15468244.474   -44576171.32149 -34685835.16349  15468243.0284   15468247.3734
  16047213.531   -67216550.90449 -50104313.82549  16047212.5064   16047216.5684
  18158360.497   -84942755.46649 -66121580.10049  18158359.1504   18158364.3734
 96 12 10  2 35 59.9830000  0  6 26 15 27  7  2 19
  17575518.229   -35313408.72249 -27496242.46249  17575518.0024   17575521.5114
  18542120.154   -29403911.25749 -22509617.27549  18542119.2484   18542123.2884
  15529513.957   -81903643.07249 -62959037.95949  15529513.2024   15529517.0304
  15443462.681   -44706400.38749 -34787312.34749  15443461.2844   15443465.7934
  16030845.554   -67302565.33149 -50171338.05049  16030844.5274   16030848.3284
  18157890.651   -84945224.33349 -66123503.91849  18157889.8244   18157894.0484
 96 12 10  2 36 29.9830000  0  6 26 15 27  7  2 19
  17552899.720   -35432269.56849 -27588861.29349  17552899.2314   17552903.0114
  18523424.318   -29502158.40949 -22586173.48549  18523423.1714   18523427.0514
  15520745.655   -81949720.91749 -62994942.78049  15520744.9924   15520748.9004
  15418769.127   -44836165.83449 -34888428.26949  15418768.0694   15418772.2604
  16014506.742   -67388426.39749 -50238242.77349  16014505.8084   16014509.7184
  18157463.925   -84947466.40949 -66125251.00249  18157462.8604   18157467.2004
 96 12 10  2 36 59.9830000  0  6 26 15 27  7  2 19
  17530383.708   -35550591.16649 -27681059.93049  17530382.8684   17530387.5124
  18504832.348   -29599859.65749 -22662304.30849  18504831.2124   18504835.3084
  15512066.134   -81995332.59849 -63030484.35749  15512065.6404   15512069.2874
  15394168.921   -44965440.70849 -34989161.92349  15394167.6994   15394171.9834
  15998202.775   -67474104.08849 -50305004.60549  15998201.4464   15998205.6384
  18157084.349   -84949460.37149 -66126804.76349  18157083.6234   18157088.3454
 96 12 10  2 37 29.9820000  0  6 26 15 27  7  2 19
  17507967.578   -35668388.29449 -27772849.88349  17507966.7574   17507971.1154
  18486341.314   -29697030.70549 -22738022.00849  18486341.1824   18486343.5374
  15503470.129   -82040505.11549 -63065683.73349  15503469.3324   15503473.3194
  15369659.181   -45094240.20049 -35089525.15649  15369658.1674   15369662.1794
  15981931.497   -67559610.13649 -50371632.68949  15981930.3904   15981934.4694
  18156745.477   -84951240.04949 -66128191.53949  18156744.1984   18156747.9004
 96 12 10  2 37 59.9820000  0  6 26 15 27  7  2 19
  17485651.294   -35785661.06549 -27864231.26249  17485651.1364   17485655.2994
  18467954.829   -29793652.82149 -22813311.94649  18467953.6224   18467956.5224
  15494960.580   -82085222.83149 -63100528.71349  15494959.9024   15494964.0484
  15345243.483   -45222545.77449 -35189503.51949  15345242.3804   15345246.4904
  15965694.524   -67644935.59849 -50438120.05449  15965693.1214   15965697.4564
  18156450.959   -84952787.46249 -66129397.34449  18156449.8914   18156455.0504
 96 12 10  2 38 29.9820000  0  6 26 15 27  7  2 19
  17463436.006   -35902403.65349 -27955199.50849  17463436.3354   17463439.1304
  18449675.775   -29889710.17449 -22888161.82449  18449674.2864   18449678.7574
  15486539.686   -82129474.87349 -63135010.84049  15486538.9724   15486543.1714
  15320926.462   -45350332.61449 -35289077.67449  15320925.4944   15320929.4234
  15949489.410   -67730093.72349 -50504477.03549  15949488.0494   15949492.4264
  18156202.239   -84954094.49349 -66130415.82649  18156202.2034   18156204.9364
 96 12 10  2 38 59.9820000  0  6 26 15 27  7  2 19
  17441315.486   -36018647.99149 -28045779.52549  17441315.7584   17441318.6604
  18431498.829   -29985230.06249 -22962592.88349  18431497.5104   18431500.6994
  15478203.400   -82173282.74449 -63169146.86549  15478202.5534   15478206.8184
  15296701.758   -45477634.42149 -35388273.89049  15296700.5854   15296705.2034
  15933307.151   -67815131.76649 -50570740.45549  15933306.2724   15933310.1384
  18155991.980   -84955199.59849 -66131276.96649  18155989.8004   18155995.7124
 96 12 10  2 39 29.9820000  0  6 26 15 27  7  2 19
  17419286.890   -36134409.09449 -28135982.97449  17419286.7394   17419290.5954
  18413423.483   -30080216.75549 -23036608.47549  18413422.2734   18413426.6514
  15469952.466   -82216641.73149 -63202933.09049  15469951.7554   15469955.6064
  15272564.613   -45604475.99449 -35487111.46549  15272563.6944   15272567.6714
  15917146.527   -67900056.61849 -50636915.65749  15917145.5994   15917149.3974
  18155820.320   -84956101.69049 -66131979.92749  18155821.6764   18155827.6394
 96 12 10  2 39 59.9820000  0  6 26 15 27  7  2 19
  17397343.207   -36249723.76349 -28225838.54749  17397342.9504   17397346.8704
  18395441.652   -30174712.90249 -23110241.81949  18395441.0814   18395445.1934
  15461779.439   -82259591.48449 -63236400.43149  15461778.8734   15461782.5164
  15248505.887   -45730905.56549 -35585627.98749  15248505.0204   15248508.7174
  15901000.975   -67984902.36249 -50703029.20949  15901000.0374   15901003.9424
  18155683.355   -84956821.75349 -66132541.01449  18155683.3224   18155687.6894
 96 12 10  2 40 29.9820000  0  6 26 15 27  7  2 19
  17375506.472   -36364476.65749 -28315256.38049  17375506.1574   17375509.5174
  18377571.909   -30268618.95749 -23183415.36149  18377571.0224   18377575.1094
  15453704.072   -82302028.02349 -63269467.88049  15453703.6344   15453707.1264
  15224542.253   -45856835.49449 -35683755.19649  15224541.1394   15224545.1624
  15884890.565   -68069563.34649 -50768998.80549  15884889.5504   15884893.5844
  18155603.697   -84957240.60349 -66132867.40649  18155603.4574   18155607.3474
 96 12 10  2 40 59.9820000  0  6 26 15 27  7  2 19
  17353778.508   -36478657.73749 -28404228.64849  17353778.0694   17353781.5474
  18359814.667   -30361933.37449 -23256127.87849  18359814.0154   18359818.3194
  15445725.604   -82343955.39749 -63302138.57749  15445725.0174   15445728.6354
  15200673.225   -45982268.24949 -35781494.99449  15200671.9944   15200676.0294
  15868817.759   -68154026.51549 -50834814.25649  15868816.6574   15868820.7084
  18155582.473   -84957352.25349 -66132954.43249  18155582.1124   18155586.7954
 96 12 10  2 41 29.9820000  0  6 26 15 27  7  2 19
  17332148.938   -36592322.19249 -28492798.34849  17332148.5834   17332152.2914
  18342157.454   -30454722.17249 -23328430.82849  18342155.1304   18342161.2534
  15437827.327   -82385461.41249 -63334480.93349  15437826.5654   15437830.2054
  15176887.813   -46107260.90649 -35878891.85549  15176886.4004   15176890.3304
  15852770.758   -68238354.37449 -50900524.27049  15852769.6364   15852773.4994
  18155606.009   -84957228.52049 -66132858.04149  18155605.6764   18155610.0754
 96 12 10  2 41 59.9820000  0  6 26 15 27  7  2 19
  17310617.492   -36705471.02749 -28580966.26049  17310617.1594   17310620.8494
  18324599.328   -30546990.14149 -23400327.92549  18324597.6054   18324603.4814
  15430006.730   -82426559.08649 -63366505.10949  15430006.1794   15430009.6274
  15153187.730   -46231805.11149 -35975939.27449  15153186.4274   15153190.2694
  15836748.835   -68322550.22749 -50966131.42549  15836747.6484   15836751.6454
  18155669.468   -84956895.05549 -66132598.21549  18155668.7524   18155674.2334
 96 12 10  2 42 29.9820000  0  6 26 15 27  7  2 19
  17289187.917   -36818084.12849 -28668716.74349  17289187.6044   17289191.0534
  18307145.095   -30638712.07249 -23471799.56049  18307144.5284   18307149.2504
  15422269.141   -82467220.85149 -63398189.61349  15422268.3864   15422272.0364
  15129578.743   -46355871.07749 -36072614.03949  15129577.5314   15129581.7414
  15820755.282   -68406596.83049 -51031622.27649  15820753.7804   15820757.7624
  18155772.099   -84956355.97249 -66132178.18149  18155771.4314   18155776.7974
 96 12 10  2 42 59.9820000  0  6 26 15 27  7  2 19
  17267859.338   -36930166.50549 -28756053.66049  17267859.3504   17267862.7554
  18289795.339   -30729885.58749 -23542843.83449  18289794.6094   18289799.8014
  15414614.330   -82507447.20949 -63429534.83949  15414613.5454   15414617.4744
  15106061.755   -46479453.60349 -36168912.10049  15106060.7624   15106064.7854
  15804789.222   -68490498.46549 -51097000.16949  15804788.0034   15804791.8504
  18155908.079   -84955641.51749 -66131621.49249  18155908.2564   18155912.6454
 96 12 10  2 43 29.9820000  0  6 26 15 27  7  2 19
  17246628.639   -37041734.52349 -28842989.77949  17246628.2884   17246631.9404
  18272547.744   -30820522.48849 -23613469.98849  18272547.0094   18272551.6594
  15407041.199   -82547243.87849 -63460545.24849  15407040.4884   15407044.2594
  15082633.973   -46602567.53349 -36264845.02449  15082632.9704   15082637.0514
  15788848.365   -68574267.84349 -51162275.00949  15788847.0494   15788850.9714
  18156073.619   -84954772.09549 -66130944.02249  18156073.2024   18156078.1054
 96 12 10  2 43 59.9820000  0  6 26 15 27  7  2 19
  17225495.447   -37152790.35049 -28929526.79949  17225495.0484   17225498.7294
  18255403.461   -30910616.96449 -23683673.47749  18255402.6284   18255406.9974
  15399553.920   -82586589.92349 -63491204.52049  15399553.4714   15399556.8984
  15059297.899   -46725199.36249 -36360402.28149  15059296.7664   15059300.9994
  15772932.553   -68657905.91649 -51227447.52849  15772931.6674   15772935.5524
  18156271.506   -84953733.05949 -66130134.40949  18156271.3954   18156274.6124
 96 12 10  2 44 29.9820000  0  6 26 15 27  7  2 19
  17204464.488   -37263308.98149 -29015645.21649  17204463.9174   17204468.0404
  18238366.119   -31000149.20149 -23753438.85149  18238365.0634   18238369.5954
  15392156.449   -82625463.89549 -63521495.93549  15392155.7024   15392159.3714
  15036057.122   -46847330.21449 -36455569.16749  15036055.7754   15036060.0724
  15757043.093   -68741405.92949 -51292512.47149  15757041.9774   15757046.0474
  18156506.943   -84952496.48949 -66129170.86049  18156505.9524   18156510.3474
 96 12 10  2 44 59.9820000  0  6 26 15 27  7  2 19
  17183529.889   -37373320.72349 -29101368.65949  17183528.8714   17183532.5904
  18221432.048   -31089137.59849 -23822780.45349  18221430.9564   18221433.6844
  15384844.203   -82663889.94449 -63551438.32949  15384843.4644   15384847.3414
  15012908.399   -46968977.18649 -36550359.01049  15012907.2714   15012911.4904
  15741176.107   -68824787.50549 -51357485.13449  15741175.2514   15741178.9114
  18156779.322   -84951065.52749 -66128055.84049  18156779.4234   18156784.3554
 96 12 10  2 45 29.9820000  0  6 26 15 27  7  2 19
  17162695.834   -37482803.90649 -29186680.21549  17162695.3034   17162698.6564
  18204606.373   -31177557.06349 -23891678.74249  18204605.0444   18204609.9914
  15377620.586   -82701850.45749 -63581017.95049  15377619.8454   15377623.1554
  14989857.633   -47090109.85749 -36644748.08749  14989856.5884   14989860.8354
  15725336.272   -68908026.39649 -51422346.60249  15725335.0574   15725339.2874
  18157097.993   -84949391.11849 -66126751.12049  18157097.5934   18157100.8894
 96 12 10  2 45 59.9820000  0  6 26 15 27  7  2 19
  17141965.366   -37591743.44349 -29271568.16849  17141964.9554   17141968.7264
  18187890.389   -31265400.46049 -23960128.13549  18187888.4674   18187893.9254
  15370486.641   -82739339.63249 -63610230.30449  15370485.8644   15370489.4994
  14966903.266   -47210736.13549 -36738742.57849  14966902.1094   14966906.2214
  15709522.637   -68991127.63349 -51487100.81149  15709521.3354   15709525.6784
  18157464.947   -84947463.14549 -66125248.82949  18157464.3594   18157468.8864
 96 12 10  2 46 29.9810000  0  6 26 15 27  7  2 19
  17121334.405   -37700160.21649 -29356048.76949  17121334.5574   17121337.4224
  18171280.031   -31352688.87849 -24028145.07449  18171279.1254   18171283.1294
  15363434.832   -82776397.22149 -63639106.35649  15363434.3264   15363437.7674
  14944038.220   -47330892.63749 -36832371.01349  14944037.2384   14944041.2864
  15693730.899   -69074113.28749 -51551764.95749  15693729.4974   15693734.0864
  18157873.725   -84945315.08249 -66123575.03449  18157872.3774   18157877.5864
 96 12 10  2 46 59.9810000  0  6 26 15 27  7  2 19
  17100793.395   -37808104.09749 -29440160.90149  17100792.4484   17100796.7254
  18154765.549   -31439473.59549 -24095769.53149  18154764.5484   18154769.3964
  15356454.258   -82813080.61849 -63667690.82849  15356453.5384   15356456.9814
  14921251.524   -47450637.49049 -36925678.67749  14921250.4934   14921254.6324
  15677951.826   -69157032.55149 -51616377.36949  15677950.4614   15677954.9244
  18158316.089   -84942990.30149 -66121763.56149  18158314.3314   18158319.4624
 96 12 10  2 47 29.9810000  0  6 26 15 27  7  2 19
  17080363.369   -37915464.37949 -29523818.28049  17080362.5514   17080366.4914
  18138364.417   -31525662.08249 -24162929.40549  18138363.7724   18138368.5654
  15349562.829   -82849295.36049 -63695910.13449  15349561.7604   15349565.4714
  14898558.900   -47569887.61249 -37018600.85749  14898557.5234   14898562.2814
  15662203.638   -69239789.66849 -51680863.45249  15662202.6034   15662206.3834
  18158808.910   -84940400.20549 -66119745.35049  18158807.9094   18158812.1564
 96 12 10  2 47 59.9810000  0  6 26 15 27  7  2 19
  17060032.775   -38022302.17149 -29607068.49749  17060032.7554   17060036.4904
  18122064.780   -31611317.21149 -24229673.65749  18122063.4274   18122068.1484
  15342749.989   -82885097.00849 -63723807.53149  15342749.4864   15342752.2754
  14875948.884   -47688703.40649 -37111184.58249  14875947.5664   14875952.0494
  15646476.544   -69322436.18949 -51745263.33249  15646475.9104   15646479.4614
  18159337.540   -84937622.23049 -66117580.70849  18159336.4134   18159339.3274
 96 12 10  2 48 29.9810000  0  6 26 15 27  7  2 19
  17039807.788   -38128585.13749 -29689886.36749  17039806.9874   17039811.4374
  18105875.358   -31696393.61349 -24295966.93349  18105874.8744   18105878.2624
  15336024.810   -82920438.00449 -63751345.97049  15336024.2714   15336027.7144
  14853433.065   -47807024.33549 -37203382.68649  14853431.8634   14853436.3234
  15630782.845   -69404907.22649 -51809526.46149  15630781.8654   15630785.6654
  18159909.143   -84934618.11749 -66115239.85849  18159907.9674   18159914.0354
 96 12 10  2 48 59.9810000  0  6 26 15 27  7  2 19
  17019677.494   -38234370.61349 -29772316.60449  17019677.2134   17019680.7904
  18089788.133   -31780933.01449 -24361841.76649  18089786.9014   18089791.1874
  15329384.276   -82955334.44949 -63778538.02149  15329383.3594   15329387.1934
  14831003.480   -47924892.62149 -37295228.09249  14831002.6214   14831006.8534
  15615118.272   -69487225.28949 -51873670.40349  15615117.0794   15615121.1904
  18160516.378   -84931427.05049 -66112753.33249  18160516.6064   18160520.2834
 96 12 10  2 49 29.9810000  0  6 26 15 27  7  2 19
  16999644.393   -38339645.01249 -29854348.60449  16999643.8814   16999648.1914
  18073810.276   -31864895.95649 -24427267.41849  18073808.5634   18073812.6014
  15322836.891   -82989740.99049 -63805348.31749  15322836.0414   15322839.4714
  14808665.591   -48042279.09449 -37386698.05649  14808664.2454   14808668.8894
  15599492.313   -69569340.34849 -51937656.15549  15599491.2074   15599495.2904
  18161165.969   -84928013.64849 -66110093.55049  18161165.4174   18161170.3564
 96 12 10  2 49 59.9810000  0  6 26 15 27  7  2 19
  16979715.352   -38444372.81349 -29935954.68849  16979715.6274   16979718.6794
  18057951.588   -31948232.36849 -24492204.87849  18057950.3514   18057956.0154
  15316389.880   -83023620.23049 -63831747.73449  15316389.2444   15316393.1684
  14786430.271   -48159126.44249 -37477747.92849  14786429.0284   14786433.6924
  15583913.976   -69651205.25549 -52001446.99049  15583913.0914   15583916.9504
  18161866.201   -84924334.12449 -66107226.39949  18161866.0024   18161868.5674
 96 12 10  2 50 29.9810000  0  6 26 15 27  7  2 19
  16959865.338   -38548685.82649 -30017237.55149  16959864.7204   16959869.1294
  18042188.070   -32031069.98349 -24556753.65749  18042186.8144   18042192.4514
  15310017.576   -83057107.01949 -63857841.34149  15310016.6464   15310020.6014
  14764272.283   -48275567.13749 -37568480.92849  14764271.0384   14764275.5194
  15568356.652   -69732959.46349 -52065151.56249  15568355.5724   15568359.5224
  18162593.991   -84920510.43049 -66104246.93249  18162595.0374   18162596.2804
 96 12 10  2 50 59.9810000  0  6 26 15 27  7  2 19
  16940110.089   -38652500.47649 -30098132.08549  16940109.7464   16940114.0134
  18026533.184   -32113337.64349 -24620858.32849  18026532.0124   18026536.5124
  15303729.914   -83090148.88449 -63883588.26049  15303728.9194   15303732.6264
  14742204.636   -48391533.45549 -37658844.28549  14742203.7354   14742207.9474
  15552829.787   -69814553.75849 -52128731.54149  15552828.7814   15552832.6394
  18163363.131   -84916469.12449 -66101097.87449  18163363.0454   18163365.1874
 96 12 10  2 51 29.9810000  0  6 26 15 27  7  2 19
  16920448.425   -38755823.11749 -30178643.22749  16920447.8584   16920451.0244
  18010979.487   -32195072.95949 -24684548.17749  18010978.2394   18010983.8804
  15297513.894   -83122814.23449 -63909041.78649  15297513.2024   15297516.7624
  14720222.920   -48507048.57549 -37748856.05349  14720221.9924   14720226.0334
  15537322.925   -69896043.08249 -52192229.71149  15537321.9564   15537325.8524
  18164166.138   -84912250.01549 -66097810.27049  18164165.5004   18164168.9784
 96 12 10  2 51 59.9810000  0  6 26 15 27  7  2 19
  16900900.305   -38858549.14249 -30258689.48449  16900899.9504   16900902.8774
  17995540.855   -32276203.07249 -24747766.43249  17995540.6964   17995543.9304
  15291384.163   -83155025.99749 -63934141.87749  15291383.3764   15291387.0674
  14698343.153   -48622027.52649 -37838450.03149  14698342.0304   14698346.2574
  15521847.437   -69977367.66349 -52255599.51749  15521846.6394   15521850.1444
  18165013.779   -84907796.25449 -66094339.82549  18165012.4444   18165016.2814
 96 12 10  2 52 29.9810000  0  6 26 15 27  7  2 19
  16881453.071   -38960745.09349 -30338322.71649  16881452.7734   16881455.9904
  17980201.051   -32356814.58449 -24810580.58349  17980200.1664   17980204.3024
  15285327.967   -83186851.30249 -63958940.84549  15285326.9384   15285331.1584
  14676546.834   -48736567.94049 -37927702.31149  14676545.5594   14676550.0884
  15506386.900   -70058613.27549 -52318907.80349  15506385.5634   15506389.6714
  18165885.609   -84903215.24749 -66090770.24149  18165885.6794   18165890.1244
 96 12 10  2 52 59.9810000  0  6 26 15 27  7  2 19
  16862111.087   -39062388.13349 -30417525.06749  16862110.4944   16862114.0434
  17964962.633   -32436893.25949 -24872979.53449  17964961.8064   17964966.7484
  15279347.393   -83218279.61749 -63983430.43249  15279346.9184   15279350.4854
  14654837.437   -48850651.41549 -38016598.49949  14654836.3584   14654840.7394
  15490943.982   -70139766.27549 -52382143.88049  15490942.6844   15490946.6914
  18166781.815   -84898505.68949 -66087100.45049  18166779.8704   18166786.3444
 96 12 10  2 53 29.9810000  0  6 26 15 27  7  2 19
  16842888.450   -39163403.85449 -30496238.63049  16842887.5324   16842891.6124
  17949840.048   -32516362.98449 -24934903.99849  17949839.5254   17949843.1374
  15273460.507   -83249215.59449 -64007536.39549  15273459.5344   15273463.5914
  14633229.155   -48964203.53449 -38105080.66349  14633228.0074   14633232.0894
  15475534.051   -70220745.80249 -52445244.80949  15475532.9314   15475536.7984
  18167716.307   -84893594.45649 -66083273.53949  18167715.0134   18167720.3154
 96 12 10  2 53 59.9810000  0  6 26 15 27  7  2 19
  16823770.336   -39263869.73649 -30574523.74049  16823770.2464   16823773.8614
  17934821.711   -32595285.23849 -24996401.84749  17934820.8224   17934824.8064
  15267659.432   -83279700.29349 -64031290.72249  15267658.5204   15267662.6594
  14611709.029   -49077292.30949 -38193201.77449  14611707.8554   14611712.2614
  15460143.188   -70301625.17149 -52508267.68949  15460142.1564   15460146.0684
  18168677.440   -84888542.98349 -66079337.35049  18168674.8884   18168680.7404
 96 12 10  2 54 29.9810000  0  6 26 15 27  7  2 19
  16804750.857   -39363817.28849 -30652404.95349  16804750.5134   16804754.4654
  17919905.786   -32673669.78449 -25057480.70549  17919904.4684   17919908.7464
  15261939.989   -83309756.07149 -64054710.82249  15261939.4094   15261942.9294
  14590276.999   -49189918.13449 -38280962.14249  14590275.9924   14590280.3614
  15444770.333   -70382410.35349 -52571217.17849  15444769.1594   15444773.2054
  18169668.601   -84883333.57449 -66075278.08949  18169668.6404   18169672.2024
 96 12 10  2 54 59.9800000  0  6 26 15 27  7  2 19
  16785842.729   -39463180.53549 -30729830.87049  16785842.7234   16785845.4734
  17905108.170   -32751431.45749 -25118074.21249  17905106.9224   17905111.7584
  15256314.997   -83339315.50949 -64077744.17249  15256313.8044   15256318.3484
  14568952.742   -49301977.87349 -38368281.41649  14568951.5454   14568955.9514
  15429429.431   -70463027.44949 -52634035.69749  15429428.5394   15429432.1314
  18170711.253   -84877853.86749 -66071008.21949  18170710.2394   18170714.9934
 96 12 10  2 55 29.9800000  0  6 26 15 27  7  2 19
  16767021.875   -39562085.64949 -30806899.80849  16767021.7824   16767024.8504
  17890407.368   -32828684.43249 -25178271.35949  17890406.1504   17890409.9334
  15250765.797   -83368476.75749 -64100467.23949  15250764.3764   15250769.0564
  14547712.563   -49413595.75749 -38455256.38249  14547711.4594   14547715.9534
  15414098.332   -70543593.05149 -52696814.09049  15414097.2134   15414101.1444
  18171786.225   -84872204.74749 -66066606.33749  18171785.3554   18171790.5744
 96 12 10  2 55 59.9800000  0  6 26 15 27  7  2 19
  16748301.183   -39660463.79249 -30883558.10949  16748300.3434   16748303.6964
  17875819.708   -32905343.28649 -25238005.52349  17875817.5894   17875823.1194
  15245306.691   -83397163.83349 -64122820.82249  15245305.9944   15245310.1174
  14526573.806   -49524680.54249 -38541815.95049  14526572.6134   14526576.9934
  15398795.109   -70624012.19449 -52759478.35949  15398794.2474   15398797.9374
  18172907.594   -84866311.99049 -66062014.61249  18172907.4784   18172911.5124
 96 12 10  2 56 29.9800000  0  6 26 15 27  7  2 19
  16729669.833   -39758372.24749 -30959850.41049  16729669.4114   16729672.7454
  17861333.613   -32981468.01649 -25297323.49949  17861332.4274   17861335.8524
  15239922.591   -83425456.92449 -64144867.39549  15239921.3924   15239925.9874
  14505525.498   -49635289.85549 -38628005.02049  14505524.6344   14505528.9584
  15383511.815   -70704327.10749 -52822061.40549  15383510.6774   15383514.4194
  18174062.830   -84860241.37949 -66057284.30449  18174062.9084   18174066.8004
 96 12 10  2 56 59.9800000  0  6 26 15 27  7  2 19
  16711134.456   -39855776.20549 -31035749.59149  16711133.7534   16711138.0244
  17846954.093   -33057033.07449 -25356205.36349  17846953.3914   17846956.9954
  15234618.013   -83453332.10749 -64166588.33249  15234617.2844   15234621.6764
  14484569.240   -49745415.90249 -38713817.51749  14484568.1224   14484572.3124
  15368253.874   -70784508.13249 -52884540.12249  15368252.7704   15368256.5324
  18175252.470   -84853990.43849 -66052413.47949  18175251.5554   18175256.7774
 96 12 10  2 57 29.9800000  0  6 26 15 27  7  2 19
  16692701.881   -39952639.86749 -31111227.76849  16692701.6434   16692705.0544
  17832686.777   -33132009.02149 -25414628.16149  17832684.9494   17832689.4684
  15229399.620   -83480754.89149 -64187956.74449  15229398.6174   15229403.3884
  14463707.465   -49855045.42649 -38799243.10849  14463706.5544   14463710.6104
  15353031.221   -70864503.59549 -52946874.24349  15353029.9694   15353033.8414
  18176479.659   -84847541.98849 -66047388.75249  18176477.9164   18176482.2214
 96 12 10  2 57 59.9800000  0  6 26 15 27  7  2 19
  16674362.603   -40049013.00349 -31186323.73249  16674361.4204   16674365.3654
  17818520.248   -33206454.27349 -25472637.44449  17818519.8754   17818523.4054
  15224252.956   -83507800.90649 -64209031.58349  15224252.6194   15224256.2444
  14442930.843   -49964227.58749 -38884320.10949  14442929.9784   14442933.7094
  15337836.120   -70944354.29449 -53009095.57249  15337835.0784   15337838.6914
  18177733.505   -84840952.54949 -66042254.15849  18177732.5484   18177738.3294
 96 12 10  2 58 29.9800000  0  6 26 15 27  7  2 19
  16656127.377   -40144839.41749 -31260993.67249  16656127.0234   16656130.7984
  17804461.032   -33280335.18349 -25530206.96449  17804458.2004   17804465.9654
  15219184.608   -83534435.72849 -64229786.00549  15219184.1184   15219188.1424
  14422241.928   -50072948.78949 -38969037.91849  14422240.8504   14422244.7224
  15322676.006   -71024021.30149 -53071173.75349  15322674.9934   15322678.8284
  18179020.964   -84834186.92649 -66036982.27249  18179019.7964   18179025.9264
 96 12 10  2 58 59.9800000  0  6 26 15 27  7  2 19
  16637994.923   -40240126.00249 -31335242.96249  16637994.8264   16637998.3084
  17790508.856   -33353654.12249 -25587338.59349  17790507.9284   17790511.8854
  15214199.050   -83560635.19649 -64250201.19349  15214198.3604   15214202.6774
  14401636.922   -50181229.39249 -39053412.40149  14401635.9054   14401639.6394
  15307549.871   -71103509.64949 -53133112.72349  15307548.8144   15307552.6984
  18180341.780   -84827246.13249 -66031573.89049  18180340.2324   18180346.2324
 96 12 10  2 59 29.9800000  0  6 26 15 27  7  2 19
  16619966.613   -40334865.78949 -31409066.18349  16619966.5074   16619969.7844
  17776664.191   -33426408.54849 -25644030.34249  17776662.7924   17776667.6334
  15209298.356   -83586388.77249 -64270268.93149  15209297.7724   15209301.6514
  14381117.966   -50289057.34449 -39137434.17049  14381116.7904   14381120.8814
  15292457.600   -71182819.84749 -53194912.87749  15292456.3634   15292460.3994
  18181695.918   -84820130.23449 -66026029.04749  18181695.4744   18181701.0784
 96 12 10  2 59 59.9800000  0  6 26 15 27  7  2 19
  16602041.833   -40429061.68549 -31482465.60049  16602041.7364   16602044.7214
  17762925.740   -33498604.86249 -25700287.20149  17762924.0544   17762929.0934
  15204480.037   -83611708.92149 -64289998.93149  15204479.3884   15204483.6584
  14360685.277   -50396431.66749 -39221102.46349  14360684.0454   14360688.3144
  15277395.187   -71261973.13149 -53256590.76249  15277393.8304   15277397.9154
  18183079.452   -84812859.93649 -66020363.89649  18183078.2674   18183083.6254
 96 12 10  3  0 29.9800000  0  6 26 15 27  7  2 19
  16584219.105   -40522720.63549 -31555446.59049  16584218.7444   16584222.7554
  17749294.050   -33570239.66649 -25756106.51249  17749293.6304   17749297.3724
  15199748.052   -83636575.82249 -64309375.74849  15199747.6144   15199751.7084
  14340337.475   -50503359.67849 -39304422.98249  14340336.3824   14340340.4214
  15262357.969   -71340993.67649 -53318165.21449  15262356.5104   15262360.8774
  18184491.745   -84805438.57649 -66014581.03349  18184491.8184   18184495.6504
 96 12 10  3  0 59.9800000  0  7 26 15 27  7  4  2 19
  16566494.861   -40615862.09549 -31628024.36149  16566494.2954   16566498.4674
  17735770.047   -33641309.04349 -25811485.24049  17735768.9734   17735773.5114
  15195102.084   -83660990.67449 -64328400.32549  15195101.4004   15195105.7294
  14320079.887   -50609813.85149 -39387374.27749  14320078.8964   14320083.0834
  18658654.571    -8441822.86449  -6104589.05549  18658653.5234   18658659.3154
  15247345.455   -71419884.62549 -53379638.67549  15247344.1334   15247348.5064
  18185935.576   -84797850.92149 -66008668.59749  18185933.7904   18185939.9234
 96 12 10  3  1 29.9800000  0  7 26 15 27  7  4  2 19
  16548869.549   -40708483.97449 -31700197.26449  16548868.8964   16548872.0974
  17722354.623   -33711807.43449 -25866419.05449  17722353.1104   17722357.3384
  15190540.684   -83684961.35449 -64347078.79449  15190540.0584   15190543.6234
  14299916.309   -50715774.20949 -39469940.79249  14299915.1554   14299919.3164
  18622289.248    -8632923.84349  -6253498.82949  18622288.9084   18622292.5614
  15232357.639   -71498646.07349 -53441011.23949  15232356.4594   15232360.6294
  18187412.553   -84790089.30849 -66002620.60749  18187411.8574   18187416.2244
 96 12 10  3  1 59.9800000  0  7 26 15 27  7  4  2 19
  16531332.982   -40800638.99849 -31772006.37549  16531332.5674   16531335.9124
  17709041.979   -33781765.06949 -25920931.48849  17709040.3764   17709046.0744
  15186057.670   -83708520.11349 -64365436.28649  15186057.1114   15186060.6234
  14279839.885   -50821276.73749 -39552150.54749  14279838.7434   14279842.4074
  18585901.708    -8824141.73949  -6402499.74149  18585901.2984   18585904.6904
  15217388.973   -71577306.87349 -53502305.36949  15217387.7024   15217391.6844
  18188919.191   -84782171.70149 -65996451.07949  18188918.4944   18188922.7424
 96 12 10  3  2 29.9800000  0  7 26 15 27  7  4  2 19
  16513885.403   -40892326.44349 -31843451.12949  16513884.8854   16513888.1354
  17695833.514   -33851175.92349 -25975017.86849  17695832.3004   17695837.9834
  15181653.763   -83731663.04649 -64383469.74849  15181653.4604   15181656.9184
  14259853.113   -50926308.13349 -39633993.18249  14259852.1204   14259856.1624
  18549497.970    -9015444.62449  -6551566.89049  18549497.3804   18549500.9574
  15202442.172   -71655852.53749 -53563509.77849  15202441.1594   15202445.3154
  18190458.516   -84774082.44949 -65990147.78949  18190457.8984   18190462.4374
 96 12 10  3  2 59.9800000  0  7 26 15 27  7  4  2 19
  16496539.775   -40983478.34549 -31914478.59749  16496539.8234   16496543.2254
  17682739.429   -33919986.18949 -26028636.24249  17682738.8054   17682743.4964
  15177335.873   -83754353.91749 -64401150.96349  15177335.3094   15177339.3684
  14239968.706   -51030801.54749 -39715416.61549  14239967.6364   14239971.2994
  18513094.152    -9206747.53649  -6700634.04649  18513093.0124   18513096.8144
  15187530.224   -71734215.32749 -53624571.69249  15187529.2124   15187533.2054
  18192039.077   -84765776.71949 -65983675.81749  18192038.1044   18192043.4284
 96 12 10  3  3 29.9800000  0  7 26 15 27  7  4  2 19
  16479289.151   -41074131.19749 -31985117.19049  16479288.6264   16479292.2434
  17669748.463   -33988254.03049 -26081831.96649  17669746.1894   17669751.6854
  15173091.702   -83776657.51649 -64418530.40349  15173091.1184   15173095.3354
  14220173.941   -51134823.55749 -39796472.71949  14220172.7894   14220176.8274
  18476683.134    -9398087.78749  -6849730.31349  18476682.4094   18476686.1044
  15172640.371   -71812462.16349 -53685543.25449  15172639.4204   15172643.4354
  18193646.117   -84757331.89349 -65977095.45949  18193645.2614   18193649.1244
 96 12 10  3  3 59.9790000  0  7 26 15 27  7  4  2 19
  16462142.247   -41164238.82349 -32055330.92449  16462141.8164   16462145.4664
  17656867.401   -34055943.98349 -26134577.39849  17656866.2964   17656870.3784
  15168926.207   -83798547.88549 -64435587.83849  15168925.9214   15168929.7584
  14200475.057   -51238341.74449 -39877136.23049  14200474.0864   14200477.6764
  18440272.417    -9589426.77049  -6998825.59549  18440271.5964   18440275.7214
  15157779.623   -71890556.16049 -53746395.71749  15157778.7984   15157782.4724
  18195284.628   -84748721.86849 -65970386.39449  18195283.5974   18195288.5684
 96 12 10  3  4 29.9790000  0  7 26 15 27  7  4  2 19
  16445093.188   -41253832.33649 -32125144.06549  16445092.9794   16445096.4454
  17644087.035   -34123105.22949 -26186910.83449  17644086.8334   17644090.5804
  15164830.644   -83820070.60049 -64452358.80349  15164830.0074   15164834.0564
  14180861.599   -51341411.39949 -39957450.24149  14180860.7044   14180864.4384
  18403848.698    -9780834.24949  -7147974.24749  18403847.4724   18403852.1284
  15142935.716   -71968561.77649 -53807179.31549  15142934.6344   15142938.4614
  18196943.565   -84740005.05449 -65963594.10449  18196942.7394   18196946.3804
 96 12 10  3  4 59.9790000  0  7 26 15 27  7  4  2 19
  16428149.948   -41342869.76649 -32194523.88749  16428149.9384   16428153.2674
  17631414.271   -34189701.63449 -26238804.12649  17631413.6464   17631416.8204
  15160814.236   -83841176.99649 -64468805.36149  15160813.1774   15160817.2124
  14161337.250   -51444012.82649 -40037399.40249  14161336.3614   14161340.1774
  18367415.018    -9972294.06249  -7297163.67149  18367415.0134   18367418.6544
  15128115.149   -72046444.62649 -53867867.25049  15128114.2444   15128117.8754
  18198630.553   -84731140.81749 -65956686.93749  18198629.8814   18198633.9504
 96 12 10  3  5 29.9790000  0  7 26 15 27  7  4  2 19
  16411308.523   -41431371.95449 -32263486.64149  16411308.0184   16411311.9244
  17618846.793   -34255743.83549 -26290265.57549  17618844.8184   17618849.5944
  15156877.606   -83861863.99249 -64484925.10749  15156876.5734   15156880.6904
  14141897.686   -51546168.68049 -40117001.35849  14141896.7394   14141900.3814
  18330966.711   -10163831.08449  -7446413.25849  18330965.7364   18330970.5034
  15113317.476   -72124206.97349 -53928461.28449  15113316.4294   15113320.1674
  18200346.192   -84722125.65849 -65949662.17049  18200344.6344   18200349.8324
 96 12 10  3  5 59.9790000  0  7 26 15 27  7  4  2 19
  16394569.902   -41519333.91249 -32332028.42949  16394569.3464   16394573.5744
  17606387.127   -34321219.08749 -26341285.24549  17606385.9834   17606390.0844
  15153024.713   -83882111.23549 -64500702.19949  15153023.9704   15153028.0004
  14122545.126   -51647867.03549 -40196246.82449  14122544.0864   14122547.9624
  18294502.204   -10355453.79749  -7595729.63649  18294502.2804   18294506.1444
  15098545.979   -72201831.67549 -53988948.06549  15098544.7854   15098548.9694
  18202095.929   -84712930.95649 -65942497.50249  18202095.0324   18202099.9134
 96 12 10  3  6 29.9790000  0  7 26 15 27  7  4  2 19
  16377935.080   -41606750.70549 -32400145.41449  16377934.5524   16377938.1364
  17594038.979   -34386109.04549 -26391848.84149  17594038.2814   17594041.9324
  15149260.069   -83901894.95649 -64516118.10149  15149259.4764   15149263.4994
  14103283.458   -51749087.51649 -40275119.92249  14103282.3314   14103286.1304
  18258022.045   -10547158.73749  -7745110.08149  18258022.2444   18258025.5404
  15083807.181   -72279284.36549 -54049300.81149  15083805.9984   15083810.1164
  18203883.701   -84703535.57849 -65935176.46849  18203883.3544   18203887.5854
 96 12 10  3  6 59.9790000  0  7 26 15 27  7  4  2 19
  16361395.456   -41693667.34749 -32467872.68149  16361395.6614   16361398.0994
  17581795.258   -34450451.04349 -26441985.46049  17581794.1574   17581798.4254
  15145574.827   -83921261.32949 -64531208.79749  15145574.3074   15145577.6734
  14084106.286   -51849864.08449 -40353647.11149  14084105.0874   14084109.0254
  18221520.671   -10738974.95549  -7894577.24449  18221520.2344   18221524.7714
  15069098.467   -72356579.01349 -54109530.40649  15069097.3414   15069101.3764
  18205703.652   -84693971.10649 -65927723.65849  18205701.8954   18205708.5454
 96 12 10  3  7 29.9790000  0  7 26 15 27  7  4  2 19
  16344952.685   -41780074.86749 -32535203.21149  16344952.3754   16344955.5674
  17569657.535   -34514235.60549 -26491687.70649  17569656.4904   17569660.4634
  15141966.732   -83940222.20949 -64545983.52349  15141966.1254   15141969.8764
  14065019.198   -51950167.07149 -40431805.27449  14065017.9914   14065021.7844
  18185003.014   -10930876.61349  -8044110.95249  18185003.1444   18185006.0294
  15054421.182   -72433708.90949 -54169631.62349  15054420.1024   15054424.1814
  18207554.035   -84684246.24549 -65920145.87849  18207552.9034   18207558.5074
 96 12 10  3  7 59.9790000  0  7 26 15 27  7  4  2 19
  16328608.047   -41865966.85249 -32602132.02749  16328608.0504   16328610.9984
  17557626.649   -34577458.46149 -26540952.26749  17557625.3094   17557628.7814
  15138436.533   -83958773.81449 -64560439.34449  15138436.0994   15138439.1514
  14046023.077   -52049992.29949 -40509591.16249  14046021.9114   14046025.9214
  18148471.819   -11122849.30849  -8193700.04349  18148470.9754   18148475.4424
  15039775.933   -72510670.27449 -54229601.51949  15039774.7314   15039778.7644
  18209432.718   -84674372.96449 -65912452.43549  18209431.6734   18209438.0914
 96 12 10  3  8 29.9790000  0  7 26 15 27  7  4  2 19
  16312361.796   -41951341.25349 -32668657.54149  16312361.4874   16312364.5174
  17545701.838   -34640123.30249 -26589782.00849  17545700.5544   17545705.2104
  15134983.654   -83976918.89449 -64574578.38149  15134982.2204   15134986.7094
  14027118.697   -52149335.57849 -40587001.50349  14027117.6884   14027121.5854
  18111930.948   -11314872.87249  -8343328.77649  18111930.7114   18111935.5384
  15025163.689   -72587458.14749 -54289436.22849  15025162.7564   15025166.4864
  18211334.259   -84664379.75249 -65904665.55249  18211333.7364   18211338.9304
 96 12 10  3  8 59.9790000  0  7 26 15 27  7  4  2 19
  16296212.211   -42036207.44449 -32734787.04349  16296211.3684   16296215.0934
  17533878.333   -34702256.01349 -26638197.11949  17533877.4594   17533881.3774
  15131601.831   -83994690.07249 -64588426.07149  15131600.7714   15131604.9314
  14008300.855   -52248223.80149 -40664057.25249  14008299.7164   14008303.5904
  18075380.030   -11506949.00049  -8492998.46749  18075378.4264   18075383.5714
  15010575.620   -72664118.97649 -54349171.93649  15010574.5854   15010578.5854
  18213252.946   -84654296.86149 -65896808.78149  18213253.2174   18213257.1564
 96 12 10  3  9 29.9790000  0  7 26 15 27  7  4  2 19
  16280163.334   -42120544.70849 -32800504.38349  16280162.7584   16280166.1134
  17522159.801   -34763837.94449 -26686183.01949  17522159.1724   17522163.0494
  15128296.702   -84012058.19249 -64601959.69249  15128295.7094   15128300.2834
  13989573.709   -52346635.74949 -40740741.88449  13989572.5804   13989576.4774
  18038821.841   -11699063.24049  -8642697.85349  18038820.6844   18038825.4354
  14996013.140   -72740645.50549 -54408802.99849  14996011.8974   14996016.2664
  18215192.533   -84644104.52249 -65888866.71849  18215192.5454   18215196.8144
 96 12 10  3  9 59.9790000  0  7 26 15 27  7  4  2 19
  16264217.771   -42204339.56549 -32865799.08149  16264217.5464   16264220.9044
  17510551.350   -34824841.35249 -26733718.14849  17510550.3084   17510553.5124
  15125076.302   -84028981.55149 -64615146.73349  15125075.6984   15125079.6174
  13970940.449   -52444554.01949 -40817041.82249  13970939.3104   13970943.3864
  18002261.695   -11891187.76849  -8792405.26249  18002260.9344   18002266.7404
  14981480.008   -72817017.55449 -54468313.68749  14981478.8584   14981482.8274
  18217159.866   -84633766.91149 -65880811.45849  18217158.4344   18217163.7994
 96 12 10  3 10 29.9790000  0  7 26 15 27  7  4  2 19
  16248369.326   -42287623.68649 -32930695.81249  16248368.6284   16248372.3934
  17499047.383   -34885294.75849 -26780824.69449  17499046.7024   17499050.6014
  15121932.042   -84045504.83349 -64628022.03849  15121931.1454   15121935.1654
  13952395.233   -52542009.57749 -40892981.20649  13952393.9994   13952397.8314
  17965695.573   -12083343.72449  -8942137.14149  17965695.1584   17965698.8414
  14966969.118   -72893272.59749 -54527733.20249  14966968.1844   14966971.9454
  18219151.894   -84623299.82949 -65872655.30649  18219151.8444   18219156.2424
 96 12 10  3 10 59.9790000  0  7 26 15 27  7  4  2 19
  16232615.220   -42370412.18649 -32995206.34349  16232614.9254   16232618.4344
  17487646.830   -34945205.76049 -26827508.58949  17487645.8954   17487649.4914
  15118862.253   -84061636.44749 -64640592.14549  15118861.3904   15118865.4904
  13933933.932   -52639024.37849 -40968577.14549  13933932.6594   13933936.4854
  17929121.578   -12275541.07549  -9091901.30849  17929120.9284   17929126.0684
  14952479.223   -72969417.49049 -54587066.88449  14952478.2254   14952482.1154
  18221171.286   -84612688.90249 -65864387.06949  18221172.1154   18221175.3034
 96 12 10  3 11 29.9790000  0  7 26 15 27  7  4  2 19
  16216959.043   -42452685.84449 -33059315.70949  16216958.6534   16216962.1324
  17476356.054   -35004539.89749 -26873742.96449  17476354.6614   17476359.4134
  15115875.465   -84077331.78449 -64652822.30349  15115874.2284   15115878.8974
  13915562.894   -52735564.66949 -41043803.33649  13915561.8274   13915565.4184
  17892545.488   -12467749.83249  -9241674.34849  17892544.9894   17892549.3094
  14938019.454   -73045404.29849 -54646277.38449  14938018.2454   14938022.5554
  18223224.542   -84601899.85249 -65855980.02849  18223224.8244   18223228.8144
 96 12 10  3 11 59.9790000  0  7 26 15 27  7  4  2 19
  16201394.626   -42534477.00049 -33123049.09549  16201393.9984   16201397.4924
  17465167.140   -35063337.51749 -26919559.27849  17465165.0284   17465169.0634
  15112961.006   -84092646.96249 -64664756.21949  15112960.2154   15112964.4524
  13897273.895   -52831674.10749 -41118693.80049  13897272.5384   13897276.5374
  17855961.411   -12660000.25649  -9391479.84449  17855961.0454   17855965.1044
  14923584.350   -73121261.54749 -54705386.93149  14923583.2984   14923587.1584
  18225303.991   -84590973.10649 -65847465.69249  18225302.9854   18225307.8904
 96 12 10  3 12 29.9780000  0  7 26 15 27  7  4  2 19
  16185925.482   -42615768.19649 -33186392.90349  16185924.9774   16185928.4794
  17454079.231   -35121603.68949 -26964961.48449  17454078.1934   17454082.3734
  15110116.877   -84107593.20049 -64676402.65349  15110116.2944   15110120.1204
  13879066.740   -52927353.23449 -41193248.96249  13879065.5734   13879069.3754
  17819371.051   -12852283.78249  -9541311.14649  17819370.6264   17819375.2834
  14909175.306   -73196981.77049 -54764389.69949  14909174.4034   14909178.1624
  18227409.609   -84579908.57349 -65838844.01749  18227408.9074   18227413.4224
 96 12 10  3 12 59.9780000  0  7 26 15 27  7  4  2 19
  16170555.976   -42696535.79549 -33249328.70549  16170555.2484   16170559.9054
  17443097.161   -35179314.86749 -27009931.22349  17443096.6454   17443100.6604
  15107351.686   -84122125.06849 -64687726.20749  15107351.4284   15107354.9114
  13860949.662   -53022559.10149 -41267435.34549  13860948.6054   13860952.2844
  17782776.546   -13044589.38049  -9691159.64349  17782776.6704   17782779.4314
  14894797.135   -73272539.62049 -54823265.94249  14894796.0574   14894800.2054
  18229546.312   -84568680.52349 -65830094.89849  18229545.7084   18229549.9244
 96 12 10  3 13 29.9780000  0  6 26 15 27  7  4  2
  16155300.769   -42776702.85149 -33311796.55649  16155300.5484   16155304.6204
  17432235.226   -35236394.71449 -27054409.02349  17432233.4264   17432239.6604
  15104677.342   -84136179.58749 -64698677.79849  15104676.7104   15104680.7054
  13842940.371   -53117198.70249 -41341180.48749  13842939.5624   13842943.0194
  17746193.372   -13236835.25349  -9840961.58649  17746192.8464   17746197.0674
  14880463.141   -73347865.47949 -54881961.41749  14880462.2304   14880466.0474
 96 12 10  3 13 59.9780000  0  6 26 15 27  7  4  2
  16140136.074   -42856394.38949 -33373893.86349  16140136.0264   16140139.4934
  17421467.704   -35292977.18949 -27098499.26749  17421465.8404   17421470.5154
  15102067.223   -84149895.93949 -64709365.88349  15102066.1174   15102070.3894
  13825013.838   -53211403.54649 -41414586.85249  13825012.7534   13825016.3094
  17709598.426   -13429143.11849  -9990811.83349  17709597.5714   17709601.4764
  14866145.407   -73423106.01949 -54940590.40649  14866144.2624   14866148.0904
 96 12 10  3 14 29.9780000  0  6 26 15 27  7  4  2
  16125067.816   -42935578.76049 -33435595.96649  16125066.9884   16125071.6194
  17410802.293   -35349024.12449 -27142172.21449  17410801.9834   17410805.7334
  15099531.416   -84163221.43949 -64719749.39449  15099530.6824   15099534.5304
  13807177.765   -53305132.56849 -41487622.44349  13807176.8404   13807180.3604
  17672998.482   -13621476.60149 -10140682.05249  17672998.6084   17673001.5794
  14851848.566   -73498236.16349 -54999133.37249  14851847.1904   14851851.4594
 96 12 10  3 14 59.9780000  0  6 26 15 27  7  4  2
  16110098.940   -43014240.43749 -33496890.78949  16110098.1114   16110102.1424
  17400243.957   -35404509.36249 -27185407.45849  17400242.7834   17400247.5154
  15097072.732   -84176141.92449 -64729817.31849  15097072.0254   15097076.7294
  13789434.062   -53398376.48749 -41560280.03449  13789432.9344   13789436.6564
  17636397.043   -13813818.54449 -10290558.85549  17636396.0774   17636400.0154
  14837578.526   -73573225.61749 -55057566.71149  14837577.6694   14837581.5344
 96 12 10  3 15 29.9780000  0  6 26 15 27  7  4  2
  16095224.248   -43092406.43649 -33557799.36749  16095222.9794   16095227.8474
  17389787.259   -35459459.87249 -27228226.03949  17389786.9514   17389790.6564
  15094685.530   -84188686.93249 -64739592.66749  15094684.7774   15094688.7744
  13771770.287   -53491200.03149 -41632610.06149  13771769.1634   13771772.8444
  17599791.475   -14006182.14049 -10440452.53949  17599791.5684   17599795.0014
  14823331.342   -73648095.36049 -55115906.76949  14823330.3024   14823333.8994
 96 12 10  3 15 59.9780000  0  6 26 15 27  7  4  2
  16080441.901   -43170087.17449 -33618329.80749  16080441.2324   16080445.7234
  17379428.994   -35513893.29049 -27270641.68549  17379428.1324   17379432.6744
  15092370.072   -84200854.93449 -64749074.24449  15092369.5104   15092373.0934
  13754180.817   -53583633.44049 -41704636.08449  13754179.7694   13754183.6244
  17563178.784   -14198583.38649 -10590375.54649  17563179.2044   17563181.3364
  14809104.673   -73722856.97349 -55174162.57149  14809103.4114   14809107.0624
 96 12 10  3 16 29.9780000  0  6 26 15 27  7  4  2
  16065769.277   -43247192.30849 -33678411.74849  16065768.6704   16065772.8824
  17369187.825   -35567710.85849 -27312577.45049  17369185.6334   17369191.7364
  15090144.894   -84212548.78749 -64758186.35849  15090144.2714   15090148.1814
  13736682.289   -53675588.74849 -41776289.57249  13736681.2734   13736685.1334
  17526577.089   -14390926.94049 -10740253.60449  17526576.2844   17526579.6164
  14794921.368   -73797390.76849 -55232240.85549  14794920.2604   14794924.0764
 96 12 10  3 16 59.9780000  0  6 26 15 27  7  4  2
  16051186.364   -43323826.65349 -33738126.83649  16051186.5554   16051189.7364
  17359045.437   -35621008.63449 -27354108.19649  17359044.0444   17359049.0524
  15087991.371   -84223866.21749 -64767005.15349  15087990.7414   15087994.4454
  13719255.879   -53767165.21049 -41847647.84849  13719254.9374   13719258.3454
  17489971.621   -14583289.94749 -10890146.82349  17489970.7854   17489974.5004
  14780764.844   -73871783.69349 -55290209.36849  14780763.6404   14780767.5874
 96 12 10  3 17 29.9780000  0  6 26 15 27  7  4  2
  16036694.941   -43399980.43649 -33797467.46649  16036694.8574   16036697.7484
  17349003.641   -35673778.17049 -27395227.30249  17349003.0054   17349006.1704
  15085914.314   -84234781.46449 -64775510.54949  15085913.4194   15085917.7274
  13701907.823   -53858329.97449 -41918685.31949  13701906.3984   13701910.0214
  17453367.281   -14775647.15549 -11040035.51749  17453366.6964   17453370.2764
  14766636.301   -73946029.43749 -55348063.19349  14766635.1714   14766638.9144
 96 12 10  3 17 59.9780000  0  6 26 15 27  7  4  2
  16022297.627   -43475639.59549 -33856422.66749  16022297.6844   16022300.9234
  17339065.588   -35726003.54249 -27435922.38549  17339063.4164   17339069.2114
  15083911.709   -84245305.08949 -64783710.79049  15083910.2364   15083914.7224
  13684647.152   -53949035.23949 -41989364.74049  13684645.8474   13684649.6244
  17416765.547   -14967990.50349 -11189913.41949  17416764.7654   17416768.1564
  14752539.282   -74020109.92249 -55405788.24949  14752538.4804   14752542.1124
 96 12 10  3 18 29.9780000  0  6 26 15 27  7  4  2
  16007994.775   -43550801.74149 -33914990.57949  16007994.8864   16007997.9604
  17329233.979   -35777668.87449 -27476181.07549  17329232.3524   17329237.1244
  15081983.574   -84255437.15449 -64791605.92049  15081982.6614   15081986.4284
  13667480.432   -54039246.59649 -42059659.30349  13667479.1014   13667482.9154
  17380170.440   -15160298.72549 -11339763.94349  17380169.9694   17380173.0844
  14738476.480   -74094010.75749 -55463373.31749  14738475.5464   14738479.1434
 96 12 10  3 18 59.9780000  0  6 26 15 27  7  4  2
  15993785.951   -43625469.46549 -33973173.22649  15993786.1024   15993788.9764
  17319507.161   -35828783.56849 -27516010.70349  17319505.7664   17319510.0884
  15080128.571   -84265184.88749 -64799201.56649  15080127.3354   15080131.2904
  13650410.529   -54128949.20349 -42129557.42849  13650409.2484   13650413.0504
  17343579.379   -15352585.75349 -11489597.96849  17343579.3104   17343582.3434
  14724444.544   -74167749.31749 -55520831.93549  14724443.6704   14724447.3844
 96 12 10  3 19 29.9780000  0  6 26 15 27  7  4  2
  15979672.671   -43699635.53549 -34030964.97949  15979672.8334   15979675.3334
  17309886.447   -35879341.11049 -27555406.20349  17309885.8154   17309889.1064
  15078345.249   -84274555.88249 -64806503.64949  15078344.1704   15078348.5184
  13633437.613   -54218142.25249 -42199058.49949  13633436.6484   13633440.3074
  17306990.979   -15544858.86749 -11639421.14849  17306989.7604   17306993.9104
  14710444.322   -74241321.24349 -55578160.70749  14710443.3024   14710447.3344
 96 12 10  3 19 59.9780000  0  6 26 15 27  7  4  2
  15965642.099   -43773366.42149 -34088417.62549  15965641.3764   15965645.7514
  17300359.492   -35929406.29349 -27594418.02349  17300358.4114   17300362.5184
  15076619.580   -84283624.64149 -64813570.22649  15076618.9244   15076623.1174
  13616546.920   -54306903.46449 -42268223.07549  13616546.1014   13616549.7284
  17270391.442   -15737190.25849 -11789289.74649  17270390.7974   17270395.5774
  14696461.954   -74314799.16749 -55635416.23249  14696460.6224   14696464.8374
 96 12 10  3 20 29.9780000  0  7 26 15 27  7  4  9  2
  15951707.140   -43846594.74049 -34145478.66649  15951706.2444   15951710.4024
  17290937.229   -35978920.38149 -27633000.43749  17290936.2644   17290940.5094
  15074968.403   -84292302.02449 -64820331.83349  15074967.4874   15074971.6764
  13599745.480   -54395195.82849 -42337022.31349  13599744.5934   13599748.4174
  17233794.691   -15929507.11349 -11939147.00049  17233793.6334   17233798.2704
  18029441.895    -8320897.87049  -6455928.59949  18029441.4074   18029443.9414
  14682508.337   -74388125.77749 -55692553.84749  14682507.1724   14682511.4144
 96 12 10  3 20 59.9770000  0  7 26 15 27  7  4  9  2
  15937873.040   -43919293.45149 -34202127.01449  15937873.1604   15937877.1404
  17281621.769   -36027873.54249 -27671145.76649  17281621.1434   17281624.2844
  15073394.655   -84300572.35449 -64826776.25549  15073393.6374   15073397.9784
  13583031.721   -54483027.68649 -42405462.71849  13583030.6844   13583034.1094
  17197207.127   -16121775.88749 -12088966.79849  17197207.1414   17197210.5294
  17993210.660    -8511294.90449  -6604289.90049  17993209.9604   17993213.7764
  14668586.773   -74461283.98549 -55749560.24549  14668585.6794   14668589.6314
 96 12 10  3 21 29.9770000  0  7 26 15 27  7  4  9  2
  15924128.433   -43991521.96549 -34258408.98049  15924128.5754   15924132.0564
  17272402.939   -36076319.66649 -27708895.98449  17272401.5654   17272405.5854
  15071887.911   -84308489.97449 -64832945.83749  15071887.4794   15071891.2324
  13566391.847   -54570470.77449 -42473600.18549  13566390.7634   13566394.2094
  17160620.538   -16314039.25549 -12238782.37749  17160620.0804   17160624.8274
  17956981.128    -8701682.40849  -6752643.78049  17956980.0414   17956983.2104
  14654684.584   -74534340.64349 -55806487.51649  14654683.5544   14654687.4184
 96 12 10  3 21 59.9770000  0  7 26 15 27  7  4  9  2
  15910481.959   -44063234.93249 -34314289.22349  15910481.6934   15910485.5534
  17263285.727   -36124230.83849 -27746229.35449  17263284.8774   17263288.1514
  15070456.104   -84316013.89449 -64838808.65649  15070455.6114   15070459.8784
  13549836.787   -54657468.14949 -42541390.34049  13549835.7744   13549839.4744
  17124043.069   -16506254.95649 -12388560.81249  17124041.5634   17124047.1054
  17920761.427    -8892018.42649  -6900957.54849  17920760.9454   17920763.8344
  14640808.107   -74607262.27249 -55863309.56849  14640806.8804   14640811.0474
 96 12 10  3 22 29.9770000  0  7 26 15 27  7  4  9  2
  15896935.570   -44134421.51949 -34369759.30649  15896934.4614   15896938.7524
  17254271.653   -36171599.29549 -27783139.84549  17254269.8484   17254274.5154
  15069100.622   -84323137.15449 -64844359.25849  15069100.1594   15069104.4734
  13533369.487   -54744004.38549 -42608821.17249  13533368.4744   13533372.0104
  17087479.465   -16698397.80049 -12538282.49349  17087478.8754   17087483.4394
  17884554.457    -9082287.57949  -7049219.26849  17884554.2314   17884556.0914
  14626962.277   -74680022.56049 -55920005.89849  14626961.0564   14626965.0444
 96 12 10  3 22 59.9770000  0  7 26 15 27  7  4  9  2
  15883484.042   -44205109.27949 -34424840.67549  15883482.7144   15883487.3754
  17245358.623   -36218437.10449 -27819636.83549  17245357.6474   17245361.5094
  15067814.410   -84329896.64849 -64849626.41549  15067813.5704   15067818.2234
  13516989.002   -54830084.40749 -42675896.50549  13516987.6944   13516991.6934
  17050926.667   -16890483.77549 -12687959.85449  17050925.8704   17050930.6564
  17848357.825    -9272502.28849  -7197438.46949  17848356.7804   17848359.9824
  14613143.255   -74752641.77549 -55976592.29349  14613141.5234   14613145.5824
 96 12 10  3 23 29.9770000  0  7 26 15 27  7  4  9  2
  15870130.044   -44275284.66049 -34479522.81549  15870129.6584   15870134.2354
  17236551.613   -36264718.37349 -27855700.16449  17236550.3154   17236555.2224
  15066601.968   -84336268.14249 -64854591.24249  15066601.3894   15066605.0684
  13500700.732   -54915679.95549 -42742594.33349  13500699.2504   13500702.8954
  17014386.985   -17082500.63249 -12837583.35149  17014386.5354   17014390.9834
  17812177.377    -9462631.79249  -7345591.32349  17812176.4474   17812179.4084
  14599356.353   -74825091.89849 -56033046.93649  14599354.8474   14599359.1634
 96 12 10  3 23 59.9770000  0  7 26 15 27  7  4  9  2
  15856860.571   -44345015.71649 -34533858.71949  15856859.5254   15856863.7224
  17227837.666   -36310509.86949 -27891381.86149  17227836.0074   17227841.1704
  15065451.053   -84342316.27549 -64859304.09149  15065450.3664   15065454.3544
  13484489.070   -55000872.56249 -42808978.17549  13484487.8234   13484491.7214
  16977847.524   -17274516.86549 -12987206.37849  16977847.1714   16977850.8344
  17776000.668    -9652741.93449  -7493729.07949  17775999.4724   17776002.5284
  14585595.144   -74897406.85649 -56089396.25549  14585593.6244   14585598.1044
 96 12 10  3 24 29.9770000  0  7 26 15 27  7  4  9  2
  15843689.444   -44414229.61149 -34587791.62649  15843688.7434   15843692.6564
  17219233.933   -36355722.60549 -27926612.56349  17219232.1744   17219237.6814
  15064378.778   -84347950.43349 -64863694.35849  15064378.0084   15064381.8854
  13468364.417   -55085608.04549 -42875005.81849  13468363.3964   13468367.3924
  16941324.765   -17466445.26449 -13136760.96149  16941324.7754   16941329.0464
  17739842.907    -9842751.96149  -7641788.81649  17739842.2234   17739845.7064
  14571875.654   -74969502.90349 -56145574.99249  14571874.5514   14571878.5944
 96 12 10  3 24 59.9770000  0  7 26 15 27  7  4  9  2
  15830601.725   -44483006.11749 -34641383.72549  15830601.9024   15830604.8604
  17210724.057   -36400442.54649 -27961459.26949  17210722.6554   17210727.6054
  15063372.456   -84353238.15349 -64867814.67849  15063371.3654   15063375.7684
  13452308.055   -55169984.86949 -42940753.99049  13452307.0824   13452310.7704
  16904800.348   -17658382.10649 -13286322.12349  16904799.8314   16904804.5324
  17703687.617   -10032749.19849  -7789838.59649  17703687.5824   17703689.3714
  14558178.849   -75041480.05149 -56201661.08849  14558177.8134   14558181.7514
 96 12 10  3 25 29.9770000  0  7 26 15 27  7  4  9  2
  15817600.018   -44551331.21149 -34694624.05449  15817599.9934   15817603.0564
  17202307.673   -36444670.49049 -27995922.61149  17202306.0414   17202312.0794
  15062435.256   -84358162.81249 -64871652.09849  15062434.4844   15062438.1174
  13436321.539   -55253994.49949 -43006216.02949  13436320.2894   13436324.0774
  16868273.811   -17850330.04949 -13435891.93249  16868273.2374   16868277.8254
  17667535.287   -10222730.88249  -7937876.26549  17667533.6314   17667537.2384
  14544508.070   -75113320.55349 -56257640.69549  14544507.0074   14544510.9374
 96 12 10  3 25 59.9770000  0  7 26 15 27  7  4  9  2
  15804700.073   -44619121.56049 -34747447.72949  15804700.0744   15804703.0554
  17193999.621   -36488329.31749 -28029942.48049  17193998.6124   17194003.3764
  15061581.481   -84362649.62349 -64875148.32949  15061580.8854   15061585.0624
  13420422.886   -55337542.35249 -43071318.24649  13420421.8754   13420425.4804
  16831762.077   -18042200.20149 -13585401.13049  16831761.2144   16831765.5994
  17631400.544   -10412620.02149  -8085841.81549  17631400.5154   17631401.9994
  14530876.006   -75184957.88349 -56313461.99249  14530875.1744   14530878.9054
 96 12 10  3 26 29.9770000  0  7 26 15 27  7  4  9  2
  15791888.970   -44686444.95449 -34799907.53149  15791888.5034   15791891.9674
  17185787.096   -36531486.32149 -28063571.32149  17185786.2784   17185791.2694
  15060797.196   -84366771.51649 -64878360.21249  15060796.9874   15060801.1764
  13404604.668   -55420667.67149 -43136091.22049  13404603.5064   13404607.0694
  16795252.444   -18234059.41149 -13734901.78449  16795251.4994   16795256.6404
  17595273.037   -10602471.30749  -8233777.85449  17595272.6464   17595274.7274
  14517265.136   -75256483.63749 -56369196.35249  14517264.1774   14517267.8234
 96 12 10  3 26 59.9770000  0  7 26 15 27  7  4  9  2
  15779181.193   -44753224.77849 -34851943.77549  15779181.0504   15779184.9394
  17177685.072   -36574063.35249 -28096748.22249  17177683.3974   17177687.9814
  15060095.011   -84370461.93249 -64881235.87649  15060094.2144   15060098.5634
  13388885.513   -55503272.44749 -43200458.57349  13388884.4584   13388887.8384
  16758764.110   -18425806.33849 -13884314.96249  16758763.1304   16758767.6184
  17559169.718   -10792195.61249  -8381614.96749  17559169.3904   17559171.7844
  14503694.021   -75327800.67449 -56424768.07249  14503693.2324   14503696.4734
 96 12 10  3 27 29.9770000  0  7 26 15 27  7  4  9  2
  15766557.275   -44819563.71249 -34903636.45349  15766556.4604   15766560.3474
  17169675.590   -36616154.12949 -28129546.24049  17169674.2924   17169679.8434
  15059453.200   -84373835.02949 -64883864.28349  15059452.7184   15059456.8034
  13373250.034   -55585437.39949 -43264483.20349  13373248.9324   13373252.5904
  16722282.828   -18617516.01949 -14033699.11049  16722281.2064   16722287.4944
  17523072.013   -10981890.29949  -8529428.99649  17523071.5004   17523074.6124
  14490147.059   -75398990.60649 -56480240.74849  14490146.1814   14490149.8774
 96 12 10  3 27 59.9770000  0  7 26 15 27  7  4  9  2
  15754022.484   -44885434.69149 -34954964.49449  15754022.0184   15754025.8694
  17161763.617   -36657732.85249 -28161945.23949  17161762.5894   17161767.0064
  15058874.182   -84376877.72249 -64886235.22549  15058874.0584   15058877.6894
  13357700.488   -55667150.64549 -43328155.85949  13357699.2074   13357703.1734
  16685816.567   -18809146.68149 -14183021.68249  16685815.8004   16685820.2264
  17486985.334   -11171527.28849  -8677198.05849  17486984.0134   17486987.4284
  14476626.528   -75470041.55349 -56535605.12449  14476625.4814   14476629.3234
 96 12 10  3 28 29.9770000  0  7 26 15 27  7  4  9  2
  15741576.499   -44950839.09049 -35005928.96549  15741576.0444   15741579.4754
  17153949.855   -36698795.16449 -28193941.85649  17153948.9484   17153952.1714
  15058358.911   -84379585.44649 -64888345.15349  15058358.3854   15058362.0824
  13342233.068   -55748431.96149 -43391491.94349  13342231.6554   13342236.0764
  16649366.776   -19000690.98649 -14332276.97749  16649366.3144   16649371.1614
  17450909.371   -11361107.64549  -8824922.97449  17450908.6074   17450910.6614
  14463136.384   -75540932.69049 -56590844.96949  14463135.1804   14463139.3834
 96 12 10  3 28 59.9770000  0  7 26 15 27  7  4  9  2
  15729228.947   -45015725.92649 -35056490.14549  15729228.5524   15729231.7504
  17146241.964   -36739300.94649 -28225504.79349  17146241.4644   17146244.5204
  15057914.621   -84381920.27749 -64890164.52449  15057913.5234   15057917.8574
  13326851.745   -55829260.82949 -43454475.47549  13326850.6534   13326854.7814
  16612941.577   -19192105.75749 -14481431.31849  16612941.3204   16612946.3844
  17414849.548   -11550602.89349  -8972581.59249  17414849.3014   17414851.7324
  14449685.237   -75611618.69449 -56645924.97349  14449683.9724   14449687.9904
 96 12 10  3 29 29.9770000  0  7 26 15 27  7  4  9  2
  15716969.909   -45080147.60049 -35106688.86649  15716968.9294   15716973.7774
  17138628.193   -36779311.71749 -28256682.01449  17138627.6354   17138631.0384
  15057529.042   -84383946.61549 -64891743.50949  15057528.7404   15057532.3264
  13311544.127   -55909703.01449 -43517157.69349  13311543.1904   13311546.9404
  16576528.279   -19383458.35549 -14630537.22049  16576527.8094   16576533.2394
  17378795.069   -11740070.48449  -9120218.67049  17378794.2814   17378797.3384
  14436259.686   -75682170.68849 -56700900.55749  14436258.6964   14436262.5354
 96 12 10  3 29 59.9760000  0  7 26 15 27  7  4  9  2
  15704802.534   -45144087.23449 -35156511.97549  15704801.8224   15704805.4594
  17131112.467   -36818806.54349 -28287457.22249  17131110.7594   17131116.4844
  15057207.188   -84385637.97249 -64893061.46349  15057206.7034   15057210.7394
  13296313.207   -55989742.22149 -43579525.90049  13296312.5344   13296316.0764
  16540132.131   -19574720.95349 -14779573.01349  16540132.5554   16540137.1044
  17342753.124   -11929471.74949  -9267804.06149  17342752.8124   17342755.2814
  14422865.101   -75752559.66949 -56755749.12049  14422864.2094   14422867.7854
 96 12 10  3 30 29.9760000  0  7 26 15 27  7  4  9  2
  15692716.253   -45207600.50949 -35206002.85249  15692715.6894   15692719.6764
  17123687.752   -36857824.03249 -28317860.45949  17123686.6684   17123690.7434
  15056943.279   -84387024.50649 -64894141.89349  15056942.3464   15056946.6494
  13281153.129   -56069409.53249 -43641604.31849  13281152.2104   13281155.7104
  16503743.646   -19765943.51849 -14928577.59949  16503743.1464   16503748.2784
  17306716.221   -12118847.17949  -9415369.31949  17306716.3204   17306718.5654
  14409495.238   -75822818.72149 -56810496.43949  14409494.1254   14409497.9554
 96 12 10  3 30 59.9760000  0  7 26 15 27  7  4  9  2
  15680722.082   -45270629.81749 -35255116.61349  15680720.7534   15680725.6294
  17116363.703   -36896312.06449 -28347851.14249  17116362.4094   17116366.4144
  15056747.727   -84388052.19249 -64894942.71849  15056747.3314   15056751.2944
  13266076.891   -56148636.12749 -43703339.32349  13266075.7974   13266079.6094
  16467376.562   -19957053.63949 -15077494.56749  16467376.3134   16467382.0774
  17270699.614   -12308116.27149  -9562851.71849  17270698.5344   17270701.6894
  14396159.609   -75892897.69149 -56865103.43649  14396158.2474   14396162.7894
 96 12 10  3 31 29.9760000  0  7 26 15 27  7  4  9  2
  15668819.466   -45333178.38449 -35303855.78849  15668819.3524   15668823.5554
  17109143.089   -36934256.02449 -28377417.86149  17109141.4284   17109146.3574
  15056624.956   -84388697.44749 -64895445.52849  15056623.8464   15056629.0094
  13251088.859   -56227398.50949 -43764712.59749  13251087.5534   13251091.5474
  16431036.519   -20148021.86949 -15226300.96549  16431036.9104   16431040.9664
  17234709.956   -12497243.13849  -9710223.28949  17234708.8694   17234712.7224
  14382861.882   -75962777.20549 -56919555.00549  14382860.3234   14382864.9634
 96 12 10  3 31 59.9760000  0  7 26 15 27  7  4  9  2
  15656994.797   -45395317.92749 -35352276.23149  15656994.7284   15656998.6294
  17102014.598   -36971715.96449 -28406607.43549  17102013.9224   17102016.8564
  15056563.640   -84389019.63349 -64895696.59749  15056562.9584   15056567.5254
  13236177.195   -56305759.40649 -43825773.03149  13236176.2364   13236179.8864
  16394709.548   -20338921.60649 -15375053.98949  16394709.8594   16394714.9054
  17198736.135   -12686286.71649  -9857529.97049  17198734.4644   17198737.5854
  14369589.924   -76032521.54149 -56973901.24949  14369588.2714   14369593.1044
 96 12 10  3 32 29.9760000  0  7 26 15 27  7  4  9  2
  15645257.706   -45456997.16049 -35400337.99249  15645257.5544   15645260.9684
  17094986.021   -37008651.70949 -28435388.54049  17094984.9284   17094989.6524
  15056570.926   -84388981.40349 -64895666.82949  15056569.9144   15056573.7854
  13221350.476   -56383674.52549 -43886486.10349  13221349.2504   13221353.1994
  16358402.710   -20529715.68749 -15523724.71249  16358402.3844   16358407.5614
  17162785.643   -12875207.67249 -10004741.09149  17162785.7814   17162787.6304
  14356350.756   -76102093.17949 -57028112.92249  14356349.0164   14356353.5574
 96 12 10  3 32 59.9760000  0  7 26 15 27  7  4  9  2
  15633605.020   -45518232.41349 -35448053.78449  15633605.0104   15633609.7314
  17088052.570   -37045087.45749 -28463780.02649  17088051.3284   17088055.6854
  15056642.403   -84388605.34049 -64895373.82149  15056641.4744   15056645.8404
  13206603.804   -56461168.78849 -43946871.23749  13206602.7594   13206606.5054
  16322111.460   -20720428.12849 -15672331.79549  16322111.2184   16322116.6594
  17126851.700   -13064041.38949 -10151884.22849  17126850.6784   17126853.7084
  14343140.234   -76171514.36049 -57082207.35849  14343139.0814   14343143.6094
 96 12 10  3 33 29.9760000  0  7 26 15 27  7  4  9  2
  15622040.012   -45579006.49349 -35495410.20949  15622040.1874   15622043.2884
  17081217.330   -37081007.00949 -28491769.29949  17081216.7204   17081220.0474
  15056781.253   -84387875.31349 -64894804.97949  15056780.3684   15056785.3784
  13191940.939   -56538222.76649 -44006913.29749  13191940.0304   13191943.8564
  16285836.317   -20911055.63949 -15820872.70949  16285836.3604   16285840.6214
  17090931.973   -13252799.90249 -10298968.78949  17090930.8654   17090934.2354
  14329960.388   -76240774.81349 -57136176.54449  14329959.3964   14329963.8254
 96 12 10  3 33 59.9760000  0  7 26 15 27  7  4  9  2
  15610561.146   -45639328.38449 -35542414.29249  15610561.4334   15610565.1544
  17074475.247   -37116436.34749 -28519376.57849  17074474.7774   17074477.8504
  15056983.502   -84386812.13549 -64893976.55649  15056982.4284   15056987.1124
  13177357.965   -56614857.16749 -44066628.41149  13177356.8664   13177360.9464
  16249573.131   -21101620.41549 -15969364.75249  16249572.8054   16249577.9634
  17055018.376   -13441526.73249 -10446028.64449  17055017.0474   17055020.5634
  14316805.804   -76309902.60549 -57190042.35849  14316804.5624   14316809.2484
 96 12 10  3 34 29.9760000  0  7 26 15 27  7  4  9  2
  15599175.548   -45699160.49749 -35589036.72749  15599175.7354   15599179.1094
  17067831.666   -37151348.61249 -28546580.94049  17067830.4474   17067835.0374
  15057256.478   -84385377.26549 -64892858.48249  15057255.9894   15057259.8674
  13162859.318   -56691047.88149 -44125997.79749  13162857.9434   13162862.3584
  16213334.067   -21292058.21449 -16117757.84449  16213334.1324   16213338.7794
  17019117.073   -13630188.67249 -10593037.93649  17019115.8814   17019119.7744
  14303681.386   -76378872.05449 -57243784.79349  14303680.2784   14303684.9274
 96 12 10  3 34 59.9760000  0  7 26 15 27  7  4  9  2
  15587870.919   -45758567.12349 -35635327.61949  15587871.3414   15587874.4084
  17061275.633   -37185800.69149 -28573426.72049  17061274.2864   17061280.4494
  15057590.335   -84383622.58849 -64891491.22049  15057589.9574   15057595.1354
  13148434.639   -56766849.40549 -44185063.91949  13148433.2194   13148437.7294
  16177111.478   -21482409.41649 -16266083.45949  16177110.6894   16177115.5284
  16983218.130   -13818838.31449 -10740037.65449  16983216.3644   16983221.6604
  14290575.049   -76447746.23249 -57297452.98849  14290574.0714   14290578.5764
 96 12 10  3 35 29.9760000  0  7 26 15 27  7  4  9  2
  15576666.211   -45817448.89249 -35681209.53549  15576665.6094   15576670.0454
  17054824.296   -37219701.61949 -28599843.04749  17054822.1224   17054826.9494
  15058001.901   -84381460.02649 -64889806.12349  15058001.4824   15058005.9234
  13134100.236   -56842176.80049 -44243760.58749  13134099.0624   13134103.0854
  16140926.239   -21672563.70449 -16414255.62549  16140926.1894   16140930.9744
  16947342.179   -14007366.76349 -10886942.91749  16947340.8904   16947344.5044
  14277506.318   -76516423.09249 -57350967.42849  14277505.4294   14277509.6254
 96 12 10  3 35 59.9760000  0  7 26 15 27  7  4  9  2
  15565544.745   -45875893.10849 -35726750.48749  15565544.3884   15565548.3814
  17048460.818   -37253141.43149 -28625900.05549  17048459.6574   17048464.4944
  15058473.343   -84378983.31649 -64887876.25249  15058473.4764   15058478.0514
  13119837.491   -56917127.70749 -44302163.89249  13119836.0764   13119840.4144
  16104762.617   -21862604.07349 -16562339.00349  16104762.3754   16104767.0374
  16911477.748   -14195834.26149 -11033800.70049  16911476.5384   16911481.0014
  14264462.162   -76584970.72949 -57404381.17849  14264461.4594   14264465.4834
 96 12 10  3 36 29.9760000  0  7 26 15 27  7  4  9  2
  15554515.604   -45933851.59749 -35771912.95849  15554515.6834   15554519.0864
  17042194.910   -37286069.29549 -28651558.14449  17042194.3844   17042198.7554
  15059011.587   -84376155.87849 -64885673.08049  15059011.0344   15059015.9864
  13105655.833   -56991652.70549 -44360235.31849  13105654.6044   13105658.6754
  16068629.243   -22052485.77449 -16710298.74149  16068629.3794   16068634.3014
  16875636.716   -14384178.95549 -11180562.77249  16875635.3014   16875639.9164
  14251456.592   -76653315.93849 -57457637.19049  14251455.9224   14251459.7714
 96 12 10  3 36 59.9760000  0  7 26 15 27  7  4  9  2
  15543573.186   -45991354.28349 -35816720.26349  15543572.7194   15543577.1364
  17036020.548   -37318516.28249 -28676841.49049  17036018.9894   17036023.3824
  15059607.996   -84373022.67049 -64883231.64449  15059608.1904   15059611.5304
  13091551.605   -57065770.92149 -44417989.77049  13091550.5984   13091554.5344
  16032516.443   -22242259.45049 -16858174.31549  16032515.7504   16032521.0454
  16839814.501   -14572425.11449 -11327248.08249  16839813.3104   16839817.9254
  14238485.981   -76721477.52949 -57510750.12649  14238484.8924   14238489.0044
 96 12 10  3 37 29.9760000  0  7 26 15 27  7  4  9  2
  15532723.643   -46048368.41649 -35861146.87649  15532722.7804   15532727.6024
  17029943.074   -37350453.70849 -28701727.78849  17029942.4064   17029945.3234
  15060267.815   -84369556.04549 -64880530.40049  15060267.6744   15060271.8044
  13077528.400   -57139463.42449 -44475412.49549  13077527.4164   13077531.2414
  15996429.488   -22431897.97049 -17005944.58049  15996429.0134   15996433.7804
  16804018.685   -14760533.38449 -11473825.94649  16804017.8214   16804021.9414
  14225556.984   -76789419.73849 -57563692.11549  14225555.7434   14225560.0754
 96 12 10  3 37 59.9760000  0  7 26 15 27  7  4  9  2
  15521957.022   -46104946.98049 -35905234.07549  15521956.7534   15521960.5774
  17023954.390   -37381924.03749 -28726250.14149  17023953.4524   17023957.7974
  15060983.052   -84365798.12549 -64877602.16749  15060982.5894   15060986.7274
  13063578.161   -57212772.57549 -44532536.50649  13063577.0244   13063581.2964
  15960359.914   -22621445.35949 -17153643.83149  15960359.5434   15960364.4284
  16768242.620   -14948538.28649 -11620323.26349  16768241.9084   16768245.8114
  14212659.883   -76857194.46949 -57616503.59449  14212658.9114   14212663.1554
 96 12 10  3 38 29.9750000  0  7 26 15 27  7  4  9  2
  15511276.776   -46161072.61549 -35948968.36549  15511276.4974   15511280.4584
  17018059.351   -37412902.09149 -28750388.89449  17018058.1534   17018062.2474
  15061758.051   -84361725.50949 -64874428.72149  15061757.0434   15061762.0614
  13049706.778   -57285667.42549 -44589337.68649  13049705.6574   13049709.7404
  15924316.375   -22810856.21249 -17301236.69049  15924316.6654   15924320.3384
  16732492.731   -15136405.46549 -11766713.26949  16732491.6874   16732496.0904
  14199795.257   -76924798.56649 -57669182.12049  14199794.1874   14199798.4324
 96 12 10  3 38 59.9750000  0  7 26 15 27  7  4  9  2
  15500678.995   -46216764.86549 -35992364.94349  15500678.5944   15500682.5974
  17012257.586   -37443391.48449 -28774146.85849  17012258.1894   17012260.5944
  15062594.085   -84357332.14049 -64871005.32649  15062593.4944   15062597.1704
  13035909.686   -57358171.49749 -44645834.36649  13035908.4284   13035912.8784
  15888298.277   -23000133.55949 -17448725.51249  15888298.5204   15888302.2114
  16696769.190   -15324134.48849 -11912995.62149  16696767.9984   16696772.1394
  14186958.254   -76992257.51449 -57721747.53649  14186957.3444   14186961.4594
 96 12 10  3 39 29.9750000  0  7 26 15 27  7  4  9  2
  15490159.089   -46272047.14349 -36035442.05649  15490158.3374   15490162.8654
  17006546.000   -37473406.48349 -28797535.17449  17006545.6434   17006549.1264
  15063489.402   -84352627.58149 -64867339.46649  15063489.1534   15063493.1504
  13022182.463   -57430308.26649 -44702044.83749  13022181.2914   13022185.4334
  15852306.689   -23189270.90149 -17596105.24249  15852305.5574   15852311.7514
  16661070.874   -15511730.74549 -12059174.52849  16661069.7314   16661073.6384
  14174148.091   -77059575.47749 -57774203.09949  14174147.0924   14174151.2224
 96 12 10  3 39 59.9750000  0  7 26 15 27  7  4  9  2
  15479717.871   -46326915.73349 -36078196.81949  15479718.3944   15479721.7074
  17000928.126   -37502928.94849 -28820539.71449  17000927.6534   17000931.4194
  15064446.709   -84347597.16249 -64863419.67949  15064446.1214   15064450.0194
  13008531.887   -57502042.54749 -44757941.68549  13008530.6324   13008535.1364
  15816344.429   -23378253.73449 -17743364.57749  15816344.0734   15816348.9944
  16625401.107   -15699176.90749 -12205236.46949  16625400.6654   16625405.1804
  14161370.322   -77126723.47949 -57826526.22849  14161369.4884   14161373.4454
 96 12 10  3 40 29.9750000  0  7 26 15 27  7  4  9  2
  15469346.082   -46381420.11249 -36120667.78449  15469346.1454   15469349.0874
  16995396.317   -37531998.99649 -28843191.69749  16995395.2834   16995399.7074
  15065460.462   -84342270.05049 -64859268.70349  15065459.8994   15065464.1114
  12994950.961   -57573410.46549 -44813553.05249  12994949.5544   12994954.3214
  15780402.691   -23567128.25149 -17890539.51949  15780401.6254   15780406.7804
  16589751.204   -15886519.07149 -12351217.37749  16589751.5044   16589754.6724
  14148619.063   -77193732.00849 -57878740.67149  14148617.9664   14148621.9624
 96 12 10  3 40 59.9750000  0  7 26 15 27  7  4  9  2
  15459051.444   -46435519.32549 -36162823.03649  15459051.4814   15459054.9444
  16989957.371   -37560581.05149 -28865463.42949  16989956.2084   16989959.9144
  15066537.784   -84336609.19249 -64854857.67849  15066537.6534   15066541.4494
  12981446.909   -57644373.89049 -44868849.23349  12981445.7624   12981450.5264
  15744489.176   -23755854.36349 -18037598.81649  15744488.1984   15744493.5684
  16554126.495   -16073728.53449 -12497094.88649  16554126.3274   16554129.3574
  14135906.421   -77260537.37649 -57930796.81249  14135905.3864   14135909.4144
 96 12 10  3 41 29.9750000  0  7 26 15 27  7  4  9  2
  15448836.372   -46489200.56349 -36204652.59949  15448836.2634   15448840.2114
  16984610.644   -37588678.20749 -28887357.32349  16984609.7094   16984613.2834
  15067678.578   -84330614.49649 -64850186.50749  15067678.1834   15067682.4654
  12968025.107   -57714905.33249 -44923808.79949  12968023.9644   12968028.5754
  15708604.258   -23944430.02349 -18184540.86949  15708604.0304   15708608.3404
  16518523.539   -16260824.00849 -12642883.55749  16518522.6754   16518526.9124
  14123235.137   -77327125.45549 -57982683.62949  14123234.2084   14123237.9504
 96 12 10  3 41 59.9750000  0  7 26 15 27  7  4  9  2
  15438696.717   -46542484.58449 -36246172.61649  15438696.7734   15438700.4884
  16979350.007   -37616322.69449 -28908898.49049  16979349.0714   16979353.6114
  15068877.802   -84324312.76049 -64845276.08649  15068876.9344   15068880.6534
  12954680.050   -57785033.67149 -44978454.25849  12954679.0024   12954683.7974
  15672741.309   -24132890.07649 -18331392.84949  15672740.8174   15672745.7604
  16482933.333   -16447852.08049 -12788619.70749  16482932.2734   16482935.8314
  14110596.022   -77393544.44749 -58034438.68849  14110594.9884   14110599.0754
 96 12 10  3 42 29.9750000  0  7 26 15 27  7  4  9  2
  15428654.693   -46595255.49849 -36287292.82549  15428653.8454   15428658.9024
  16974193.024   -37643423.06549 -28930015.66149  16974192.1614   16974195.9014
  15070150.006   -84317627.02049 -64840066.43549  15070149.3734   15070153.7864
  12941426.698   -57854680.63149 -45032724.61349  12941426.1974   12941430.4254
  15636922.531   -24321119.14449 -18478064.83249  15636922.0644   15636927.0354
  16447373.424   -16634720.68649 -12934231.59449  16447373.2604   16447376.5584
  14098003.120   -77459720.84149 -58086004.71949  14098002.5364   14098006.0934
 96 12 10  3 42 59.9750000  0  7 26 15 27  7  4  9  2
  15418689.254   -46647624.19849 -36328099.62649  15418689.1344   15418693.4794
  16969114.922   -37670109.45649 -28950810.25549  16969114.5464   16969117.0624
  15071466.490   -84310708.80949 -64834675.65149  15071465.6114   15071468.9694
  12928239.164   -57923982.13549 -45086725.79149  12928238.2674   12928242.6114
  15601126.923   -24509226.83749 -18624642.25549  15601127.8044   15601131.5684
  16411820.411   -16821552.98849 -13079815.20749  16411819.2844   16411823.1854
  14085429.209   -77525797.38249 -58137492.93849  14085428.2214   14085432.1044
 96 12 10  3 43 29.9750000  0  7 26 15 27  7  4  9  2
  15408810.925   -46699535.47149 -36368549.97749  15408810.7624   15408814.9364
  16964125.603   -37696328.51449 -28971240.68149  16964124.4114   16964129.0074
  15072837.546   -84303503.40049 -64829061.06549  15072836.8024   15072840.8834
  12915124.460   -57992900.31349 -45140428.27049  12915123.8164   12915127.9664
  15565364.309   -24697161.45449 -18771084.81349  15565363.8834   15565369.0964
  16376288.084   -17008276.71249 -13225314.20049  16376287.6124   16376290.6184
  14072881.716   -77591735.11849 -58188873.00349  14072880.6474   14072885.0064
 96 12 10  3 43 59.9750000  0  7 26 15 27  7  4  9  2
  15399014.583   -46751015.40649 -36408664.23649  15399014.5644   15399018.5994
  16959222.023   -37722096.22449 -28991319.42749  16959221.5454   16959225.4124
  15074257.100   -84296043.31049 -64823248.03449  15074255.6604   15074260.6624
  12902074.383   -58061479.06749 -45193866.26249  12902073.6404   12902077.8394
  15529632.763   -24884933.05649 -18917400.33949  15529633.0594   15529637.2244
  16340779.049   -17194877.94249 -13370717.73749  16340777.7654   16340781.8214
  14060355.758   -77657559.58249 -58240164.80349  14060354.4494   14060358.9054
 96 12 10  3 44 29.9750000  0  7 26 15 27  7  4  9  2
  15389301.657   -46802057.16749 -36448437.05749  15389301.7384   15389304.9414
  16954406.358   -37747402.26449 -29011038.44049  16954404.6604   16954408.1764
  15075727.476   -84288316.09349 -64817226.85249  15075726.7424   15075730.6244
  12889090.753   -58129708.77849 -45247032.26749  12889089.8394   12889094.1144
  15493937.410   -25072514.43149 -19063567.64549  15493938.3004   15493940.5574
  16305300.777   -17381317.16449 -13515995.05749  16305300.5954   16305303.4564
  14047857.663   -77723237.32949 -58291342.28449  14047856.4914   14047860.9994
 96 12 10  3 44 59.9750000  0  7 26 15 27  7  4  9  2
  15379678.189   -46852628.74249 -36487843.49349  15379678.2204   15379681.4904
  16949685.393   -37772211.13449 -29030370.03649  16949684.4584   16949689.2044
  15077260.826   -84280258.09549 -64810947.90649  15077260.3304   15077264.0204
  12876182.307   -58197543.50149 -45299890.48749  12876181.6754   12876185.5884
  15458282.151   -25259884.89249 -19209570.59049  15458282.6944   15458285.1424
  16269861.957   -17567549.34249 -13661111.01549  16269860.0004   16269865.4804
  14035399.912   -77788703.05949 -58342354.54649  14035398.7664   14035403.0844
 96 12 10  3 45 29.9750000  0  7 26 15 27  7  4  9  2
  15370128.285   -46902814.47749 -36526949.27149  15370128.5114   15370131.5734
  16945044.968   -37796597.33349 -29049372.26349  16945043.9104   16945048.9734
  15078846.513   -84271925.23549 -64804454.79749  15078845.5424   15078849.7704
  12863338.544   -58265038.21349 -45352483.76549  12863337.6374   12863341.7154
  15422651.764   -25447124.17049 -19355471.31449  15422651.4314   15422654.7684
  16234448.087   -17753650.21549 -13806124.66349  16234446.8664   16234451.4444
  14022972.325   -77854010.41149 -58393243.38849  14022971.1994   14022975.6554
 96 12 10  3 45 59.9750000  0  6 26 27  7  4  9  2
  15360659.589   -46952573.04149 -36565722.19249  15360659.5374   15360663.3874
  15080494.269   -84263266.30249 -64797707.59849  15080493.8014   15080497.5954
  12850573.360   -58332119.64949 -45404755.01349  12850572.4744   12850576.4034
  15387058.096   -25634170.13249 -19501221.39449  15387057.3424   15387061.5664
  16199066.243   -17939583.50249 -13951007.74049  16199065.7204   16199069.3034
  14010586.405   -77919098.74649 -58443961.58449  14010585.1244   14010589.6204
 96 12 10  3 46 29.9750000  0  6 26 27  7  4  9  2
  15351266.876   -47001932.69349 -36604184.27949  15351266.4694   15351270.1924
  15082199.899   -84254303.40549 -64790723.54449  15082199.5904   15082203.2094
  12837883.387   -58398805.85649 -45456718.30049  12837882.4994   12837886.4624
  15351495.263   -25821053.95749 -19646845.15249  15351495.1214   15351498.6194
  16163707.029   -18125398.10749 -14095798.34849  16163707.1484   16163710.0974
  13998236.702   -77983996.90349 -58494531.59049  13998235.6534   13998239.8024
 96 12 10  3 46 59.9740000  0  6 26 27  7  4  9  2
  15341953.445   -47050875.16849 -36642321.28849  15341953.2374   15341957.6814
  15083967.142   -84245016.97649 -64783487.38449  15083966.6274   15083970.9424
  12825275.643   -58465059.64249 -45508344.63049  12825274.9374   12825279.1684
  15315968.825   -26007746.31949 -19792319.71249  15315968.5164   15315972.9164
  16128376.018   -18311064.17349 -14240473.20049  16128375.7384   16128377.9824
  13985926.291   -78048688.84349 -58544940.90049  13985925.0064   13985929.5914
 96 12 10  3 47 29.9740000  0  6 26 27  7  4  9  2
  15332712.540   -47099436.76349 -36680161.50649  15332712.6744   15332716.4674
  15085789.901   -84235438.71249 -64776023.83249  15085789.6954   15085793.0964
  12812745.271   -58530907.33849 -45559654.52449  12812744.5724   12812748.5924
  15280477.490   -26194254.28049 -19937650.58549  15280476.7764   15280481.5784
  16093067.549   -18496611.78649 -14385055.75049  16093067.9814   16093070.5304
  13973648.528   -78113208.96549 -58595216.32649  13973647.1854   13973651.6454
 96 12 10  3 47 59.9740000  0  6 26 27  7  4  9  2
  15323544.619   -47147614.35549 -36717702.49849  15323543.9414   15323547.9384
  15087667.361   -84225572.85049 -64768336.16249  15087667.1154   15087671.9494
  12800289.421   -58596363.61449 -45610659.41649  12800288.3154   12800292.4354
  15245024.321   -26380561.77149 -20082825.24949  15245023.3204   15245027.7804
  16057785.295   -18682021.36149 -14529530.74049  16057784.4474   16057787.9244
  13961401.668   -78177566.50849 -58645365.06549  13961400.4844   13961404.7884
 96 12 10  3 48 29.9740000  0  6 26 27  7  4  9  2
  15314452.394   -47195394.76749 -36754934.01049  15314452.0154   15314455.4094
  15089600.387   -84215415.18449 -64760421.11949  15089600.1474   15089605.0504
  12787905.250   -58661442.81049 -45661370.48349  12787904.5784   12787908.5294
  15209609.767   -26566666.63949 -20227842.01449  15209609.6164   15209613.7424
  16022533.714   -18867269.44249 -14673879.90149  16022533.5314   16022535.6084
  13949186.340   -78241758.56249 -58695384.85849  13949185.4104   13949189.4324
 96 12 10  3 48 59.9740000  0  6 26 27  7  4  9  2
  15305435.753   -47242777.63249 -36791855.73249  15305434.5584   15305438.6084
  15091590.312   -84204958.61349 -64752273.17049  15091589.4804   15091595.0414
  12775592.756   -58726145.73349 -45711788.34649  12775591.8024   12775596.2264
  15174235.325   -26752560.53549 -20372694.39149  15174235.4254   15174238.1784
  15987313.840   -19052351.29949 -14818099.51649  15987313.6434   15987316.9194
  13937005.422   -78305769.75249 -58745263.71849  13937004.3934   13937008.6764
 96 12 10  3 49 29.9740000  0  6 26 27  7  4  9  2
  15296486.431   -47289806.30749 -36828501.46749  15296485.6334   15296489.9694
  15093624.342   -84194270.13049 -64743944.49849  15093623.1224   15093628.3194
  12763338.839   -58790540.45749 -45761966.05649  12763337.9354   12763342.1384
  15138892.232   -26938289.51949 -20517418.26049  15138891.6334   15138895.6204
  15952113.770   -19237329.10449 -14962238.06449  15952113.3624   15952115.8374
  13924849.793   -78369648.25849 -58795039.18649  13924848.8284   13924852.9024
 96 12 10  3 49 59.9740000  0  6 26 27  7  4  9  2
  15287621.003   -47336394.25349 -36864803.78049  15287621.2804   15287624.7634
  15095717.086   -84183273.05249 -64735375.37949  15095716.3934   15095721.0314
  12751157.394   -58854554.33349 -45811847.01049  12751156.5884   12751160.7684
  15103596.278   -27123770.79149 -20661949.11349  15103595.4484   15103599.6004
  15916950.451   -19422113.58049 -15106225.96849  15916949.2954   15916952.7484
  13912733.549   -78433319.72249 -58844653.32349  13912732.5664   13912736.7294
 96 12 10  3 50 29.9740000  0  6 26 27  7  4  9  2
  15278840.669   -47382535.93949 -36900758.35049  15278840.3594   15278844.6384
  15097868.623   -84171966.77349 -64726565.31449  15097867.4644   15097871.6374
  12739050.958   -58918174.24049 -45861420.96649  12739050.1894   12739054.1044
  15068349.805   -27308992.23149 -20806277.48149  15068349.1794   15068353.5694
  15881824.640   -19606700.72349 -15250060.11149  15881823.8424   15881826.6754
  13900660.136   -78496766.11049 -58894092.07149  13900658.9644   13900662.8604
 96 12 10  3 50 59.9740000  0  6 26 27  7  4  9  2
  15270135.629   -47428281.97649 -36936404.61649  15270135.2854   15270139.4264
  15100069.145   -84160402.62249 -64717554.30749  15100068.3304   15100072.8274
  12727012.985   -58981434.63149 -45910714.78049  12727012.2934   12727015.9394
  15033146.200   -27493988.36049 -20950430.30249  15033145.6904   15033149.6464
  15846728.174   -19791134.06049 -15393774.39349  15846727.2294   15846730.0214
  13888620.507   -78560034.51549 -58943392.13949  13888619.5394   13888623.5284
 96 12 10  3 51 29.9740000  0  6 26 27  7  4  9  2
  15261505.868   -47473632.42349 -36971742.64949  15261505.6394   15261509.6424
  15102319.112   -84148578.56149 -64708340.76849  15102318.6024   15102323.1214
  12715045.596   -59044324.02749 -45959719.48749  12715044.7584   12715048.8934
  14997988.985   -27678740.76849 -21094393.18949  14997988.0094   14997992.5554
  15811666.904   -19975382.26849 -15537344.43049  15811665.8124   15811669.5854
  13876612.929   -78623134.80449 -58992561.19749  13876611.6524   13876615.4854
 96 12 10  3 51 59.9740000  0  6 26 27  7  4  9  2
  15252949.632   -47518596.36649 -37006779.49849  15252949.8634   15252953.1624
  15104620.948   -84136481.91749 -64698914.82549  15104620.6494   15104624.3034
  12703149.013   -59106840.94449 -46008433.96949  12703147.9744   12703152.2054
  14962875.760   -27863261.69149 -21238175.72949  14962875.6874   14962879.6034
  15776641.095   -20159444.12449 -15680769.24149  15776640.1894   15776642.9964
  13864637.287   -78686067.02549 -59041599.30049  13864636.1424   13864640.2674
 96 12 10  3 52 29.9740000  0  6 26 27  7  4  9  2
  15244463.437   -47563191.40349 -37041528.90749  15244463.0684   15244466.7354
  15106971.546   -84124129.03649 -64689289.22749  15106970.5424   15106975.2324
  12691320.420   -59169000.66749 -46056870.11249  12691319.5424   12691323.4924
  14927801.579   -28047577.65249 -21381798.54449  14927801.4084   14927805.5804
  15741645.908   -20343345.32049 -15824068.86649  15741644.7564   15741648.1794
  13852695.086   -78748823.57649 -59090500.52049  13852693.9104   13852697.9054
 96 12 10  3 52 59.9740000  0  6 26 27  7  4  9  2
  15236052.325   -47607391.31549 -37075970.42549  15236051.7014   15236056.6964
  15109377.289   -84111486.47049 -64679437.90349  15109376.1674   15109380.2544
  12679562.855   -59230787.16249 -46105015.43649  12679561.8924   12679565.9294
  14892771.025   -28231664.62849 -21525242.92649  14892770.5994   14892774.3934
  15706685.949   -20527061.20749 -15967224.12549  15706684.9084   15706687.9894
  13840790.935   -78811380.26049 -59139246.00149  13840789.9604   13840793.7694
 96 12 10  3 53 29.9740000  0  6 26 27  7  4  9  2
  15227712.499   -47651216.32349 -37110119.80049  15227711.8944   15227715.2324
  15111834.088   -84098575.88649 -64669377.73849  15111833.4454   15111837.2594
  12667870.926   -59292228.85749 -46152892.08349  12667870.0764   12667873.8934
  14857779.343   -28415547.43149 -21668528.20749  14857779.1244   14857783.6414
  15671755.328   -20710623.21149 -16110259.46349  15671754.1104   15671757.1944
  13828922.401   -78873750.02849 -59187845.83049  13828921.3574   13828925.2874
 96 12 10  3 53 59.9740000  0  6 26 27  7  4  9  2
  15219452.275   -47694623.81849 -37143943.83949  15219451.9234   15219455.7704
  15114348.569   -84085362.17049 -64659081.35549  15114347.2954   15114352.3474
  12656249.498   -59353299.95049 -46200479.94249  12656248.5014   12656252.3584
  14822833.334   -28599190.18749 -21811626.43749  14822833.0364   14822837.0874
  15636858.973   -20894004.06249 -16253153.62149  15636859.0784   15636861.0914
  13817099.752   -78935878.47849 -59236257.61249  13817098.7724   13817102.8144
 96 12 10  3 54 29.9740000  0  6 26 27  7  4  9  2
  15211258.066   -47737684.59749 -37177497.70949  15211256.7364   15211261.0834
  15116907.795   -84071913.02349 -64648601.53949  15116906.5334   15116911.4134
  12644687.169   -59414060.46549 -46247825.80049  12644686.2564   12644689.8194
  14787925.136   -28782634.15849 -21954569.78249  14787924.9034   14787928.2714
  15601988.108   -21077251.84549 -16395944.10149  15601987.6694   15601990.7104
  13805307.756   -78997845.92749 -59284543.94249  13805306.7654   13805310.4214
 96 12 10  3 54 59.9740000  0  6 26 27  7  4  9  2
  15203134.258   -47780375.73449 -37210763.54849  15203134.9394   15203138.0714
  15119516.784   -84058202.71449 -64637918.21949  15119516.1674   15119519.6324
  12633192.122   -59474467.38649 -46294896.13349  12633191.1944   12633194.7574
  14753061.722   -28965842.60249 -22097329.59849  14753061.3784   14753064.5914
  15567151.101   -21260321.16349 -16538595.52349  15567150.4064   15567154.4374
  13793546.461   -79059652.08549 -59332704.59449  13793545.3674   13793549.2314
 96 12 10  3 55 29.9730000  0  6 26 27  7  4  9  2
  15195076.441   -47822720.70249 -37243759.64749  15195076.0984   15195079.7304
  15122169.154   -84044264.31949 -64627057.17149  15122167.9814   15122172.3294
  12621761.950   -59534533.31949 -46341700.75649  12621760.8274   12621764.6304
  14718241.550   -29148823.68849 -22239912.25049  14718241.0544   14718244.8374
  15532347.386   -21443215.78849 -16681110.81149  15532347.2904   15532349.6934
  13781812.598   -79121313.82249 -59380752.70649  13781811.1914   13781815.7824
 96 12 10  3 55 59.9730000  0  6 26 27  7  4  9  2
  15187084.588   -47864718.77249 -37276485.43949  15187083.8414   15187088.3864
  15124867.209   -84030086.10949 -64616009.24849  15124866.0834   15124871.0144
  12610397.460   -59594253.91849 -46388236.28449  12610396.3244   12610400.0824
  14683464.113   -29331580.37849 -22382320.05249  14683463.4204   14683467.4714
  15497576.596   -21625937.68349 -16823491.50049  15497574.7224   15497578.4484
  13770105.612   -79182833.86149 -59428690.40949  13770104.3254   13770108.9494
 96 12 10  3 56 29.9730000  0  6 26 27  7  4  9  2
  15179167.342   -47906324.19649 -37308905.26449  15179166.6224   15179172.0754
  15127619.895   -84015620.77949 -64604737.59149  15127619.4074   15127624.0174
  12599109.216   -59653573.84049 -46434459.60149  12599108.1794   12599111.6424
  14648739.043   -29514062.05649 -22524513.54949  14648738.8794   14648742.9064
  15462849.722   -21808428.23649 -16965691.91949  15462849.0424   15462852.6924
  13758434.898   -79244163.07449 -59476479.40549  13758433.3454   13758438.4214
 96 12 10  3 56 59.9730000  0  6 26 27  7  4  9  2
  15171311.337   -47947607.46749 -37341074.06349  15171310.2004   15171315.4564
  15130410.640   -84000955.72349 -64593310.30749  15130410.2354   15130414.5514
  12587880.756   -59712579.66949 -46480438.16649  12587879.8724   12587883.4384
  14614048.551   -29696361.83049 -22666565.29149  14614048.0954   14614051.8244
  15428152.622   -21990762.40249 -17107770.47949  15428151.4234   15428155.2544
  13746791.704   -79305348.25549 -59524156.17449  13746790.4554   13746794.7814
 96 12 10  3 57 29.9730000  0  6 26 27  7  4  9  2
  15163529.577   -47988500.60149 -37372938.85849  15163529.6274   15163532.8734
  15133252.928   -83986019.67949 -64581671.85149  15133251.9084   15133256.8104
  12576724.039   -59771208.57549 -46526123.02049  12576723.3664   12576726.7914
  14579407.744   -29878400.57649 -22808413.64949  14579407.2564   14579410.7134
  15393497.678   -22172874.43449 -17249675.95749  15393496.8244   15393501.0024
  13735193.102   -79366299.43549 -59571650.60849  13735192.2044   13735196.6574
 96 12 10  3 57 59.9730000  0  6 26 27  7  4  9  2
  15155812.142   -48029055.96649 -37404540.45049  15155812.0104   15155815.8944
  15136136.649   -83970865.99149 -64569863.80649  15136135.4024   15136141.2414
  12565631.352   -59829501.07549 -46571545.75149  12565630.3554   12565634.1014
  14544810.038   -30060213.08049 -22950085.72749  14544809.9484   14544813.7474
  15358875.997   -22354811.88949 -17391445.39849  15358875.0524   15358878.8554
  13723629.730   -79427065.77949 -59619001.01549  13723628.7004   13723632.8224
 96 12 10  3 58 29.9730000  0  6 26 27  7  4  9  2
  15148162.766   -48069253.62449 -37435863.32249  15148162.6554   15148167.7924
  15139065.640   -83955474.45349 -64557870.42649  15139064.8534   15139069.8154
  12554608.188   -59887428.19349 -46616683.75949  12554607.2264   12554610.9324
  14510263.839   -30241754.98349 -23091546.93549  14510263.6044   14510267.1294
  15324295.298   -22536534.12449 -17533047.13349  15324293.9924   15324298.3174
  13712109.331   -79487605.89149 -59666175.13549  13712108.2154   13712112.6724
 96 12 10  3 58 59.9730000  0  6 26 27  7  4  9  2
  15140574.610   -48109129.85949 -37466935.73849  15140574.0094   15140578.1134
  15142032.401   -83939883.94649 -64545721.99949  15142032.0194   15142036.1704
  12543647.579   -59945026.24249 -46661565.35749  12543646.5744   12543650.4444
  14475767.814   -30423032.97049 -23232802.47749  14475767.4454   14475771.3084
  15289748.627   -22718077.78649 -17674509.71349  15289747.4084   15289751.7024
  13700625.318   -79547954.98549 -59713200.40749  13700624.4254   13700628.6884
 96 12 10  3 59 29.9730000  0  6 26 27  7  4  9  2
  15133057.114   -48148634.68949 -37497718.74149  15133057.1634   15133059.8764
  15145047.715   -83924038.10549 -64533374.61249  15145046.4334   15145051.3964
  12532758.883   -60002246.76149 -46706152.77049  12532758.0524   12532761.5104
  14441337.439   -30603965.51049 -23373788.84649  14441337.0604   14441341.3544
  15255244.600   -22899397.46949 -17815797.77349  15255244.3844   15255247.1394
  13689185.612   -79608071.66549 -59760044.57849  13689184.9444   13689188.9944
 96 12 10  3 59 59.9730000  0  6 26 27  7  4  9  2
  15125603.536   -48187803.63549 -37528240.02749  15125603.3634   15125607.1634
  15148103.636   -83907979.00349 -64520861.04649  15148102.8474   15148107.8084
  12521930.213   -60059151.60949 -46750494.21049  12521929.4294   12521932.9494
  14406965.070   -30784592.96349 -23514537.48649  14406964.6864   14406968.2624
  15220774.808   -23080537.47749 -17956945.82549  15220774.5474   15220777.6404
  13677781.430   -79668001.72249 -59806743.33649  13677780.6894   13677784.6854
 96 12 10  4  0 29.9730000  0  6 26 27  7  4  9  2
  15118213.327   -48226639.31849 -37558501.59549  15118212.5794   15118216.9854
  15151199.914   -83891707.89249 -64508182.26049  15151199.4934   15151204.5784
  12511157.480   -60115762.75949 -46794606.78949  12511156.6564   12511160.2624
  14372646.448   -30964937.76849 -23655065.87849  14372645.4954   14372650.5504
  15186339.774   -23261494.96649 -18097951.66149  15186339.1564   15186342.2944
  13666411.359   -79727752.18849 -59853302.15149  13666410.2814   13666414.2484
 96 12 10  4  0 59.9730000  0  6 26 27  7  4  9  2
  15110905.687   -48265040.75649 -37588424.81249  15110905.1984   15110909.1364
  15154353.968   -83875133.57949 -64495267.21549  15154353.2504   15154358.5794
  12500458.334   -60171987.13049 -46838417.98549  12500457.1244   12500461.2944
  14338396.693   -31144920.37849 -23795312.05649  14338395.8554   14338400.4894
  15151957.189   -23442176.88049 -18238742.76249  15151956.7694   15151959.9154
  13655091.307   -79787239.59949 -59899655.98949  13655090.3584   13655094.2784
 96 12 10  4  1 29.9730000  0  6 26 27  7  4  9  2
  15103665.086   -48303089.60649 -37618073.27449  15103665.1804   15103668.6764
  15157549.646   -83858340.36849 -64482181.61349  15157549.3974   15157553.7094
  12489819.309   -60227895.13849 -46881982.66949  12489818.2094   12489822.2934
  14304195.410   -31324648.35249 -23935359.81249  14304194.1224   14304198.7404
  15117612.875   -23622657.27749 -18379376.84149  15117611.9154   15117614.8194
  13643806.021   -79846544.66449 -59945867.73749  13643805.0304   13643808.8444
 96 12 10  4  1 59.9730000  0  6 26 27  7  4  9  2
  15096482.683   -48340833.58849 -37647484.17549  15096482.5734   15096485.8674
  15160780.575   -83841362.23049 -64468951.90749  15160779.8414   15160784.8664
  12479237.177   -60283504.55449 -46925314.67949  12479236.1954   12479240.2284
  14270031.968   -31504177.61949 -24075252.72549  14270031.1534   14270035.5684
  15083301.323   -23802965.74949 -18519876.94849  15083300.2194   15083303.8384
  13632548.218   -79905705.16949 -59991966.83749  13632547.2244   13632551.2464
 96 12 10  4  2 29.9730000  0  6 26 27  7  4  9  2
  15089371.974   -48378201.04749 -37676601.70349  15089371.0164   15089374.9804
  15164063.221   -83824112.32449 -64455510.45849  15164063.0484   15164066.9544
  12468729.891   -60338720.70449 -46968340.25549  12468729.0684   12468732.9824
  14235922.455   -31683423.67949 -24214924.97349  14235921.9064   14235926.5204
  15049041.026   -23983005.12049 -18660167.37449  15049040.1164   15049043.0574
  13621333.196   -79964640.39049 -60037890.40149  13621332.0184   13621336.1474
 96 12 10  4  2 59.9730000  0  6 26 27  7  4  9  2
  15082312.208   -48415300.09849 -37705510.07349  15082311.2334   15082316.0754
  15167378.657   -83806689.79149 -64441934.47349  15167377.7034   15167382.6324
  12458277.848   -60393646.60549 -47011139.66149  12458276.9544   12458280.8884
  14201849.671   -31862477.20049 -24354447.18449  14201849.6844   14201853.4794
  15014809.990   -24162890.61749 -18800337.89749  15014809.2744   15014812.4614
  13610142.127   -80023449.97149 -60083716.05749  13610140.7664   13610145.1674
 96 12 10  4  3 29.9730000  0  6 26 27  7  4  9  2
  15075320.727   -48452040.63849 -37734139.08149  15075321.2424   15075324.5264
  15170746.437   -83788992.16649 -64428144.15049  15170745.6914   15170750.0974
  12447896.593   -60448200.26949 -47053649.01249  12447895.8614   12447899.6304
  14167835.005   -32041225.79749 -24493731.79149  14167835.0524   14167839.0684
  14980626.730   -24342525.13049 -18940312.85849  14980626.7284   14980629.7764
  13598992.330   -80082042.23749 -60129372.37449  13598991.0944   13598995.2974
 96 12 10  4  3 59.9730000  0  6 26 27  7  4  9  2
  15068386.533   -48488480.42849 -37762533.74549  15068386.2934   15068391.3194
  15174156.383   -83771072.96249 -64414181.15549  15174155.9504   15174160.4344
  12437570.891   -60502462.50949 -47095931.27649  12437570.1094   12437574.0304
  14133872.357   -32219701.27149 -24632803.58249  14133872.2544   14133875.9694
  14946482.189   -24521956.43349 -19080129.46649  14946482.0164   14946484.3974
  13587871.277   -80140483.43449 -60174910.97349  13587869.9634   13587874.1964
 96 12 10  4  4 29.9720000  0  6 26 27  7  4  9  2
  15061518.943   -48524570.78149 -37790656.11149  15061519.4874   15061522.3004
  15177612.818   -83752908.68549 -64400027.18349  15177611.4484   15177616.6994
  12427304.562   -60556412.66049 -47137970.36249  12427303.5074   12427307.3854
  14099972.219   -32397848.19549 -24771619.35449  14099972.5024   14099975.6384
  14912385.197   -24701137.65249 -19219751.20149  14912384.5814   14912387.9214
  13576786.525   -80198733.96949 -60220301.01149  13576785.4074   13576789.4344
 96 12 10  4  4 59.9720000  0  6 26 27  7  4  9  2
  15054711.705   -48560343.86849 -37818531.27349  15054711.0504   15054715.2954
  15181106.514   -83734548.38749 -64385720.50949  15181106.0994   15181110.7824
  12417091.041   -60610085.08649 -47179793.03649  12417090.1774   12417094.0634
  14066127.515   -32575703.78049 -24910208.11449  14066126.7734   14066131.0404
  14878328.663   -24880105.91549 -19359206.98949  14878328.3084   14878331.4114
  13565732.897   -80256821.23649 -60265563.82849  13565731.9394   13565736.2064
 96 12 10  4  5 29.9720000  0  6 26 27  7  4  9  2
  15047965.463   -48595796.47349 -37846156.70249  15047965.0314   15047969.3094
  15184637.513   -83715992.26849 -64371261.24149  15184636.5754   15184641.8194
  12406932.869   -60663466.74049 -47221389.13549  12406931.7704   12406935.7694
  14032342.340   -32753246.40249 -25048553.00149  14032342.2324   14032346.5554
  14844317.461   -25058835.99249 -19498477.17749  14844316.4344   14844319.8604
  13554711.402   -80314739.60549 -60310695.03649  13554710.0694   13554714.2604
 96 12 10  4  5 59.9720000  0  6 26 27  7  4  9  2
  15041290.319   -48630874.23749 -37873490.04349  15041289.7024   15041293.6274
  15188214.330   -83697195.25149 -64356614.23649  15188213.0994   15188218.6034
  12396842.419   -60716492.25749 -47262707.71249  12396841.5654   12396845.3384
  13998625.730   -32930428.26949 -25186616.78149  13998625.0844   13998629.7114
  14810363.307   -25237266.31949 -19637513.79549  14810363.3494   14810366.0254
  13543736.616   -80372412.25149 -60355634.76949  13543735.3274   13543740.0574
 96 12 10  4  6 29.9720000  0  6 26 27  7  4  9  2
  15034671.279   -48665657.41149 -37900593.84349  15034671.1244   15034674.6574
  15191822.945   -83678231.26649 -64341837.14449  15191821.9704   15191828.1654
  12386808.350   -60769221.73849 -47303795.61849  12386807.7214   12386811.2774
  13964962.437   -33107329.63149 -25324461.99049  13964962.2284   13964965.8504
  14776451.703   -25415473.08749 -19776376.21549  14776451.0664   14776454.3294
  13532797.637   -80429897.08449 -60400428.15549  13532796.6204   13532800.9934
 96 12 10  4  6 59.9720000  0  6 26 27  7  4  9  2
  15028104.144   -48700167.81849 -37927485.07549  15028103.3014   15028107.6164
  15195465.269   -83659090.40149 -64326922.22349  15195465.1084   15195471.0344
  12376831.060   -60821652.81049 -47344650.99549  12376830.3294   12376834.3024
  13931352.069   -33283953.06149 -25462090.61349  13931351.4464   13931356.0144
  14742580.842   -25593465.56249 -19915071.63049  14742580.7244   14742583.5074
  13521894.792   -80487192.18149 -60445073.69149  13521893.7684   13521897.6794
 96 12 10  4  7 29.9720000  0  6 26 27  7  4  9  2
  15021591.614   -48734391.44149 -37954152.85349  15021590.8194   15021594.9554
  15199147.185   -83639742.30049 -64311845.80949  15199147.3994   15199152.0064
  12366913.411   -60873770.56549 -47385262.23049  12366912.7444   12366916.3424
  13897799.273   -33460274.15549 -25599483.66949  13897799.0644   13897803.0894
  14708751.652   -25771238.81349 -20053596.23349  14708750.3444   14708754.2064
  13511033.004   -80544271.40349 -60489551.02149  13511031.5974   13511036.0674
 96 12 10  4  7 59.9720000  0  6 26 27  7  4  9  2
  15015134.454   -48768323.84649 -37980593.71149  15015134.1294   15015138.7664
  15202869.810   -83620179.81849 -64296602.33249  15202868.9934   15202874.2184
  12357056.040   -60925571.42749 -47425626.53849  12357055.2094   12357059.1464
  13864305.374   -33636285.90749 -25736635.67749  13864304.8714   13864309.0634
  14674966.397   -25948781.52849 -20191941.19249  14674965.6834   14674969.3474
  13500214.872   -80601121.00649 -60533849.42649  13500213.4974   13500218.0424
 96 12 10  4  8 29.9720000  0  6 26 27  7  4  9  2
  15008731.862   -48801969.30649 -38006810.95749  15008731.6114   15008736.1034
  15206635.391   -83600391.99549 -64281183.26449  15206634.8664   15206639.3644
  12347260.657   -60977046.68949 -47465737.13949  12347259.9404   12347263.7274
  13830875.317   -33811962.71549 -25873526.68349  13830875.0144   13830878.7534
  14641225.538   -26126090.52749 -20330104.04749  14641223.9224   14641228.6074
  13489438.456   -80657751.12549 -60577976.79749  13489437.0974   13489441.5674
 96 12 10  4  8 59.9720000  0  6 26 27  7  4  9  2
  15002382.214   -48835336.26849 -38032811.21349  15002381.7974   15002386.4044
  15210441.019   -83580393.93749 -64265600.37449  15210440.1314   15210445.6574
  12337523.452   -61028216.21449 -47505609.49149  12337522.4414   12337526.3024
  13797508.834   -33987305.22849 -26010157.20149  13797508.4444   13797512.1254
  14607528.717   -26303168.45349 -20468086.83049  14607528.2694   14607531.6394
  13478701.627   -80714173.22149 -60621942.07649  13478700.4504   13478704.9664
 96 12 10  4  9 29.9720000  0  6 26 27  7  4  9  2
  14996091.899   -48868391.65649 -38058568.68349  14996091.6424   14996095.8654
  15214286.273   -83560187.20449 -64249854.90649  15214285.3294   15214291.0534
  12327845.766   -61079072.76349 -47545237.97649  12327844.6914   12327848.8214
  13764210.234   -34162290.77449 -26146509.56549  13764209.4464   13764213.5914
  14573882.042   -26479982.98149 -20605864.38649  14573881.5724   14573884.3014
  13468006.104   -80770378.35449 -60665738.30349  13468005.0244   13468009.7114
 96 12 10  4  9 59.9720000  0  6 26 27  7  4  9  2
  14989860.374   -48901138.20249 -38084085.48149  14989860.5454   14989864.8014
  15218167.345   -83539792.64949 -64233963.08649  15218167.3124   15218171.4304
  12318227.508   -61129616.84449 -47584622.97649  12318226.4794   12318230.5424
  13730978.789   -34336922.90549 -26282586.54249  13730978.3814   13730981.4944
  14540287.261   -26656525.07349 -20743429.64849  14540287.0094   14540289.4314
  13457347.254   -80826390.77249 -60709384.35149  13457345.9634   13457351.0064
 96 12 10  4 10 29.9720000  0  6 26 27  7  4  9  2
  14983689.328   -48933567.76049 -38109355.27049  14983689.0184   14983693.3464
  15222082.739   -83519217.97649 -64217930.89149  15222081.7924   15222087.1704
  12308669.603   -61179843.94349 -47623760.98549  12308668.8264   12308672.9434
  13697814.946   -34511199.52149 -26418386.49949  13697814.5904   13697818.1944
  14506745.184   -26832789.64149 -20880778.67049  14506744.6404   14506748.3964
  13446726.540   -80882202.75649 -60752874.22449  13446725.4564   13446730.3714
 96 12 10  4 10 59.9720000  0  7 26 27  7  4  9  2 24
  14977579.669   -48965675.03449 -38134373.93949  14977579.6074   14977583.8404
  15226029.359   -83498479.02949 -64201770.71249  15226028.9794   15226033.8554
  12299167.547   -61229777.93949 -47662670.59449  12299166.9344   12299170.9194
  13664715.351   -34685138.69449 -26553923.51049  13664714.8354   13664718.4724
  14473254.981   -27008781.66349 -21017915.31149  14473254.4944   14473257.9884
  13436145.235   -80937807.74149 -60796202.80049  13436144.1014   13436149.1214
  16183213.839    -6431199.67649  -4510542.31649  16183213.5944   16183218.3484
 96 12 10  4 11 29.9720000  0  7 26 27  7  4  9  2 24
  14971524.875   -48997493.61049 -38159167.63149  14971524.1594   14971528.6114
  15229998.873   -83477619.47349 -64185516.55449  15229998.7714   15230003.0434
  12289716.202   -61279445.51349 -47701372.59749  12289715.3774   12289719.2924
  13631673.250   -34858775.82449 -26689225.15649  13631672.4904   13631676.4984
  14439809.613   -27184538.04349 -21154868.33949  14439809.1384   14439812.5934
  13425597.122   -80993238.69149 -60839395.76649  13425596.1734   13425600.8604
  16145323.984    -6630311.94649  -4665694.71349  16145323.6654   16145327.5804
 96 12 10  4 11 59.9720000  0  7 26 27  7  4  9  2 24
  14965529.212   -49029001.17849 -38183719.00149  14965528.1304   14965531.4624
  15234001.723   -83456585.00249 -64169126.07849  15234001.6904   15234005.9934
  12280324.123   -61328801.30049 -47739831.65249  12280323.1794   12280327.2974
  13598697.157   -35032066.23349 -26824256.63549  13598696.3084   13598700.5264
  14406415.317   -27360026.48749 -21291612.58549  14406414.7774   14406418.1774
  13415090.608   -81048450.97749 -60882418.34149  13415089.8574   13415094.3314
  16107434.412    -6829421.94649  -4820845.34049  16107433.6164   16107438.8634
